     2              OBSERVATION DATA    GPS                 RINEX VERSION / TYPE
teqc 1997Sep10 19971010 23:20:44UTC                         PGM / RUN BY / DATE
                                                            COMMENT
Original Marker Name: T122                                  COMMENT
Campaign Name: NGS Salton Trough 1991                       COMMENT
4-Character Station Name: T122                              COMMENT
6-Character Antenna Code: TRMSST                            COMMENT
Vertical Measurement Point: BGP                             COMMENT
Vertical Offset to Rinex Ref. Point: 0.0597                 COMMENT
Radial Measurement Point: NGP                               COMMENT
Radial Offset to Rinex Ref. Point: 0.2334                   COMMENT
Antenna Height from Field Measurement: 1.8290 m             COMMENT
Original XYZ: 0.0000 0.0000 0.0000                          COMMENT
New XYZ position is based on association with SCEC monument COMMENT
E1C9O2V4+0011. Position of that monument is believed to be  COMMENT
valid to within 1 m horizontally; vertical accuracy         COMMENT
should be no worse than 3-times this value.                 COMMENT
                                                            COMMENT
Revised Rinex header created by UCSD GPS archive for        COMMENT
GSAC on 12-Apr-1999 (1999:102) 01:13:15 GMT                 COMMENT
For assistance contact dagnew@ucsd.edu or hjohnson@ucsd.edu COMMENT
                                                            COMMENT
T1226 1972                                                  MARKER NAME
unknown NATIONAL GEODETIC SURVEY                            OBSERVER / AGENCY
485 TRIMBLE 4000 SST NP 4.30 / SP 4.20                      REC # / TYPE / VERS
16 TR 4000SST L1/L2 GEO                                     ANT # / TYPE
 -2250006.0000 -4868334.0000  3440848.0000                  APPROX POSITION XYZ
        1.7543        0.0000        0.0000                  ANTENNA: DELTA H/E/N
     1     1     0                                          WAVELENGTH FACT L1/2
     3    C1    L1    L2                                    # / TYPES OF OBSERV
     0                                                      INTERVAL
  1991     3    26    21    48   15.000000                  TIME OF FIRST OBS
  1991     3    27     3    16   15.000000                  TIME OF LAST OBS
     0                                                      # OF SATELLITES
                                                            END OF HEADER
 91  3 26 21 48 15.0000000  0  4G18G 2G11G19
  20438603.680          -0.49618        -0.49332
  23840856.836          -0.42115        -0.13731
  23343328.109          -0.92815        -0.23931
  20885529.3134         -0.24756        -0.09472
 91  3 26 21 48 30.0000000  0  4G18G 2G11G19
  20439069.227        2449.303 8      1908.41522
  23829807.7664     -58069.71445    -45248.66661
  23335350.3594     -41922.64346    -32666.40661
  20882152.047      -17769.535 6    -13846.27522
 91  3 26 21 48 45.0000000  0  4G18G 2G11G19
  20439549.656        4978.058 8      3878.85323
  23818757.008     -116130.446 5    -90490.49821
  23327385.7274     -83781.13146    -65283.31361
  20878766.9924     -35539.11346    -27692.68562
 91  3 26 21 49  0.0000000  0  4G18G 2G11G19
  20440049.516        7602.067 8      5923.51623
  23807714.336     -174166.472 5   -135713.09021
  23319433.586     -125559.780 6    -97837.99821
  20875391.3204     -53292.70646    -41526.64562
 91  3 26 21 49 15.0000000  0  4G18G 2G11G19
  20440563.773       10305.659 8      8030.18423
  23796672.5634    -232193.42445   -180928.60061
  23311496.9534    -167273.83846   -130342.37261
  20872009.2584     -71046.09746    -55360.44762
 91  3 26 21 49 30.0000000  0  4G18G 2G11G19
  20441095.289       13099.590 8     10207.25423
  23785633.953     -290200.218 5   -226128.40821
  23303571.375     -208912.014 6   -162787.60421
  20868636.2734     -88788.38246    -69185.59762
 91  3 26 21 49 45.0000000  0  4G18G 2G11G19
  20441645.656       15990.672 8     12460.02523
  23774601.555     -348179.884 5   -271307.08021
  23295665.750     -250467.277 6   -195168.23021
  20865260.6564    -106512.84346    -82996.85862
 91  3 26 21 50  0.0000000  0  4G18G 2G11G19
  20442213.617       18977.480 8     14787.38623
  23763571.867     -406133.695 5   -316465.60921
  23287773.508     -291940.811 6   -227485.19921
  20861893.1954    -124220.99546    -96795.41962
 91  3 26 21 50 15.0000000  0  4G18G 2G11G19
  20442801.117       22062.470 8     17191.25023
  23752548.367     -464058.843 5   -361601.80821
  23279898.2584    -333329.61046   -259736.14961
  20858525.6564    -141910.26246   -110579.25662
 91  3 26 21 50 30.0000000  0  4G18G 2G11G19
  20443406.469       25248.316 8     19673.70723
  23741533.773     -521952.727 5   -406713.64121
  23272037.008     -374630.733 6   -291918.76021
  20855163.3054    -159578.01746   -124346.33262
 91  3 26 21 50 45.0000000  0  4G18G 2G11G19
  20444032.195       28531.482 8     22231.99923
  23730519.180     -579818.719 5   -451803.74521
  23264194.0394    -415847.34646   -324035.54261
  20851804.3054    -177227.79446   -138099.40062
 91  3 26 21 51  0.0000000  0  4G18G 2G11G19
  20444675.742       31913.439 8     24867.27923
  23719514.547     -637655.231 5   -496870.87921
  23256368.2034    -456977.70946   -356085.12461
  20848451.9384    -194858.08146   -151837.28462
 91  3 26 21 51 15.0000000  0  4G18G 2G11G19
  20445337.984       35395.051 8     27580.20223
  23708512.617     -695461.046 5   -541914.07921
  23248556.0394    -498020.32346   -388066.31361
  20845098.1414    -212467.89746   -165559.20962
 91  3 26 21 51 30.0000000  0  4G18G 2G11G19
  20446021.133       38974.844 8     30369.62822
  23697519.3674    -753237.47445   -586934.40861
  23240763.227     -538976.407 6   -419980.10121
  20841751.9924    -230058.69146   -179266.31562
 91  3 26 21 51 45.0000000  0  4G18G 2G11G19
  20446719.938       42659.174 8     33240.51422
  23686530.391     -810978.043 5   -631926.78321
  23232987.8754    -579839.30846   -451821.26161
  20838409.1484    -247624.18846   -192953.71462
 91  3 26 21 52  0.0000000  0  4G18G 2G11G19
  20447437.328       46423.996 8     36174.11422
  23675546.391     -868706.837 5   -676910.00821
  23225224.234     -620632.845 6   -483608.37321
  20835069.9144    -265188.58046   -206640.24362
 91  3 26 21 52 15.0000000  0  4G18G 2G11G19
  20448169.859       50275.763 8     39175.47723
  23664565.523     -926416.979 5   -721878.67321
  23217474.945     -661350.024 6   -515336.01021
  20831726.1804    -282745.09146   -220320.63463
 91  3 26 21 52 30.0000000  0  4G18G 2G11G19
  20448925.070       54241.726 8     42265.82122
  23653589.734     -984081.157 5   -766811.54821
  23209747.094     -701963.185 6   -546982.56921
  20828394.266     -300266.403 6   -233973.59322
 91  3 26 21 52 44.9990000  0  4G18G 2G11G19
  20449699.331       58314.622 8     45439.48422
  23642625.401    -1041702.354 5   -811710.93121
  23202038.472     -742476.296 6   -578551.19321
  20825062.5584    -317758.45246   -247603.74863
 91  3 26 21 52 59.9990000  0  4G18G 2G11G19
  20450495.198       62493.711 8     48695.90223
  23631667.0894   -1099289.20745   -856583.55061
  23194348.597     -782895.684 6   -610046.77421
  20821743.136     -335224.649 6   -261213.76222
 91  3 26 21 53 14.9990000  0  4G18G 2G11G19
  20451307.792       66766.844 8     52025.59723
  23620714.448    -1156849.728 5   -901435.65221
  23186671.4094    -823230.27046   -641476.27561
  20818417.151     -352675.913 6   -274812.14222
 91  3 26 21 53 29.9990000  0  4G18G 2G11G19
  20452140.901       71142.146 8     55434.90123
  23609766.065    -1214375.779 5   -946260.90821
  23179014.4954    -863471.56946   -672833.08761
  20815102.5034    -370104.12146   -288392.54862
 91  3 26 21 53 44.9990000  0  4G18G 2G11G19
  20452993.597       75619.570 8     58923.79223
  23598827.355    -1271866.932 5   -991058.96321
  23171373.636     -903618.878 6   -704116.67121
  20811789.1444    -387508.95946   -301954.74862
 91  3 26 21 53 59.9990000  0  4G18G 2G11G19
  20453863.042       80188.086 8     62483.65223
  23587890.308    -1329334.141 5  -1035838.38021
  23163750.3554    -943683.05245   -735335.44361
  20808482.167     -404901.843 6   -315507.62822
 91  3 26 21 54 14.9990000  0  4G18G 2G11G19
  20454753.550       84869.288 8     66131.33123
  23576965.9874   -1386755.66845  -1080582.18461
  23156144.2764    -983642.16245   -766472.35761
  20805176.151     -422260.900 6   -329034.15222
 91  3 26 21 54 29.9990000  0  4G18G 2G11G19
  20455663.659       89649.053 8     69855.80323
  23566041.651    -1444145.406 5  -1125301.22621
  23148560.1204   -1023510.02346   -797538.16961
  20801877.565     -439600.114 6   -342545.21123
 91  3 26 21 54 44.9990000  0  4G18G 2G11G19
  20456590.823       94524.004 8     73654.44223
  23555124.183    -1501506.667 5  -1169998.08921
  23140988.151    -1063289.735 6   -828535.30521
  20798580.948     -456923.017 6   -356043.56322
 91  3 26 21 54 59.9990000  0  4G18G 2G11G19
  20457538.6204      99505.28148     77535.92864
  23544218.542    -1558828.273 5  -1214664.06721
  23133437.2844   -1102969.83646   -859454.80261
  20795289.5504    -474218.41746   -369520.48362
 91  3 26 21 55 14.9990000  0  4G18G 2G11G19
  20458503.417      104576.966 8     81487.86323
  23533313.3314   -1616125.84345  -1259311.29261
  23125903.6124   -1142565.62546   -890308.60061
  20791999.011     -491502.014 6   -382988.20722
 91  3 26 21 55 29.9990000  0  4G18G 2G11G19
  20459486.050      109744.501 8     85514.49023
  23522416.5194   -1673393.78445  -1303935.47561
  23118387.6754   -1182071.58546   -921092.39061
  20788717.565     -508768.572 6   -396442.65222
 91  3 26 21 55 44.9990000  0  4G18G 2G11G19
  20460488.8624     115007.59048     89615.57163
  23511525.1514   -1730632.01945  -1348536.47761
  23110885.136    -1221487.314 6   -951805.89921
  20785431.823     -526018.219 6   -409883.92322
 91  3 26 21 55 59.9990000  0  4G18G 2G11G19
  20461514.565      120396.439 8     93814.65023
  23500640.5504   -1787810.21645  -1393090.70161
  23103409.7304   -1260782.26946   -982425.30461
  20782158.784     -543220.552 6   -423288.32722
 91  3 26 21 56 14.9990000  0  4G18G 2G11G19
  20462560.7374     125896.38848     98100.29663
  23489769.761    -1844942.706 5  -1437609.32021
  23095952.698    -1299970.736 6  -1012961.72321
  20778890.940     -560390.253 6   -436667.29522
 91  3 26 21 56 29.9990000  0  4G18G 2G11G19
  20463622.987      131478.092 8    102449.65023
  23478901.347    -1902058.964 5  -1482115.29721
  23088508.8554   -1339081.81446  -1043437.82961
  20775629.628     -577556.758 6   -450043.78022
 91  3 26 21 56 44.9990000  0  4G18G 2G11G19
  20464704.1904     137163.21248    106879.59063
  23468041.230    -1959136.903 5  -1526591.41621
  23081085.5344   -1378093.31646  -1073836.34261
  20772362.776     -594698.367 6   -463400.86122
 91  3 26 21 56 59.9990000  0  4G18G 2G11G19
  20465805.8154     142946.46348    111385.99162
  23457187.4484   -2016181.84045  -1571041.83861
  23073680.409    -1417010.260 6  -1104161.18121
  20769109.097     -611820.150 6   -476742.49122
 91  3 26 21 57 14.9990000  0  4G18G 2G11G19
  20466926.011      148835.555 8    115974.86722
  23446336.690    -2073185.852 5  -1615460.36421
  23066293.394    -1455824.636 6  -1134406.07121
  20765850.1904    -628914.28646   -490062.58062
 91  3 26 21 57 29.9990000  0  4G18G 2G11G19
  20468065.050      154815.666 8    120634.67123
  23435494.558    -2130163.631 5  -1659858.45721
  23058923.948    -1494551.048 6  -1164582.45121
  20762600.761     -645995.599 6   -503372.67622
 91  3 26 21 57 44.9990000  0  4G18G 2G11G19
  20469221.7844     160898.33747    125374.38462
  23424662.089    -2187103.261 5  -1704226.82321
  23051573.589    -1533177.455 6  -1194680.89221
  20759354.8944    -663052.42446   -516663.69762
 91  3 26 21 57 59.9990000  0  4G18G 2G11G19
  20470400.3864     167091.67547    130200.32762
  23413834.0734   -2243996.69445  -1748559.18961
  23044245.112    -1571695.323 6  -1224694.76421
  20756117.894     -680076.737 6   -529929.37822
 91  3 26 21 58 14.9990000  0  4G18G 2G11G19
  20471602.011      173409.893 7    135123.59023
  23403019.1904   -2300829.42745  -1792844.25661
  23036936.870    -1610089.986 6  -1254612.62921
  20752884.8784    -697054.30246   -543158.63862
 91  3 26 21 58 29.9990000  0  4G18G 2G11G19
  20472824.0264     179823.64147    140121.28963
  23392208.815    -2357630.467 5  -1837104.64221
  23029648.886    -1648390.508 6  -1284457.14021
  20749658.9014    -714014.39346   -556374.28062
 91  3 26 21 58 44.9990000  0  4G18G 2G11G19
  20474065.362      186350.659 7    145207.25223
  23381408.847    -2414381.910 5  -1881326.37821
  23022381.581    -1686578.784 6  -1314214.18621
  20746435.9724    -730939.17646   -569562.41262
 91  3 26 21 58 59.9990000  0  4G18G 2G11G19
  20475326.8704     192984.86847    150376.74363
  23370620.1754   -2471089.68745  -1925514.09461
  23015133.9174   -1724660.61146  -1343888.28361
  20743225.5424    -747834.68846   -582727.73762
 91  3 26 21 59 14.9990000  0  4G18G 2G11G19
  20476606.0424     199707.62547    155615.22363
  23359829.980    -2527772.199 5  -1969682.11421
  23007905.0424   -1762654.02846  -1373493.51061
  20740006.8704    -764719.46046   -595884.69362
 91  3 26 21 59 29.9990000  0  4G18G 2G11G19
  20477904.394      206525.171 7    160927.57323
  23349052.315    -2584423.165 5  -2013825.59521
  23000691.761    -1800552.650 6  -1403024.86321
  20736798.8004    -781587.16446   -609028.34662
 91  3 26 21 59 44.9990000  0  4G18G 2G11G19
  20479222.8234     213450.28747    166323.73463
  23338279.050    -2641029.434 5  -2057934.22121
  22993503.026    -1838343.160 6  -1432471.96821
  20733593.2764    -798424.83946   -622148.60862
 91  3 26 21 59 59.9990000  0  4G18G 2G11G19
  20480559.7374     220477.10548    171799.14863
  23327513.355    -2697596.986 5  -2102012.67321
  22986330.4484   -1876031.24146  -1461839.24461
  20730397.3234    -815238.55946   -635250.19662
 91  3 26 22  0 14.9990000  0  4G18G 2G11G19
  20481917.5034     227609.61248    177356.91663
  23316759.8624   -2754121.56545  -2146057.65261
  22979175.4874   -1913612.62146  -1491123.38761
  20727202.2454    -832024.35846   -648330.03162
 91  3 26 22  0 29.9990000  0  4G18G 2G11G19
  20483299.050      234871.017 8    183015.13224
  23306013.7224   -2810579.63445  -2190050.79761
  22972051.6514   -1951063.31546  -1520305.69761
  20724018.3474    -848758.58746   -661369.68162
 91  3 26 22  0 44.9990000  0  4G18G 2G11G19
  20484700.917      242240.003 8    188757.17224
  23295278.644    -2866992.192 5  -2234008.49021
  22964946.1674   -1988404.33846  -1549402.55761
  20720839.034     -865462.499 6   -674385.70222
 91  3 26 22  0 59.9990000  0  4G18G 2G11G19
  20486123.737      249713.169 8    194580.40023
  23284553.0344   -2923362.69645  -2277933.39061
  22957858.144    -2025638.914 6  -1578416.47321
  20717666.894     -882139.520 6   -687380.76822
 91  3 26 22  1 14.9990000  0  4G18G 2G11G19
  20487563.1834     257282.24448    200478.35563
  23273832.8154   -2979699.30045  -2321831.88461
  22950791.597    -2062775.150 6  -1607353.71721
  20714495.683     -898797.972 6   -700361.36422
 91  3 26 22  1 29.9990000  0  4G18G 2G11G19
  20489026.2534     264963.14548    206463.43964
  23263121.034    -3035985.552 5  -2365691.16621
  22943746.9804   -2099796.35546  -1636201.35661
  20711331.8474    -915421.54446   -713314.78762
 91  3 26 22  1 44.9990000  0  4G18G 2G11G19
  20490504.9724     272741.04447    212524.11463
  23252417.886    -3092236.492 5  -2409522.89521
  22936722.097    -2136717.312 6  -1664970.87221
  20708171.9874    -932025.22746   -726252.71062
 91  3 26 22  1 59.9990000  0  4G18G 2G11G19
  20492001.7454     280601.28148    218648.94163
  23241717.347    -3148466.330 5  -2453338.19421
  22929714.7844   -2173552.15546  -1693673.31861
  20705013.4484    -948623.57146   -739186.47662
 91  3 26 22  2 14.9990000  0  4G18G 2G11G19
  20493516.347      288561.719 7    224851.85623
  23231024.534    -3204657.109 5  -2497123.05221
  22922721.6124   -2210282.70646  -1722294.52161
  20701859.417     -965198.528 6   -752102.01323
 91  3 26 22  2 29.9990000  0  4G18G 2G11G19
  20495050.8004     296632.20547    231140.51163
  23220339.214    -3260798.793 5  -2540869.65721
  22915755.8084   -2246898.76546  -1750826.46361
  20698712.3474    -981740.24246   -764991.65063
 91  3 26 22  2 44.9990000  0  4G18G 2G11G19
  20496605.409      304800.056 7    237505.05223
  23209663.245    -3316903.719 5  -2584587.60821
  22908807.1364   -2283412.55646  -1779278.70961
  20695568.448     -998261.132 6   -777865.06123
 91  3 26 22  2 59.9990000  0  4G18G 2G11G19
  20498183.2144     313085.83847    243961.47763
  23198998.0034   -3372951.23945  -2628260.82661
  22901883.3864   -2319803.15646  -1807634.96761
  20692431.7224   -1014740.64546   -790706.22762
 91  3 26 22  3 14.9990000  0  4G18G 2G11G19
  20499781.0974     321487.13247    250507.91063
  23188343.901    -3428943.579 5  -2671891.05621
  22894982.097    -2356072.582 6  -1835896.80121
  20689302.9564   -1031181.19246   -803517.03862
 91  3 26 22  3 29.9990000  0  4G18G 2G11G19
  20501397.940      329981.238 8    257126.67223
  23177692.175    -3484903.224 5  -2715495.79121
  22888099.0734   -2392243.10446  -1864081.55961
  20686178.5734   -1047605.29646   -816315.03262
 91  3 26 22  3 44.9990000  0  4G18G 2G11G19
  20503032.495      338577.478 7    263825.01723
  23167054.339    -3540820.688 5  -2759067.65221
  22881235.823    -2428305.233 6  -1892181.88021
  20683056.7374   -1064003.85346   -829093.12262
 91  3 26 22  3 59.9990000  0  4G18G 2G11G19
  20504693.8704     347297.61847    270619.90363
  23156425.8704   -3596673.75945  -2802589.34361
  22874396.6054   -2464236.67346  -1920180.35561
  20679946.3394   -1080354.77746   -841834.10062
 91  3 26 22  4 14.9990000  0  4G18G 2G11G19
  20506370.823      356111.082 7    277487.50923
  23145800.409    -3652493.296 5  -2846084.88721
  22867579.753    -2500067.834 6  -1948100.69621
  20676837.9174   -1096688.59046   -854561.74462
 91  3 26 22  4 29.9990000  0  4G18G 2G11G19
  20508066.8864     365029.12047    284436.60363
  23135190.4644   -3708267.41845  -2889545.04061
  22860780.706    -2535786.987 6  -1975933.74921
  20673735.6124   -1112993.82846   -867267.12162
 91  3 26 22  4 44.9990000  0  4G18G 2G11G19
  20509785.2304     374059.03247    291472.86263
  23124585.0424   -3763988.37545  -2932963.75261
  22854007.667    -2571386.218 6  -2003673.35421
  20670639.7224   -1129262.81246   -879944.24662
 91  3 26 22  4 59.9990000  0  4G18G 2G11G19
  20511524.425      383194.397 7    298591.30223
  23113988.5424   -3819662.88745  -2976346.27461
  22847255.628    -2606871.840 6  -2031324.45021
  20667549.8554   -1145502.12146   -892598.25762
 91  3 26 22  5 14.9990000  0  4G18G 2G11G19
  20513284.4724     392450.58147    305803.88763
  23103409.870    -3875275.298 5  -3019680.40821
  22840527.800    -2642228.235 6  -2058874.83721
  20664468.2144   -1161696.47846   -905217.23162
 91  3 26 22  5 29.9990000  0  4G18G 2G11G19
  20515064.2844     401798.49148    313087.94163
  23092827.9094   -3930854.57645  -3062988.71161
  22833817.573    -2677484.128 6  -2086346.91421
  20661391.2064   -1177874.87246   -917823.77962
 91  3 26 22  5 44.9990000  0  4G18G 2G11G19
  20516860.8864     411244.12947    320448.15263
  23082262.761    -3986394.570 5  -3106266.40521
  22827129.644    -2712633.083 6  -2113735.65821
  20658314.7374   -1194031.05047   -930413.00362
 91  3 26 22  5 59.9990000  0  4G18G 2G11G19
  20518677.4014     420786.08147    327883.40663
  23071699.0424   -4041896.66345  -3149514.54561
  22820460.4724   -2747676.17446  -2141041.91761
  20655243.8704   -1210166.48546   -942986.06962
 91  3 26 22  6 14.9990000  0  4G18G 2G11G19
  20520511.7614     430422.13947    335391.98964
  23061146.6834   -4097362.30845  -3192734.28661
  22813811.917    -2782614.924 6  -2168266.87221
  20652176.7304   -1226282.89446   -955544.30362
 91  3 26 22  6 29.9990000  0  4G18G 2G11G19
  20522365.2844     440169.51347    342987.30564
  23050600.253    -4152774.373 5  -3235912.29221
  22807188.230    -2817432.102 6  -2195397.08821
  20649116.8084   -1242363.21146   -968074.41862
 91  3 26 22  6 44.9990000  0  4G18G 2G11G19
  20524242.4174     450029.29947    350670.22264
  23040065.909    -4208131.689 5  -3279047.63421
  22800584.839    -2852126.248 6  -2222431.43421
  20646063.5034   -1258406.37847   -980575.58362
 91  3 26 22  6 59.9990000  0  4G18G 2G11G19
  20526138.2454     459989.56547    358431.42764
  23029542.4874   -4263445.94045  -3322149.41361
  22794004.0264   -2886708.86546  -2249378.89961
  20643014.6514   -1274424.09146   -993056.91462
 91  3 26 22  7 14.9990000  0  4G18G 2G11G19
  20528049.0584     470036.12347    366259.87464
  23019020.3004   -4318730.79745  -3365228.28261
  22787441.3944   -2921193.54046  -2276250.04161
  20639971.0114   -1290430.13946  -1005529.15163
 91  3 26 22  7 29.9990000  0  4G18G 2G11G19
  20529985.0734     480207.82147    374185.85063
  23008511.870    -4373947.538 5  -3408254.08321
  22780906.659    -2955541.451 6  -2303014.60221
  20636933.4484   -1306385.86847  -1017962.18562
 91  3 26 22  7 44.9990000  0  4G18G 2G11G19
  20531939.6444     490473.61948    382185.14063
  22998010.425    -4429126.747 5  -3451250.63821
  22774389.620    -2989783.052 6  -2329696.31621
  20633900.4174   -1322321.98946  -1030379.93162
 91  3 26 22  7 59.9990000  0  4G18G 2G11G19
  20533912.3004     500844.71648    390266.48263
  22987519.167    -4484257.025 5  -3494209.06021
  22767896.339    -3023906.674 6  -2356286.09821
  20630878.4804   -1338227.13346  -1042773.53562
 91  3 26 22  8 14.9990000  0  4G18G 2G11G19
  20535907.987      511326.584 8    398434.15123
  22977039.042    -4539332.888 5  -3537125.09621
  22761424.519    -3057906.719 6  -2382779.59621
  20627854.120    -1354095.890 6  -1055138.78522
 91  3 26 22  8 29.9990000  0  4G18G 2G11G19
  20537920.2064     521901.29748    406674.15263
  22966568.112    -4594372.041 5  -3580012.52521
  22754976.745    -3091800.609 6  -2409190.37921
  20624836.956    -1369946.155 6  -1067489.62122
 91  3 26 22  8 44.9990000  0  4G18G 2G11G19
  20539948.3784     532567.65947    414985.57163
  22956096.558    -4649375.327 5  -3622871.99921
  22748546.5894   -3125589.08046  -2435519.02461
  20621826.7534   -1385778.75347  -1079826.70362
 91  3 26 22  8 59.9990000  0  4G18G 2G11G19
  20542000.3394     543342.34748    423381.40263
  22945641.7064   -4704325.98745  -3665690.48461
  22742138.464    -3159255.283 6  -2461752.36521
  20618822.058    -1401577.135 6  -1092137.11622
 91  3 26 22  9 14.9990000  0  4G18G 2G11G19
  20544070.0264     554224.81948    431861.21463
  22935194.4804   -4759224.24145  -3708468.14061
  22735757.761    -3192799.315 6  -2487890.52621
  20615819.1514   -1417341.61146  -1104421.11362
 91  3 26 22  9 29.9990000  0  4G18G 2G11G19
  20546163.4254     565221.34848    440429.90963
  22924758.440    -4814063.706 5  -3751200.00021
  22729398.480    -3226214.650 6  -2513928.40021
  20612831.1124   -1433065.75346  -1116673.68162
 91  3 26 22  9 44.9990000  0  4G18G 2G11G19
  20548274.4254     576315.06848    449074.34063
  22914331.651    -4868860.828 5  -3793898.85921
  22723059.2614   -3259517.51246  -2539878.65061
  20609839.6284   -1448766.07446  -1128907.68562
 91  3 26 22  9 59.9990000  0  4G18G 2G11G19
  20550405.448      587513.345 8    457800.24223
  22903914.5114   -4923608.32245  -3836559.06561
  22716746.5114   -3292700.53146  -2565735.51261
  20606857.886    -1464435.533 6  -1141117.63622
 91  3 26 22 10 14.9990000  0  4G18G 2G11G19
  20552555.2064     598805.06447    466598.95763
  22893503.355    -4978316.826 5  -3879188.88921
  22710450.7924   -3325774.36646  -2591507.28361
  20603880.534    -1480084.994 6  -1153312.01122
 91  3 26 22 10 29.9990000  0  4G18G 2G11G19
  20554723.9094     610208.74347    475484.90963
  22883102.995    -5032967.701 5  -3921773.81021
  22704183.5814   -3358720.05146  -2617179.17561
  20600910.042    -1495695.724 6  -1165476.20422
 91  3 26 22 10 44.9990000  0  4G18G 2G11G19
  20556912.0344     621708.76247    484445.93063
  22872709.7064   -5087576.54345  -3964325.99561
  22697935.659    -3391552.826 6  -2642763.10121
  20597942.901    -1511283.192 6  -1177622.26722
 91  3 26 22 10 59.9990000  0  4G18G 2G11G19
  20559120.1124     633309.74947    493485.62263
  22862327.190    -5142138.530 5  -4006841.66521
  22691707.5734   -3424267.85346  -2668255.30361
  20594981.9644   -1526842.80946  -1189746.62862
 91  3 26 22 11 14.9990000  0  4G18G 2G11G19
  20561348.589      645022.358 7    502612.30523
  22851958.0654   -5196642.45645  -4049312.09961
  22685507.487    -3456853.914 6  -2693646.99621
  20592028.6834   -1542363.50846  -1201840.67362
 91  3 26 22 11 29.9990000  0  4G18G 2G11G19
  20563596.7064     656832.28547    511814.81163
  22841594.011    -5251102.530 5  -4091748.35021
  22679329.0974   -3489325.06246  -2718949.11861
  20589082.980    -1557859.499 6  -1213915.45322
 91  3 26 22 11 44.9990000  0  4G18G 2G11G19
  20565861.1904     668732.60847    521087.75663
  22831236.5424   -5305525.44246  -4134155.65961
  22673171.276    -3521687.708 6  -2744166.70621
  20586134.0194   -1573337.69846  -1225976.38462
 91  3 26 22 11 59.9990000  0  4G18G 2G11G19
  20568144.5114     680736.01847    530441.03663
  22820889.3154   -5359898.66746  -4176524.28161
  22667036.1904   -3553928.93846  -2769289.69561
  20583196.5734   -1588785.27946  -1238013.44962
 91  3 26 22 12 14.9990000  0  4G18G 2G11G19
  20570449.4174     692842.00147    539874.23763
  22810552.433    -5414222.172 5  -4218854.14221
  22660923.6204   -3586048.94746  -2794318.22961
  20580261.2224   -1604202.39246  -1250026.77562
 91  3 26 22 12 29.9990000  0  4G18G 2G11G19
  20572773.1204     705059.31248    549394.19263
  22800224.917    -5468486.952 5  -4261138.25721
  22654833.3474   -3618038.54946  -2819245.12261
  20577336.5114   -1619580.17446  -1262009.45762
 91  3 26 22 12 44.9990000  0  4G18G 2G11G19
  20575118.8394     717380.99648    558995.47363
  22789909.784    -5522699.982 6  -4303382.04121
  22648769.987    -3649904.596 6  -2844075.74421
  20574414.5814   -1634925.65946  -1273966.97662
 91  3 26 22 12 59.9990000  0  4G18G 2G11G19
  20577482.698      729803.453 7    568675.28523
  22779602.0974   -5576864.46346  -4345588.00261
  22642731.0584   -3681650.20346  -2868812.55461
  20571500.1834   -1650242.29446  -1285902.01462
 91  3 26 22 13 14.9990000  0  4G18G 2G11G19
  20579865.2614     742326.69847    578433.62463
  22769304.1594   -5630980.12846  -4387755.92561
  22636711.6204   -3713274.86646  -2893455.12761
  20568590.4254   -1665529.79946  -1297814.35662
 91  3 26 22 13 29.9990000  0  4G18G 2G11G19
  20582271.1204     754962.35148    588279.55163
  22759017.4644   -5685034.98246  -4429876.46661
  22630718.0974   -3744766.44346  -2917993.97561
  20565691.0194   -1680776.20846  -1309694.67762
 91  3 26 22 13 44.9990000  0  4G18G 2G11G19
  20584694.9644     767700.84148    598205.61763
  22748741.144    -5739038.446 6  -4471956.96521
  22624750.4724   -3776134.33746  -2942436.42961
  20562794.3314   -1695991.06546  -1321550.39862
 91  3 26 22 13 59.9990000  0  4G18G 2G11G19
  20587137.7534     780546.04147    608214.83463
  22738473.6284   -5792986.63546  -4513994.38961
  22618806.917    -3807374.268 6  -2966779.17821
  20559906.7844   -1711170.50146  -1333378.53062
 91  3 26 22 14 14.9990000  0  4G18G 2G11G19
  20589603.4564     793498.97047    618307.99263
  22728219.0194   -5846878.19546  -4555987.69161
  22612885.7454   -3838484.96846  -2991021.25061
  20557024.3864   -1726313.26046  -1345178.07962
 91  3 26 22 14 29.9990000  0  4G18G 2G11G19
  20592086.9724     806548.17447    628476.17063
  22717972.7224   -5900724.37046  -4597945.61561
  22606987.675    -3869477.578 6  -3015171.31021
  20554147.7764   -1741430.60446  -1356957.82663
 91  3 26 22 14 44.9990000  0  4G18G 2G11G19
  20594591.2224     819706.38947    638729.29263
  22707736.8704   -5954512.33046  -4639858.18961
  22601112.9404   -3900338.95346  -3039219.09461
  20551278.2844   -1756509.80646  -1368707.82863
 91  3 26 22 14 59.9990000  0  4G18G 2G11G19
  20597112.8624     832963.35647    649059.34963
  22697511.230    -6008251.733 6  -4681732.91521
  22595265.4804   -3931078.80346  -3063172.16161
  20548414.1444   -1771560.54346  -1380435.67963
 91  3 26 22 15 14.9990000  0  4G18G 2G11G19
  20599652.1674     846303.66847    659454.36263
  22687290.847    -6061958.145 6  -4723581.94921
  22589437.730    -3961712.347 6  -3087042.40121
  20545552.9174   -1786598.35946  -1392153.45363
 91  3 26 22 15 29.9990000  0  4G18G 2G11G19
  20602215.159      859772.867 7    669949.79523
  22677085.7064   -6115585.63946  -4765369.47161
  22583636.6284   -3992193.54846  -3110793.95661
  20542702.1444   -1801577.54746  -1403825.55663
 91  3 26 22 15 44.9990000  0  4G18G 2G11G19
  20604800.2694     873348.42547    680528.10963
  22666890.730    -6169156.377 6  -4807112.78321
  22577858.4874   -4022544.72146  -3134444.19361
  20539858.7844   -1816520.34546  -1415469.30163
 91  3 26 22 15 59.9990000  0  4G18G 2G11G19
  20607402.1834     887029.93647    691188.99063
  22656707.800    -6222670.867 6  -4848812.23921
  22572109.2144   -4052765.94546  -3157993.14261
  20537020.6984   -1831427.29846  -1427085.11163
 91  3 26 22 16 14.9990000  0  4G18G 2G11G19
  20610025.5114     900812.40947    701928.53963
  22646535.386    -6276133.690 6  -4890471.43521
  22566382.9094   -4082861.68246  -3181444.30661
  20534191.0584   -1846302.99346  -1438676.56263
 91  3 26 22 16 29.9990000  0  4G18G 2G11G19
  20612666.4014     914693.93247    712745.27163
  22636368.769    -6329546.691 6  -4932091.81621
  22560678.823    -4112833.804 6  -3204799.18621
  20531366.222    -1861149.265 6  -1450245.09923
 91  3 26 22 16 44.9990000  0  4G18G 2G11G19
  20615326.042      928670.378 8    723635.96023
  22626215.7614   -6382913.59646  -4973676.26961
  22554997.6054   -4142685.85046  -3228060.48461
  20528545.0974   -1875969.99546  -1461793.72763
 91  3 26 22 16 59.9990000  0  4G18G 2G11G19
  20618005.2924     942746.55348    734604.36863
  22616068.8234   -6436229.51646  -5015221.00061
  22549343.5504   -4172412.82246  -3251224.30261
  20525731.8004   -1890760.25646  -1473318.61563
 91  3 26 22 17 14.9990000  0  4G18G 2G11G19
  20620705.1674     956931.18648    745657.29863
  22605934.8624   -6489485.60046  -5056719.08961
  22543710.5034   -4202005.72846  -3274283.64961
  20522923.0814   -1905511.28646  -1484812.92663
 91  3 26 22 17 29.9990000  0  4G18G 2G11G19
  20623418.878      971193.713 7    756770.90623
  22595806.2064   -6542712.08646  -5098194.11361
  22538099.1984   -4231494.60646  -3297261.96061
  20520119.8624   -1920253.35746  -1496300.26063
 91  3 26 22 17 44.9990000  0  4G18G 2G11G19
  20626151.6124     985556.09947    767962.33663
  22585685.6754   -6595886.92346  -5139628.89961
  22532510.815    -4260857.298 6  -3320141.94921
  20517318.1514   -1934964.52246  -1507763.51463
 91  3 26 22 17 59.9990000  0  4G18G 2G11G19
  20628902.9094    1000011.71047    779226.41663
  22575575.3474   -6649016.13946  -5181028.13561
  22526944.097    -4290099.993 6  -3342928.41721
  20514528.4174   -1949650.84946  -1519207.40763
 91  3 26 22 18 14.9990000  0  4G18G 2G11G19
  20631674.597     1014583.835 7    790581.27023
  22565478.940    -6702076.021 6  -5222373.33221
  22521409.6834   -4319198.81446  -3365602.76261
  20511738.9484   -1964288.75246  -1530613.56863
 91  3 26 22 18 29.9990000  0  4G18G 2G11G19
  20634466.8784    1029259.88347    802017.10763
  22555393.0424   -6755079.14045  -5263674.28261
  22515896.4954   -4348166.19746  -3388174.67961
  20508961.7374   -1978890.83246  -1541991.81363
 91  3 26 22 18 44.9990000  0  4G18G 2G11G19
  20637281.0584    1044041.51247    813535.22463
  22545315.7374   -6808023.81746  -5304929.69361
  22510409.058    -4377000.004 6  -3410642.55521
  20506189.5734   -1993455.33746  -1553340.77263
 91  3 26 22 18 59.9990000  0  4G18G 2G11G19
  20640115.3474    1058934.05047    825139.75963
  22535254.4804   -6860904.55346  -5346135.27961
  22504947.690    -4405694.788 6  -3433002.08121
  20503426.4254   -2007976.91646  -1564656.28863
 91  3 26 22 19 14.9990000  0  4G18G 2G11G19
  20642966.714     1073922.291 7    836818.86723
  22525200.261    -6913736.479 6  -5387302.84221
  22499513.190    -4434265.561 6  -3455264.95521
  20500668.2144   -2022470.68146  -1575950.13563
 91  3 26 22 19 29.9990000  0  4G18G 2G11G19
  20645837.034     1089003.341 7    848570.28923
  22515157.503    -6966521.972 6  -5428434.21721
  22494098.7224   -4462714.56146  -3477432.93561
  20497915.3154   -2036939.02746  -1587224.16663
 91  3 26 22 19 44.9990000  0  4G18G 2G11G19
  20648730.0734    1104205.16747    860415.82963
  22505126.3784   -7019232.76846  -5469507.38561
  22488712.4564   -4491013.44946  -3499483.99061
  20495171.5344   -2051353.64146  -1598456.33763
 91  3 26 22 19 59.9980000  0  4G18G 2G11G19
  20651641.0064    1119499.00347    872333.06563
  22495103.772    -7071893.069 6  -5510541.21521
  22483350.295    -4519187.945 6  -3521438.09121
  20492432.5454   -2065741.43946  -1609667.61163
 91  3 26 22 20 14.9980000  0  4G18G 2G11G19
  20654573.8574    1134908.55147    884340.46663
  22485095.7794   -7124487.59046  -5551523.78861
  22478017.8974   -4547219.58546  -3543280.86461
  20489703.5614   -2080082.22746  -1620842.24863
 91  3 26 22 20 29.9980000  0  4G18G 2G11G19
  20657523.9124    1150413.82847    896422.47163
  22475096.7644   -7177031.64946  -5592467.03661
  22472708.772    -4575125.135 6  -3565025.41321
  20486985.1004   -2094393.91446  -1631994.21163
 91  3 26 22 20 44.9980000  0  4G18G 2G11G19
  20660491.193     1166013.997 7    908578.40823
  22465108.990    -7229526.246 6  -5633371.74621
  22467420.842    -4602905.385 6  -3586672.31821
  20484262.6074   -2108677.36946  -1643124.16663
 91  3 26 22 20 59.9980000  0  4G18G 2G11G19
  20663480.4124    1181722.88748    920819.05963
  22455131.2954   -7281957.03746  -5674226.73861
  22462161.6784   -4630545.80446  -3608210.26561
  20481552.7564   -2122918.34146  -1654221.01963
 91  3 26 22 21 14.9980000  0  4G18G 2G11G19
  20666491.1394    1197541.77247    933145.43163
  22445161.865    -7334322.685 6  -5715030.97321
  22456928.357    -4658044.980 6  -3629638.15421
  20478851.9824   -2137115.51246  -1665283.74263
 91  3 26 22 21 29.9980000  0  4G18G 2G11G19
  20669521.186     1213465.223 7    945553.27323
  22435211.4204   -7386628.61946  -5755788.66261
  22451721.4824   -4685408.08446  -3650960.01461
  20476160.3974   -2151274.28846  -1676316.54463
 91  3 26 22 21 44.9980000  0  4G18G 2G11G19
  20672574.2794    1229499.14648    958047.20163
  22425268.4204   -7438868.31946  -5796494.74361
  22446541.147    -4712628.710 6  -3672170.85121
  20473470.7404   -2165388.21746  -1687314.40963
 91  3 26 22 21 59.9980000  0  4G18G 2G11G19
  20675643.8894    1245642.33747    970626.27363
  22415342.3894   -7491042.88446  -5837150.08161
  22441387.545    -4739707.802 6  -3693271.39221
  20470797.0764   -2179458.55946  -1698278.30563
 91  3 26 22 22 14.9980000  0  4G18G 2G11G19
  20678736.3184    1261885.41747    983283.18263
  22405423.3894   -7543161.43546  -5877761.78861
  22436259.2954   -4766654.32946  -3714268.65661
  20468122.8264   -2193494.47446  -1709215.37663
 91  3 26 22 22 29.9980000  0  4G18G 2G11G19
  20681845.8894    1278230.27047    996019.39063
  22395515.514    -7595221.481 6  -5918327.89421
  22431157.834    -4793465.776 6  -3735160.67421
  20465458.3344   -2207493.39846  -1720123.62363
 91  3 26 22 22 44.9980000  0  4G18G 2G11G19
  20684973.1474    1294673.61147   1008832.34163
  22385619.2174   -7647226.60446  -5958851.20661
  22426080.6864   -4820145.56846  -3755950.09061
  20462801.5924   -2221458.98846  -1731005.90163
 91  3 26 22 22 59.9980000  0  4G18G 2G11G19
  20688123.6394    1311222.37647   1021727.44163
  22375735.264    -7699169.480 6  -5999326.03121
  22421030.006    -4846686.283 6  -3776631.11921
  20460154.2484   -2235383.84246  -1741856.42963
 91  3 26 22 23 14.9980000  0  4G18G 2G11G19
  20691293.2724    1327873.67947   1034702.44263
  22365862.537    -7751052.757 6  -6039754.42921
  22416005.881    -4873090.518 6  -3797205.81121
  20457509.3184   -2249270.72346  -1752677.37063
 91  3 26 22 23 29.9980000  0  4G18G 2G11G19
  20694480.865     1344627.130 7   1047757.03423
  22356001.2174   -7802876.51146  -6080136.42561
  22411005.295    -4899358.170 6  -3817674.09421
  20454874.2874   -2263119.75946  -1763468.82263
 91  3 26 22 23 44.9980000  0  4G18G 2G11G19
  20697688.475     1361481.118 7   1060889.96923
  22346151.014    -7854642.289 6  -6120473.25421
  22406033.1934   -4925490.65946  -3838037.03861
  20452245.0224   -2276932.52046  -1774232.01463
 91  3 26 22 23 59.9980000  0  4G18G 2G11G19
  20700913.756     1378432.585 7   1074098.85923
  22336311.6314   -7906352.70346  -6160766.95161
  22401088.045    -4951490.596 6  -3858296.70521
  20449625.7404   -2290711.62346  -1784968.96363
 91  3 26 22 24 14.9980000  0  4G18G 2G11G19
  20704155.123     1395467.591 7   1087372.84123
  22326478.2094   -7958021.47446  -6201028.19861
  22396162.092    -4977371.568 6  -3878463.66821
  20447005.6234   -2304470.80846  -1795690.40763
 91  3 26 22 24 29.9980000  0  4G18G 2G11G19
  20707413.9674    1412591.44347   1100716.06463
  22316653.8504   -8009642.99246  -6241252.63461
  22391260.9124   -5003127.89046  -3898533.50661
  20444391.8184   -2318204.71246  -1806392.14263
 91  3 26 22 24 44.9980000  0  4G18G 2G11G19
  20710690.873     1429811.671 7   1114134.37523
  22306841.9984   -8061209.69346  -6281434.34761
  22386380.6864   -5028752.08246  -3918500.38461
  20441785.5844   -2331905.83846  -1817068.34463
 91  3 26 22 24 59.9980000  0  4G18G 2G11G19
  20713989.951     1447144.148 7   1127640.15323
  22297041.139    -8112705.373 6  -6321560.73921
  22381536.482    -5054227.662 6  -3938351.45721
  20439188.1394   -2345557.63246  -1827706.09963
 91  3 26 22 25 14.9980000  0  4G18G 2G11G19
  20717310.2564    1464593.10247   1141236.70263
  22287256.037    -8164125.609 6  -6361628.33421
  22376718.209    -5079549.986 6  -3958083.11321
  20436597.4904   -2359155.89046  -1838302.14063
 91  3 26 22 25 29.9980000  0  4G18G 2G11G19
  20720649.3034    1482145.38547   1154913.77363
  22277482.342    -8215482.803 5  -6401646.79721
  22371927.2644   -5104731.70246  -3977705.19061
  20434018.3424   -2372713.15646  -1848866.23563
 91  3 26 22 25 44.9980000  0  4G18G 2G11G19
  20724010.045     1499797.025 7   1168668.24723
  22267722.225    -8266781.179 6  -6441619.42021
  22367159.076    -5129776.802 6  -3997220.81121
  20431445.6314   -2386233.52346  -1859401.58163
 91  3 26 22 25 59.9980000  0  4G18G 2G11G19
  20727389.4754    1517551.50548   1182502.87962
  22257971.9204   -8318017.11546  -6481543.40061
  22362421.670    -5154681.514 6  -4016627.06821
  20428882.8344   -2399713.31546  -1869905.31163
 91  3 26 22 26 14.9980000  0  4G18G 2G11G19
  20730783.1234    1535390.88047   1196403.65962
  22248231.7174   -8369208.43746  -6521432.63061
  22357705.553    -5179463.566 6  -4035937.74221
  20426320.4824   -2413170.60146  -1880391.50463
 91  3 26 22 26 29.9980000  0  4G18G 2G11G19
  20734197.2564    1553330.97248   1210382.91062
  22238500.2874   -8420338.86446  -6561274.38761
  22353015.9984   -5204106.58046  -4055140.06061
  20423768.4124   -2426588.89746  -1890847.32163
 91  3 26 22 26 44.9980000  0  4G18G 2G11G19
  20737633.4044    1571385.19548   1224451.10362
  22228784.7794   -8471394.70646  -6601058.03661
  22348355.5454   -5228596.81846  -4074223.32761
  20421222.9674   -2439954.62546  -1901262.17563
 91  3 26 22 26 59.9980000  0  4G18G 2G11G19
  20741085.9824    1589539.37547   1238597.18763
  22219080.3424   -8522389.83546  -6640794.38661
  22343721.8034   -5252948.09446  -4093198.31561
  20418687.6624   -2453281.70646  -1911646.91363
 91  3 26 22 27 14.9980000  0  5G18G 2G11G16G19
  20744560.443     1607797.064 7   1252823.90623
  22209389.443    -8573320.638 6  -6680480.61421
  22339113.6784   -5277156.68346  -4112062.15561
  23749148.5454     -29590.37445
  20416160.5684   -2466566.60446  -1921998.78363
 91  3 26 22 27 29.9980000  0  5G18G 2G11G16G19
  20748055.982     1626158.346 7   1267131.37523
  22199709.1474   -8624186.57446  -6720116.28461
  22334533.709    -5301221.958 6  -4130814.29521
  23743548.8654     -59052.67745
  20413640.4514   -2479808.75246  -1932317.33763
 91  3 26 22 27 44.9980000  0  5G18G 2G11G16G19
  20751567.443     1644616.013 7   1281513.92823
  22190042.4674   -8674994.66546  -6759706.89061
  22329981.4514   -5325150.86546  -4149460.16761
  23737963.045      -88394.953 5
  20411127.0454   -2493015.18146  -1942608.06763
 91  3 26 22 27 59.9980000  0  5G18G 2G11G16G19
  20755098.2874    1663174.12347   1295974.74863
  22180382.5064   -8725740.76646  -6799249.18561
  22325453.350    -5348939.121 6  -4167996.43821
  23732400.639     -117612.788 5
  20408621.0614   -2506181.71846  -1952867.70563
 91  3 26 22 28 14.9980000  0  5G18G 2G11G16G19
  20758647.6784    1681824.26347   1310507.28663
  22170737.701    -8776433.177 6  -6838749.66321
  22320952.8264   -5372594.93346  -4186429.51161
  23726863.068     -146715.030 5        -0.16231
  20406120.8814   -2519316.53846  -1963102.63463
 91  3 26 22 28 29.9980000  0  5G18G 2G11G16G19
  20762216.4984    1700573.97147   1325117.41263
  22161102.482    -8827063.673 6  -6878201.88421
  22316477.9434   -5396110.03346  -4204752.93961
  23721348.0144    -175693.40845    -22580.76561
  20403629.5924   -2532411.51446  -1973306.51363
 91  3 26 22 28 44.9980000  0  5G18G 2G11G16G19
  20765801.139     1719416.273 7   1339799.67823
  22151480.1784   -8877639.02346  -6917611.12561
  22312027.4514   -5419491.14346  -4222971.94761
  23715857.443     -204554.510 5    -45069.96721
  20401144.7174   -2545473.31146  -1983484.53963
 91  3 26 22 28 59.9980000  0  5G18G 2G11G16G19
  20769409.506     1738374.410 7   1354572.20123
  22141870.2014   -8928135.94646  -6956959.26361
  22307609.6154   -5442715.03646  -4241068.45061
  23710389.506     -233275.191 5    -67449.76621
  20398669.6544   -2558478.86546  -1993618.73863
 91  3 26 22 29 14.9980000  0  5G18G 2G11G16G19
  20773035.1154    1757430.70347   1369421.22063
  22132271.014    -8978571.623 6  -6996259.67821
  22303216.998    -5465798.776 6  -4259055.73921
  23704948.834     -261872.568 5    -89733.49921
  20396199.6784   -2571445.38646  -2003722.51863
 91  3 26 22 29 29.9980000  0  5G18G 2G11G16G19
  20776681.342     1776587.538 7   1384348.58323
  22122686.0764   -9028943.75946  -7035510.60661
  22298850.2254   -5488739.87846  -4276931.88761
  23699534.4044    -290344.08545   -111919.13361
  20393743.2404   -2584370.44746  -2013793.98863
 91  3 26 22 29 44.9980000  0  5G18G 2G11G16G19
  20780343.709     1795839.874 7   1399350.35123
  22113111.639    -9079257.235 6  -7074715.81021
  22294511.818    -5511543.222 6  -4294700.71321
  23694137.1864    -318694.77845   -134010.63561
  20391288.2484   -2597259.07446  -2023837.07663
 91  3 26 22 29 59.9980000  0  5G18G 2G11G16G19
  20784027.170     1815186.074 7   1414425.26023
  22103548.428    -9129513.057 6  -7113876.08721
  22290200.5374   -5534209.79746  -4312362.95161
  23688765.1314    -346925.79645   -156008.86561
  20388842.9124   -2610112.45346  -2033852.69763
 91  3 26 22 30 14.9980000  0  5G18G 2G11G16G19
  20787726.084     1834626.922 7   1429573.92423
  22093996.076    -9179710.493 6  -7152990.87321
  22285910.7094   -5556738.71546  -4329917.92161
  23683415.9984    -375036.40245   -177913.28161
  20386403.4904   -2622929.78046  -2043840.22563
 91  3 26 22 30 29.9980000  0  5G18G 2G11G16G19
  20791442.264     1854159.620 7   1444794.16023
  22084453.4044   -9229852.23546  -7192062.26461
  22281648.639    -5579132.334 6  -4347367.44421
  23678088.5614    -403029.06945   -199725.79761
  20383974.6074   -2635713.26746  -2053801.38663
 91  3 26 22 30 44.9980000  0  5G18G 2G11G16G19
  20795180.248     1873802.123 7   1460099.95323
  22074927.139    -9279919.725 6  -7231075.78421
  22277416.318    -5601372.246 6  -4364697.22621
  23672788.779     -430885.789 5   -221432.40521
  20381547.6624   -2648444.81246  -2063722.06663
 91  3 26 22 30 59.9980000  0  5G18G 2G11G16G19
  20798935.256     1893533.714 7   1475475.17023
  22065409.115    -9329933.667 6  -7270047.57321
  22273211.084    -5623479.021 6  -4381923.25721
  23667506.982     -458626.853 5   -243048.87321
  20379131.1394   -2661144.83446  -2073618.19063
 91  3 26 22 31 14.9980000  0  5G18G 2G11G16G19
  20802709.787     1913373.601 7   1490934.77823
  22055905.0144   -9379874.30846  -7308962.23561
  22269032.529    -5645433.083 6  -4399030.27521
  23662257.7644    -486232.59045   -264559.89261
  20376724.9124   -2673793.78546  -2083474.51363
 91  3 26 22 31 29.9980000  0  5G18G 2G11G16G19
  20806502.5454    1933300.25947   1506462.00863
  22046411.3734   -9429762.81746  -7347836.30961
  22264879.725    -5667255.445 6  -4416034.68921
  23657024.873     -513724.451 5   -285982.16721
  20374324.5224   -2686412.94446  -2093307.63363
 91  3 26 22 31 44.9980000  0  5G18G 2G11G16G19
  20810315.123     1953332.158 7   1522071.23523
  22036933.209    -9479580.653 6  -7386655.29321
  22260757.092    -5688927.520 6  -4432921.99821
  23651815.779     -541083.846 5   -307301.22521
  20371932.2794   -2698983.65646  -2103102.99763
 91  3 26 22 31 59.9980000  0  5G18G 2G11G16G19
  20814143.537     1973454.157 7   1537750.66823
  22027459.6154   -9529342.78246  -7425430.88661
  22256655.529    -5710464.190 6  -4449703.79621
  23646635.3504    -568325.50945   -328528.56461
  20369544.7724   -2711520.98346  -2112872.34663
 91  3 26 22 32 14.9980000  0  5G18G 2G11G16G19
  20817992.006     1993677.998 7   1553509.46123
  22018005.186    -9579037.374 6  -7464153.83321
  22252586.779    -5731853.452 6  -4466370.72221
  23641477.287     -595437.578 5   -349654.89421
  20367167.9904   -2724012.98546  -2122606.37263
 91  3 26 22 32 29.9980000  0  5G18G 2G11G16G19
  20821857.600     2013986.993 7   1569334.60922
  22008559.4824   -9628680.77846  -7502836.90961
  22248542.662    -5753111.551 6  -4482935.43221
  23636337.1704    -622436.52945   -370693.08861
  20364796.8974   -2736475.88646  -2132317.73263
 91  3 26 22 32 44.9980000  0  5G18G 2G11G16G19
  20825742.1864    2034400.95647   1585241.56163
  21999124.3894   -9678252.78946  -7541464.35461
  22244526.748    -5774218.434 6  -4499382.31221
  23631221.4364    -649302.51745   -391627.67361
  20362433.9904   -2748889.74746  -2141990.87063
 91  3 26 22 32 59.9980000  0  5G18G 2G11G16G19
  20829642.342     2054896.693 7   1601212.22423
  21989702.4124   -9727776.48646  -7580054.15861
  22240534.615    -5795197.205 6  -4515729.37721
  23626131.4824    -676058.67745   -412476.65961
  20360080.6314   -2761277.65846  -2151643.78863
 91  3 26 22 33 14.9980000  0  5G18G 2G11G16G19
  20833561.951     2075500.288 7   1617266.91722
  21980291.522    -9777225.464 6  -7618585.71821
  22236571.170    -5816021.278 6  -4531955.88021
  23621068.232     -702678.606 5   -433219.51421
  20357730.3114   -2773613.09046  -2161255.81763
 91  3 26 22 33 29.9980000  0  5G18G 2G11G16G19
  20837496.9044    2096177.57747   1633379.05862
  21970889.0684   -9826633.71646  -7657085.55961
  22232631.7484   -5836724.40446  -4548088.15761
  23616022.451     -729195.755 5   -453882.28421
  20355385.7874   -2785929.99346  -2170853.40563
 91  3 26 22 33 44.9980000  0  5G18G 2G11G16G19
  20841452.147     2116961.939 7   1649574.62722
  21961502.4124   -9875967.64046  -7695527.49161
  22228722.6234   -5857273.05046  -4564100.06561
  23611001.514     -755576.985 5   -474439.16821
  20353052.3654   -2798194.71046  -2180410.32963
 91  3 26 22 33 59.9980000  0  5G18G 2G11G16G19
  20845428.287     2137844.763 7   1665846.90122
  21952125.631    -9925235.346 6  -7733917.80921
  22224838.654    -5877675.286 6  -4579997.88221
  23606007.014     -781830.522 5   -494896.49321
  20350729.7874   -2810415.55246  -2189933.06763
 91  3 26 22 34 14.9980000  0  5G18G 2G11G16G19
  20849417.5764    2158817.07547   1682188.92262
  21942761.373    -9974445.524 6  -7772263.29221
  22220982.459    -5897939.817 6  -4595788.41521
  23601033.0614    -807964.82045   -515260.94661
  20348408.8734   -2822601.25246  -2199428.41963
 91  3 26 22 34 29.9980000  0  5G18G 2G11G16G19
  20853426.7094    2179885.24247   1698605.64162
  21933407.998   -10023591.617 6  -7810558.83621
  22217152.670    -5918060.194 6  -4611466.61021
  23596083.1074    -833973.47345   -535527.48161
  20346101.3114   -2834745.19946  -2208891.23863
 91  3 26 22 34 44.9980000  0  5G18G 2G11G16G19
  20857453.014     2201044.817 7   1715093.58022
  21924068.6474  -10072677.77546  -7848807.68761
  22213351.7254   -5938040.35946  -4627035.54261
  23591158.1544    -859861.08245   -555699.71861
  20343793.7324   -2846851.53246  -2218324.74763
 91  3 26 22 34 59.9980000  0  5G18G 2G11G16G19
  20861500.3654    2222301.17747   1731656.94163
  21914740.2564  -10121698.72946  -7887005.73661
  22209577.5064   -5957874.91746  -4642491.01561
  23586256.904     -885621.971 5   -575773.19721
  20341497.2014   -2858914.87146  -2227724.75063
 91  3 26 22 35 14.9980000  0  6G18G 2G11G16G19G 6
  20865560.842     2243650.424 7   1748292.66923
  21905422.4204  -10170657.94846  -7925155.68561
  22205829.8264   -5977567.23746  -4657835.64761
  23581374.6544    -911259.79345   -595750.75161
  20339209.3184   -2870938.55446  -2237093.85763
  23797594.4984         -0.43654
 91  3 26 22 35 29.9980000  0  6G18G 2G11G16G19G 6
  20869639.5924    2265087.04347   1764996.47162
  21896116.295   -10219560.832 6  -7963261.71121
  22202107.240    -5997122.736 6  -4673073.67821
  23576521.318     -936779.822 5   -615636.54721
  20336929.9364   -2882928.02146  -2246436.30463
  23788683.3894     -46829.33844
 91  3 26 22 35 44.9980000  0  6G18G 2G11G16G19G 6
  20873737.897     2286620.559 7   1781775.78222
  21886821.904   -10268397.495 6  -8001316.16721
  22198414.022    -6016531.441 6  -4688197.32221
  23571686.100     -962172.296 5   -635422.93521
  20334654.4514   -2894873.30446  -2255744.31563
  23779770.6864     -93658.99144        -0.30271
 91  3 26 22 35 59.9980000  0  6G18G 2G11G16G19G 6
  20877852.9044    2308242.36247   1798623.89863
  21877541.6394  -10317176.28246  -8039325.52161
  22194748.537    -6035801.787 6  -4703213.15521
  23566880.2564    -987445.76745   -655116.61061
  20332387.8114   -2906782.97746  -2265024.58063
  23770857.857     -140497.938 4    -36498.10121
 91  3 26 22 36 14.9980000  0  6G18G 2G11G16G19G 6
  20881987.193     2329961.440 7   1815547.80223
  21868271.084   -10365887.823 6  -8077282.45721
  22191110.0844   -6054924.29446  -4718113.78461
  23562091.147    -1012590.484 4   -674709.95521
  20330129.9514   -2918647.56946  -2274269.72363
  23761943.256     -187336.852 4    -72995.86521
 91  3 26 22 36 29.9980000  0  6G18G 2G11G16G19G 6
  20886133.740     2351759.963 7   1832533.60623
  21859011.576   -10414549.603 6  -8115200.64021
  22187495.1004   -6073916.46846  -4732912.85561
  23557336.1074   -1037624.23945   -694216.83861
  20327881.8734   -2930484.67046  -2283493.43863
  23753030.6474    -234193.34144   -109507.33361
 91  3 26 22 36 44.9980000  0  6G18G 2G11G16G19G 6
  20890302.600     2373661.313 7   1849599.54523
  21849765.3974  -10463138.24846  -8153061.83461
  22183910.670    -6092754.852 6  -4747592.09921
  23552593.5534   -1062523.57744   -713618.97361
  20325635.9514   -2942270.71946  -2292677.37563
  23744113.7794    -281044.17244   -146014.36961
 91  3 26 22 36 59.9980000  0  6G18G 2G11G16G19G 6
  20894488.404     2395661.396 7   1866742.41623
  21840533.7254  -10511657.54646  -8190868.98261
  22180354.6004   -6111443.03146  -4762154.28761
  23547878.623    -1087292.277 4   -732919.31821
  20323402.3654   -2954009.41346  -2301824.41463
  23735199.686     -327893.017 4   -182519.90621
 91  3 26 22 37 14.9980000  0  6G18G 2G11G16G19G 6
  20898692.006     2417746.708 7   1883951.69723
  21831310.717   -10560120.817 6  -8228632.47021
  22176824.170    -6129994.377 6  -4776609.86021
  23543186.9754   -1111943.77944   -752128.31461
  20321173.7484   -2965714.18246  -2310945.00963
  23726279.8184    -374753.50344   -219034.47261
 91  3 26 22 37 29.9980000  0  6G18G 2G11G16G19G 6
  20902908.2874    2439909.38147   1901221.24663
  21822098.9984  -10608535.62146  -8266358.19061
  22173317.787    -6148416.436 6  -4790964.69421
  23538515.779    -1136485.776 4   -771252.00321
  20318953.6864   -2977392.47146  -2320044.98363
  23717361.8894    -421633.22045   -255564.00461
 91  3 26 22 37 44.9980000  0  6G18G 2G11G16G19G 6
  20907141.576     2462155.864 7   1918556.11923
  21812894.811   -10656895.262 6  -8304040.92221
  22169840.232    -6166702.507 7  -4805213.56121
  23533867.334    -1160911.446 4   -790285.03921
  20316735.5144   -2989037.71946  -2329119.20363
  23708438.357     -468525.626 4   -292103.45721
 91  3 26 22 37 59.9980000  0  6G18G 2G11G16G19G 6
  20911393.459     2484500.666 7   1935967.61123
  21803706.365   -10705185.024 6  -8341669.20021
  22166388.147    -6184837.884 6  -4819345.01121
  23529249.6864   -1185206.49744   -809216.27661
  20314529.0224   -3000635.22046  -2338156.21863
  23699512.7724    -515416.04244   -328641.34361
 91  3 26 22 38 14.9980000  0  6G18G 2G11G16G19G 6
  20915662.311     2506927.331 7   1953442.88523
  21794525.5844  -10753420.79846  -8379255.41261
  22162962.772    -6202838.510 6  -4833371.44721
  23524647.475    -1209386.840 5   -828058.16221
  20312327.5684   -3012200.92246  -2347168.45763
  23690588.826     -562320.557 4   -365190.25121
 91  3 26 22 38 29.9980000  0  6G18G 2G11G16G19G 6
  20919948.256     2529452.579 7   1970994.97223
  21785359.7484  -10801585.80846  -8416786.49161
  22159565.389    -6220687.442 6  -4847279.69521
  23520071.1154   -1233435.54444   -846797.44361
  20310139.4594   -3023717.87046  -2356142.70163
  23681663.178     -609222.522 5   -401737.11521
 91  3 26 22 38 44.9980000  0  6G18G 2G11G16G19G 6
  20924250.342     2552061.067 7   1988611.92423
  21776206.1074  -10849695.16046  -8454274.20361
  22156194.7794   -6238399.70846  -4861081.45061
  23515512.5144   -1257367.71743   -865445.95461
  20307952.4674   -3035200.90146  -2365090.52063
  23672735.5224    -656136.94044   -438293.73261
 91  3 26 22 38 59.9980000  0  6G18G 2G11G16G19G 6
  20928573.404     2574773.946 7   2006310.23323
  21767065.6934  -10897727.40146  -8491701.82661
  22152854.623    -6255954.020 6  -4874760.11221
  23510984.6474   -1281162.15644   -883987.12561
  20305780.0684   -3046628.99146  -2373995.53263
  23663811.670     -703042.831 4   -474843.65221
 91  3 26 22 39 14.9980000  0  6G18G 2G11G16G19G 6
  20932911.272     2597573.163 7   2024075.80223
  21757935.670   -10945700.312 6  -8529083.21321
  22149540.959    -6273368.037 6  -4888329.46121
  23506483.6004   -1304836.97144   -902435.06361
  20303610.3504   -3058019.89346  -2382871.56163
  23654883.2644    -749957.78244   -511400.67361
 91  3 26 22 39 29.9980000  0  6G18G 2G11G16G19G 6
  20937268.443     2620471.751 7   2041918.80923
  21748819.272   -10993600.723 6  -8566408.10921
  22146258.0064   -6290628.34346  -4901779.05061
  23502001.7794   -1328378.19044   -920778.91661
  20301451.8344   -3069360.10346  -2391708.08863
  23645956.1234    -796868.67145   -547954.46661
 91  3 26 22 39 44.9980000  0  6G18G 2G11G16G19G 6
  20941644.818     2643472.535 7   2059841.44823
  21739719.1544  -11041425.77346  -8603674.28161
  22143002.678    -6307732.123 6  -4915106.66221
  23497548.857    -1351783.159 4   -939016.60221
  20299303.5764   -3080646.72646  -2400502.85863
  23637030.3504    -843772.73944   -584502.98261
 91  3 26 22 39 59.9980000  0  6G18G 2G11G16G19G 6
  20946033.537     2666528.416 7   2077807.02022
  21730626.0224  -11089221.97446  -8640917.98461
  22139767.568    -6324726.005 6  -4928348.62521
  23493111.7014   -1375099.13545   -957184.92461
  20297158.5684   -3091926.42346  -2409292.22763
  23628094.990     -890716.693 4   -621082.58221
 91  3 26 22 40 14.9980000  0  6G18G 2G11G16G19G 6
  20950440.123     2689680.741 7   2095847.75122
  21721541.3734  -11136947.82946  -8678106.86561
  22136562.0224   -6341568.31746  -4941472.49461
  23488697.4204   -1398284.01545   -975251.12861
  20295020.8184   -3103157.50246  -2418043.72363
  23619165.170     -937659.031 4   -657660.86921
 91  3 26 22 40 29.9980000  0  6G18G 2G11G16G19G 6
  20954861.225     2712926.721 7   2113961.45123
  21712474.6544  -11184605.73846  -8715242.80261
  22133388.0764   -6358261.55846  -4954480.21061
  23484308.7174   -1421340.46244   -993217.22061
  20292892.3424   -3114342.58546  -2426759.37363
  23610228.6234    -984602.42045   -694240.04261
 91  3 26 22 40 44.9980000  0  6G18G 2G11G16G19G 6
  20959303.022     2736257.743 7   2132141.41423
  21703417.0454  -11232204.24746  -8752332.46961
  22130236.357    -6374814.316 6  -4967378.44721
  23479947.139    -1444277.250 5  -1011090.11521
  20290769.9904   -3125490.18746  -2435445.81063
  23601293.217    -1031555.389 4   -730826.65821
 91  3 26 22 40 59.9980000  0  6G18G 2G11G16G19G 6
  20963758.7254    2759680.56147   2150392.90362
  21694370.881   -11279736.227 6  -8789370.27521
  22127115.6474   -6391219.31946  -4980161.55861
  23475607.2174   -1467087.17345  -1028864.11661
  20288658.3654   -3136592.98746  -2444097.33963
  23592358.6474   -1078510.99244   -767415.30361
 91  3 26 22 41 14.9980000  0  6G18G 2G11G16G19G 6
  20968236.303     2783204.520 7   2168723.20522
  21685341.1314  -11327191.83146  -8826348.56962
  22124021.756    -6407466.850 6  -4992821.96121
  23471294.092    -1489760.761 5  -1046531.90021
  20286554.904    -3147641.010 6  -2452706.17623
  23583422.740    -1125459.428 3   -803998.39821
 91  3 26 22 41 29.9980000  0  6G18G 2G11G16G19G 6
  20972727.240     2806810.829 7   2187117.68622
  21676321.8734  -11374589.83846  -8863281.99562
  22120954.295    -6423575.557 6  -5005374.18621
  23467000.1074   -1512316.47145  -1064107.82861
  20284462.3344   -3158653.15746  -2461287.06463
  23574487.8654   -1172419.53443   -840590.56361
 91  3 26 22 41 44.9980000  0  6G18G 2G11G16G19G 6
  20977240.107     2830522.104 7   2205593.95822
  21667318.2174  -11421907.52046  -8900152.81162
  22117922.592    -6439522.673 6  -5017800.48721
  23462732.764    -1534731.571 5  -1081574.16721
  20282376.7564   -3169606.62046  -2469822.21963
  23565555.037    -1219368.599 3   -877174.11721
 91  3 26 22 41 59.9980000  0  6G18G 2G11G16G19G 6
  20981761.2174    2854280.69847   2224107.08462
  21658318.9364  -11469202.29146  -8937005.78562
  22114908.732    -6455365.501 6  -5030145.52921
  23458483.865    -1557063.702 5  -1098975.89421
  20280293.2954   -3180558.81646  -2478356.38863
  23556610.420    -1266364.137 4   -913793.89321
 91  3 26 22 42 14.9980000  0  6G18G 2G11G16G19G 6
  20986297.631     2878123.046 7   2242685.47622
  21649328.0374  -11516437.19446  -8973812.10862
  22111921.0144   -6471067.21546  -5042380.60661
  23454257.818    -1579275.941 5  -1116284.16321
  20278212.2094   -3191472.72046  -2486860.72863
  23547665.1784   -1313369.23344   -950421.10461
 91  3 26 22 42 29.9980000  0  6G18G 2G11G16G19G 6
  20990850.8424    2902040.66647   2261322.54462
  21640350.443   -11563620.556 6  -9010578.26221
  22108957.678    -6486636.245 6  -5054512.30221
  23450053.5924   -1601376.60145  -1133505.49561
  20276141.2174   -3202356.63346  -2495341.69363
  23538718.9434   -1360392.48245   -987062.47861
 91  3 26 22 42 44.9980000  0  6G18G 2G11G16G19G 6
  20995414.857     2926034.860 7   2280019.27322
  21631381.1474  -11610750.82646
  22106022.1704   -6502070.95646  -5066539.32561
  23445868.6474   -1623364.47344  -1150638.94661
  20274077.0064   -3213209.02746  -2503798.09163
  23529767.5294   -1407432.35145
 91  3 26 22 42 59.9980000  0  6G18G 2G11G16G19G 6
  20999996.0224    2950105.42647   2298775.49762
  21622420.4904  -11657828.01146
  22103109.3504   -6517371.28547  -5078461.64861
  23441704.326    -1645239.260 4  -1167684.27021
  20272020.3734   -3224029.83446  -2512229.87663
  23520811.6394   -1454488.87845
 91  3 26 22 43 14.9980000  0  6G18G 2G11G16G19G 6
  21004594.334     2974267.463 7   2317603.00022
  21613477.0374  -11704836.81846
  22100226.397    -6532521.907 6  -5090267.31321
  23437568.4434   -1666985.90644  -1184629.72761
  20269969.9124   -3234803.68846  -2520625.09063
  23511858.2564   -1501546.82344
 91  3 26 22 43 29.9980000  0  6G18G 2G11G16G19G 6
  21009214.498     2998540.399 7   2336516.92122
  21604548.404   -11751757.148 6  -9157177.84021
  22097373.053    -6547502.737 6  -5101940.67221
  23433455.0684   -1688584.33943  -1201459.71961
  20267933.3114   -3245510.55746  -2528968.09863
  23502905.678    -1548586.358 5  -1133706.58921
 91  3 26 22 43 44.9980000  0  6G18G 2G11G16G19G 6
  21013848.1784    3022892.77847   2355492.74762
  21595629.9434  -11798620.51346  -9193694.66661
  22094550.693    -6562345.314 6  -5113506.29821
  23429366.3574   -1710066.09643  -1218198.80561
  20265899.8424   -3256181.87846  -2537283.40463
  23493949.9514   -1595638.84944  -1170370.74961
 91  3 26 22 43 59.9980000  0  6G18G 2G11G16G19G 6
  21018496.2564    3047327.55447   2374532.76462
  21586723.5684  -11845423.60446  -9230164.51162
  22091752.389    -6577046.357 6  -5124961.63921
  23425301.2404   -1731428.10144  -1234844.54061
  20263876.8974   -3266814.25146  -2545568.36463
  23484995.334    -1642701.392 4  -1207042.75121
 91  3 26 22 44 14.9980000  0  6G18G 2G11G16G19G 6
  21023163.217     3071846.418 7   2393638.32122
  21577829.7794  -11892164.40846  -9266585.82361
  22088981.8264   -6591603.80746  -5136305.09961
  23421263.061    -1752668.292 4  -1251395.40921
  20261863.7174   -3277405.66646  -2553821.40963
  23476040.3424   -1689771.68944  -1243720.75761
 91  3 26 22 44 29.9980000  0  6G18G 2G11G16G19G 6
  21027844.318     3096445.035 7   2412806.02522
  21568945.6934  -11938847.07746  -9302961.83861
  22086239.412    -6606021.838 6  -5147539.91621
  23417241.2324   -1773790.95944  -1267854.67161
  20259852.0454   -3287960.34546  -2562045.83063
  23467080.1864   -1736854.20344  -1280408.33861
 91  3 26 22 44 44.9980000  0  6G18G 2G11G16G19G 6
  21032543.834     3121143.894 7   2432051.83722
  21560077.4594  -11985451.06846  -9339276.54161
  22083525.8974   -6620279.73946  -5158649.95961
  23413249.9284   -1794775.78345  -1284206.52661
  20257856.131    -3298457.627 6  -2570225.51623
  23458122.1394   -1783928.36644  -1317089.37461
 91  3 26 22 44 59.9980000  0  6G18G 2G11G16G19G 6
  21037258.0374    3145912.22247   2451351.77662
  21551217.8574  -12032006.69046  -9375553.56661
  22080837.350    -6634407.850 6  -5169658.86621
  23409273.1154   -1815653.00544  -1300474.53661
  20255861.9754   -3308927.79546  -2578384.08763
  23449161.115    -1831024.511 4  -1353787.55221
 91  3 26 22 45 14.9980000  0  6G18G 2G11G16G19G 6
  21041988.842     3170778.678 7   2470728.18222
  21542371.4514  -12078485.04246  -9411770.36761
  22078180.264    -6648377.346 6  -5180544.17621
  23405328.584    -1836393.661 5  -1316636.10221
  20253880.2174   -3319341.88146  -2586498.95363
  23440197.6474   -1878114.00244  -1390480.54961
 91  3 26 22 45 29.9970000  0  6G18G 2G11G16G19G 6
  21046736.501     3195727.028 7   2490168.39422
  21533540.7824  -12124897.20446  -9447935.59561
  22075546.149    -6662201.581 6  -5191316.28821
  23401407.9074   -1857010.79545  -1332701.44561
  20251909.8764   -3329713.39046  -2594580.64463
  23431236.6264   -1925207.82644  -1427176.94161
 91  3 26 22 45 44.9970000  0  6G18G 2G11G16G19G 6
  21051501.423     3220761.727 7   2509675.90122
  21524719.7284  -12171248.18346  -9484053.15462
  22072943.649    -6675881.097 6  -5201975.63621
  23397507.337    -1877506.033 5  -1348671.78121
  20249942.0014   -3340042.30346  -2602629.14863
  23422275.329    -1972311.100 4  -1463880.68621
 91  3 26 22 45 59.9970000  0  6G18G 2G11G16G19G 6
  21056282.6894    3245890.56247   2529256.75562
  21515914.1964  -12217525.24846  -9520113.10562
  22070370.548    -6689405.384 6  -5212514.02521
  23393631.274    -1897868.393 5  -1364538.62021
  20247987.0794   -3350318.35546  -2610636.45063
  23413309.532    -2019411.151 4  -1500581.91421
 91  3 26 22 46 14.9970000  0  6G18G 2G11G16G19G 6
  21061083.337     3271118.442 7   2548914.78822
  21507124.0094  -12263722.97646  -9556111.24162
  22067829.3534   -6702769.15247  -5222927.31561
  23389782.399    -1918092.627 5  -1380297.81521
  20246042.6104   -3360536.28546  -2618598.47963
  23404349.8454   -2066502.76044  -1537276.60161
 91  3 26 22 46 29.9970000  0  6G18G 2G11G16G19G 6
  21065900.8454    3296432.35447   2568639.85562
  21498344.735   -12309854.620 6  -9592057.87722
  22065312.220    -6715985.559 7  -5233225.80121
  23385958.853    -1938191.695 5  -1395959.46621
  20244109.7824   -3370708.99146  -2626525.25563
  23395386.0404   -2113599.10644  -1573974.94961
 91  3 26 22 46 44.9970000  0  6G18G 2G11G16G19G 6
  21070733.0174    3321830.11647   2588430.25162
  21489578.7674  -12355921.70046  -9627954.18462
  22062824.767    -6729056.032 7  -5243410.56821
  23382159.6344   -1958167.52945  -1411525.08261
  20242181.1104   -3380837.95946  -2634417.95363
  23386423.6034   -2160701.80844  -1610678.28761
 91  3 26 22 46 59.9970000  0  6G18G 2G11G16G19G 6
  21075585.0174    3347320.87747   2608293.12362
  21480826.618   -12401914.544 6  -9663792.65122
  22060366.7824   -6741971.13446  -5253474.25361
  23378379.6264   -1978010.61645  -1426987.22761
  20240265.9704   -3390913.63746  -2642269.13763
  23377461.8064   -2207801.30745  -1647379.09061
 91  3 26 22 47 14.9970000  0  6G18G 2G11G16G19G 6
  21080452.9154    3372903.90547   2628227.89062
  21472088.040   -12447833.934 6  -9699573.89022
  22057939.3924   -6754731.58246  -5263417.43561
  23374630.329    -1997721.461 5  -1442346.37621
  20238353.0014   -3400936.80746  -2650079.39263
  23368499.7044   -2254898.42945  -1684078.05161
 91  3 26 22 47 29.9970000  0  6G18G 2G11G16G19G 6
  21085332.1654    3398549.82947   2648211.66362
  21463357.6264  -12493709.10946  -9735320.67362
  22055534.814    -6767366.598 6  -5273262.89121
  23370902.1184   -2017329.54945  -1457625.46961
  20236450.9074   -3410936.61946  -2657871.44663
  23359530.8764   -2302022.52844  -1720798.03361
 91  3 26 22 47 44.9970000  0  6G18G 2G11G16G19G 6
  21090229.9074    3424284.79447   2668264.82062
  21454642.8844  -12539513.44247  -9771012.27662
  22053157.735    -6779849.521 6  -5282989.81821
  23367190.407    -2036808.604 5  -1472803.99321
  20234558.7514   -3420886.31746  -2665624.46063
  23350561.454    -2349147.002 4  -1757518.29421
 91  3 26 22 47 59.9970000  0  6G18G 2G11G16G19G 6
  21095140.3604    3450096.90147   2688378.08262
  21445937.0404  -12585258.52647  -9806657.70861
  22050811.556    -6792192.012 6  -5292607.32621
  23363511.329    -2056170.097 5  -1487890.89521
  20232672.7984   -3430797.43346  -2673347.40563
  23341592.3454   -2396283.63244  -1794248.05261
 91  3 26 22 48 14.9970000  0  6G18G 2G11G16G19G 6
  21100074.485     3476011.159 7   2708570.93822
  21437247.196   -12630918.968 6  -9842237.18621
  22048495.806    -6804368.669 6  -5302095.61521
  23359852.4784   -2075388.86645  -1502866.59861
  20230797.7904   -3440644.66846  -2681020.57863
  23332623.212    -2443406.953 4  -1830967.39221
 91  3 26 22 48 29.9970000  0  6G18G 2G11G16G19G 6
  21105022.7044    3502010.06347   2728829.76462
  21428572.189   -12676512.286 6  -9877764.37421
  22046204.907    -6816396.998 6  -5311468.31821
  23356219.103    -2094482.531 5  -1517744.83521
  20228933.4234   -3450445.31746  -2688657.45063
  23323657.704    -2490534.572 4  -1867690.10621
 91  3 26 22 48 44.9970000  0  6G18G 2G11G16G19G 6
  21109987.8294    3528107.92947   2749165.69762
  21419911.6184  -12722023.82446  -9913227.83161
  22043947.946    -6828262.335 6  -5320714.02121
  23352611.7674   -2113436.51245  -1532514.22561
  20227081.4074   -3460184.78046  -2696246.64463
  23314690.556    -2537651.795 4  -1904404.77221
 91  3 26 22 48 59.9970000  0  6G18G 2G11G16G19G 6
  21114965.446     3554276.903 7   2769557.03322
  21411260.564   -12767481.193 6  -9948649.05822
  22041715.7674   -6839992.40746  -5329854.32961
  23349024.837    -2132278.475 5  -1547196.32821
  20225236.5014   -3469890.46746  -2703809.52763
  23305721.7744   -2584786.38144  -1941132.90661
 91  3 26 22 49 14.9970000  0  6G18G 2G11G16G19G 6
  21119966.2044    3580544.98747   2790025.60262
  21402626.3294  -12812856.47146  -9984006.32362
  22039516.517    -6851559.144 6  -5338867.34721
  23345466.3534   -2150980.15445  -1561769.09161
  20223397.1574   -3479534.24946  -2711324.16463
  23296756.3994   -2631910.33045  -1977852.80361
 91  3 26 22 49 29.9970000  0  6G18G 2G11G16G19G 6
  21124982.3684    3606901.78647   2810563.29862
  21394004.7124  -12858159.70046 -10019307.43262
  22037342.6344   -6862972.46146  -5347760.83161
  23341934.009    -2169551.775 5  -1576240.52221
  20221573.1264   -3489126.33546  -2718798.52063
  23287789.407    -2679033.802 4  -2014572.30021
 91  3 26 22 49 44.9970000  0  6G18G 2G11G16G19G 6
  21130016.3924    3633353.25347   2831174.76462
  21385399.485   -12903384.464 6 -10054547.40822
  22035201.556    -6874226.111 6  -5356529.88321
  23338427.290    -2187987.068 5  -1590605.71621
  20219759.0014   -3498660.27746  -2726227.56363
  23278820.4314   -2726150.42444  -2051286.45161
 91  3 26 22 49 59.9970000  0  6G18G 2G11G16G19G 6
  21135062.204     3659883.589 7   2851847.67722
  21376805.4624  -12948546.01747 -10089738.13762
  22033083.853    -6885335.624 6  -5365186.63321
  23334943.048    -2206301.910 5  -1604877.08821
  20217954.7594   -3508151.38346  -2733623.23663
  23269854.478    -2773275.765 4  -2088007.39621
 91  3 26 22 50 14.9970000  0  6G18G 2G11G16G19G 6
  21140127.368     3686490.738 7   2872580.44722
  21368223.032   -12993646.362 6 -10124881.18222
  22030999.853    -6896302.874 6  -5373732.52921
  23331478.321    -2224497.927 5  -1619055.82221
  20216155.5404   -3517601.55446  -2740987.00263
  23260882.345    -2820411.654 4  -2124736.55121
 91  3 26 22 50 29.9970000  0  6G18G 2G11G16G19G 6
  21145209.712     3713200.165 7   2893392.91222
  21359657.2904  -13038659.77846 -10159956.47762
  22028944.048    -6907102.205 6  -5382147.58221
  23328042.6264   -2242549.48845  -1633122.04461
  20214369.6104   -3526985.02146  -2748298.79463
  23251919.4704   -2867532.53945  -2161454.03061
 91  3 26 22 50 44.9970000  0  6G18G 2G11G16G19G 6
  21150308.7824    3739987.43847   2914266.04762
  21351103.5564  -13083610.37046 -10194982.82362
  22026918.423    -6917757.712 6  -5390450.56421
  23324631.3454   -2260480.59445  -1647094.36061
  20212590.1034   -3536325.73246  -2755577.27863
  23242947.8454   -2914662.36845  -2198178.48461
 91  3 26 22 50 59.9970000  0  6G18G 2G11G16G19G 6
  21155421.142     3766861.159 7   2935206.52822
  21342562.704   -13128489.421 6 -10229953.43222
  22024918.892    -6928260.774 6  -5398634.75921
  23321243.899    -2278283.104 5  -1660966.47421
  20210824.7674   -3545615.00846  -2762815.67163
  23233982.814    -2961792.792 5  -2234903.37921
 91  3 26 22 51 14.9970000  0  6G18G 2G11G16G19G 6
  21160549.4624    3793806.20547   2956202.59962
  21334033.1264  -13173311.44346 -10264879.59661
  22022943.7354   -6938626.00746  -5406711.54161
  23317876.806    -2295971.393 5  -1674749.60821
  20209063.2284   -3554867.18246  -2770025.15663
  23225008.251    -3008938.366 5  -2271640.06321
 91  3 26 22 51 29.9970000  0  6G18G 2G11G16G19G 6
  21165692.048     3820831.926 7   2977261.51922
  21325515.876   -13218067.205 6 -10299754.13221
  22021001.603    -6948844.226 6  -5414673.76821
  23314533.0324   -2313536.53045  -1688436.74761
  20207313.0404   -3564073.00746  -2777198.53163
  23216035.1494   -3056089.82545  -2308381.34961
 91  3 26 22 51 44.9970000  0  6G18G 2G11G16G19G 6
  21170852.634     3847951.488 7   2998393.57522
  21317015.8764  -13262743.24746 -10334566.55061
  22019088.024    -6958901.914 6  -5422510.91622
  23311218.032    -2330965.216 5  -1702017.55121
  20205569.3144   -3573219.05746  -2784325.32763
  23207061.9784   -3103233.83345  -2345116.84461
 91  3 26 22 51 59.9970000  0  6G18G 2G11G16G19G 6
  21176027.9394    3875152.84847   3019589.36962
  21308525.306   -13307351.484 6 -10369326.13521
  22017201.517    -6968810.807 6  -5430232.10721
  23307924.2354   -2348269.02545  -1715501.09061
  20203839.9934   -3582317.09746  -2791414.71163
  23198088.4624   -3150382.11045  -2381855.62861
 91  3 26 22 52 14.9970000  0  6G18G 2G11G16G19G 6
  21181222.821     3902450.034 7   3040859.82722
  21300051.9154  -13351877.28246 -10404021.47262
  22015347.353    -6978556.430 6  -5437826.08721
  23304657.618    -2365433.671 5  -1728876.18121
  20202119.0094   -3591352.32646  -2798455.15163
  23189121.853    -3197520.182 5  -2418586.46621
 91  3 26 22 52 29.9970000  0  6G18G 2G11G16G19G 6
  21186429.892     3929822.112 7   3062188.64422
  21291591.274   -13396341.466 6 -10438668.80522
  22013519.9934   -6988159.57446  -5445309.04561
  23301413.829    -2382479.778 5  -1742158.92721
  20200409.1104   -3600345.56646  -2805462.86763
  23180148.978    -3244668.859 5  -2455325.58521
 91  3 26 22 52 44.9970000  0  6G18G 2G11G16G19G 6
  21191653.251     3957261.934 7   3083570.24922
  21283140.9624  -13440750.86146 -10473273.44062
  22011717.196    -6997627.243 6  -5452686.43721
  23298191.751    -2399414.586 5  -1755354.91521
  20198704.3764   -3609303.73646  -2812443.25863
  23171173.767    -3291835.055 5  -2492078.35121
 91  3 26 22 52 59.9970000  0  6G18G 2G11G16G19G 6
  21196889.142     3984780.795 7   3105013.43922
  21274702.9854  -13485094.21746 -10507826.61262
  22009945.0094   -7006948.16346  -5459949.48161
  23294992.4934   -2416226.85945  -1768455.43161
  20197007.6494   -3618215.22746  -2819387.27463
  23162195.954    -3339007.502 5  -2528835.97221
 91  3 26 22 53 14.9970000  0  6G18G 2G11G16G19G 6
  21202143.415     4012380.255 7   3126519.43522
  21266276.4314  -13529369.26746 -10542326.55662
  22008199.337    -7016120.182 6  -5467096.49221
  23291820.2124   -2432914.51745  -1781458.85561
  20195318.7984   -3627078.00046  -2826293.32663
  23153219.6344   -3386184.11045  -2565596.83861
 91  3 26 22 53 29.9970000  0  6G18G 2G11G16G19G 6
  21207402.399     4040025.527 7   3148061.13722
  21257857.4314  -13573610.75546 -10576800.36162
  22006475.829    -7025177.953 6  -5474154.47121
  23288661.993    -2449512.295 5  -1794392.20021
  20193636.1734   -3635926.61746  -2833188.35263
  23144233.704    -3433399.664 5  -2602388.06821
 91  3 26 22 53 44.9970000  0  6G18G 2G11G16G19G 6
  21212684.314     4067777.466 7   3169685.94422
  21249457.524   -13617757.884 6 -10611200.63622
  22004786.681    -7034060.698 6
  23285529.5014   -2465959.46545  -1807208.20561
  20191968.2284   -3644700.32246
  23135251.821    -3480593.230 5  -2639162.15421
 91  3 26 22 53 59.9970000  0  6G18G 2G11G16G19G 6
  21217983.704     4095632.786 7   3191391.30322
  21241073.673   -13661813.123 6 -10645529.30922
  22003126.3924   -7042771.12046
  23282428.689    -2482258.701 5  -1819908.90821
  20190313.5404   -3653401.59046
  23126275.087    -3527767.608 5  -2675921.27721
 91  3 26 22 54 14.9970000  0  6G18G 2G11G16G19G 6
  21223298.532     4123550.070 7   3213144.95122
  21232698.759   -13705817.921 6 -10679818.68222
  22001494.5714   -7051350.59146  -5494548.68361
  23279345.899    -2498451.260 5  -1832526.52621
  20188661.2984   -3662071.55446  -2853561.02263
  23117292.329    -3574963.966 4  -2712697.55721
 91  3 26 22 54 29.9970000  0  6G18G 2G11G16G19G 6
  21228626.673     4151547.532 7   3234961.08722
  21224338.524   -13749753.848 6 -10714054.39722
  21999890.6344   -7059780.70046  -5501117.58761
  23276288.3454   -2514519.11645  -1845046.98361
  20187023.1964   -3670691.65346  -2860277.97363
  23108312.1424   -3622164.14745  -2749476.79761
 91  3 26 22 54 44.9970000  0  6G18G 2G11G16G19G 6
  21233966.329     4179616.803 7   3256833.16122
  21215991.5324  -13793628.69546 -10748242.50162
  21998315.564    -7068069.455 6  -5507576.33721
  23273253.8684   -2530470.38445  -1857476.58061
  20185388.9934   -3679269.82446  -2866962.26463
  23099325.439    -3669375.985 4  -2786265.12521
 91  3 26 22 54 59.9970000  0  6G18G 2G11G16G19G 6
  21239327.6734    4207782.02246   3278779.99962
  21207657.282   -13837418.280 6 -10782364.18222
  21996767.189    -7076192.615 6  -5513906.04621
  23270245.767    -2546281.091 5  -1869796.63021
  20183771.5954   -3687781.80046  -2873594.96563
  23090348.329    -3716575.356 5  -2823043.72821
 91  3 26 22 55 14.9970000  0  6G18G 2G11G16G19G 6
  21244701.4464    4236032.74746   3300793.46562
  21199338.501   -13881132.439 6 -10816427.08722
  21995252.228    -7084160.209 7  -5520114.54521
  23267261.103    -2561961.106 5  -1882014.87121
  20182159.6964   -3696237.33746  -2880183.69363
  23081366.884    -3763772.148 5  -2859820.35321
 91  3 26 22 55 29.9970000  0  6G18G 2G11G16G19G 6
  21250092.1264    4264352.67547   3322860.86662
  21191031.751   -13924787.568 6 -10850443.98622
  21993764.048    -7091988.597 7  -5526214.57021
  23264296.5014   -2577526.53045  -1894143.79861
  20180560.9464   -3704652.69346  -2886741.11463
  23072380.9234   -3810982.75145  -2896607.70961
 91  3 26 22 55 44.9970000  0  6G18G 2G11G16G19G 6
  21255498.0014    4292763.29646   3344998.92662
  21182738.915   -13968361.749 6 -10884397.81122
  21992300.517    -7099655.860 6  -5532189.04621
  23261364.501    -2592955.599 5  -1906166.49921
  20178971.5014   -3713006.03046  -2893250.20463
  23063398.4464   -3858185.31745  -2933388.84561
 91  3 26 22 55 59.9970000  0  6G18G 2G11G16G19G 6
  21260921.423     4321271.841 6   3367213.29121
  21174464.1034  -14011847.40446 -10918282.66662
  21990877.103    -7107154.500 7  -5538032.12721
  23258453.3064   -2608241.05945  -1918077.29361
  20177392.6494   -3721289.70646  -2899705.01963
  23054420.610    -3905372.318 4  -2970157.81821
 91  3 26 22 56 14.9970000  0  6G18G 2G11G16G19G 6
  21266363.0174    4349855.44546   3389486.13662
  21166201.603   -14055267.460 6 -10952116.39822
  21989475.2594   -7114507.36846  -5543761.62161
  23255569.165    -2623405.615 5  -1929893.86021
  20175826.7594   -3729526.43446  -2906123.25063
  23045436.9854   -3952566.53645  -3006932.44661
 91  3 26 22 56 29.9970000  0  6G18G 2G11G16G19G 6
  21271814.478     4378509.999 6   3411814.27921
  21157951.353   -14098625.802 6 -10985902.03322
  21988103.907    -7121718.466 6  -5549380.65021
  23252706.8144   -2638453.35845  -1941619.41661
  20174267.1654   -3737720.04747  -2912507.88363
  23036458.1104   -3999771.92945  -3043715.77061
 91  3 26 22 56 44.9970000  0  6G18G 2G11G16G19G 6
  21277283.642     4407231.326 7   3434194.46121
  21149709.149   -14141926.227 6 -11019642.54622
  21986760.3844   -7128791.69046  -5554892.24161
  23249864.220    -2653388.245 5  -1953257.04921
  20172714.0564   -3745874.18046  -2918861.74963
  23027467.095    -4046992.308 4  -3080510.76521
 91  3 26 22 56 59.9970000  0  6G18G 2G11G16G19G 6
  21282761.626     4436032.145 7   3456636.56421
  21141483.689   -14185155.575 6 -11053327.67222
  21985438.8294   -7135713.93546  -5560286.19661
  23247042.368    -2668197.671 5  -1964796.89321
  20171173.2744   -3753975.56646  -2925174.51963
  23018485.064    -4094214.574 4  -3117307.22921
 91  3 26 22 57 14.9970000  0  6G18G 2G11G16G19G 6
  21288257.4934    4464909.65747   3479138.43261
  21133270.9314  -14228316.50146 -11086959.47462
  21984150.931    -7142488.007 6  -5565564.67821
  23244250.759    -2682884.140 5  -1976240.93621
  20169641.8214   -3762027.07346  -2931448.42063
  23009498.7354   -4141441.52845  -3154107.35261
 91  3 26 22 57 29.9970000  0  6G18G 2G11G16G19G 6
  21293769.4314    4493876.20147   3501709.67161
  21125073.915   -14271396.386 6 -11120528.13422
  21982893.5244   -7149101.14646  -5570717.76961
  23241482.407    -2697435.070 5  -1987579.35421
  20168121.3374   -3770015.82746  -2937673.42963
  23000511.228    -4188660.518 5  -3190901.27221
 91  3 26 22 57 44.9970000  0  6G18G 2G11G16G19G 6
  21299297.970     4522931.643 7   3524350.19021
  21116891.1424  -14314395.20947 -11154033.64462
  21981665.4784   -7155553.51846  -5575745.58961
  23238737.4544   -2711850.41845  -1998812.13561
  20166614.2514   -3777941.75346  -2943849.47663
  22991527.1894   -4235871.57945  -3227689.00961
 91  3 26 22 57 59.9970000  0  6G18G 2G11G16G19G 6
  21304844.5564    4552079.70947   3547062.88161
  21108724.228   -14357308.915 7 -11187472.81522
  21980468.915    -7161841.153 6  -5580645.02621
  23236022.5954   -2726126.51845  -2009936.41461
  20165122.2124   -3785800.71146  -2949973.34263
  22982547.7744   -4283070.65845  -3264467.46561
 91  3 26 22 58 14.9970000  0  6G18G 2G11G16G19G 6
  21310406.798     4581304.450 7   3569835.32921
  21100570.7594  -14400153.11347 -11220857.83362
  21979298.485    -7167979.873 6  -5585428.43221
  23233329.4854   -2740279.00045  -2020964.35561
  20163632.6264   -3793608.35446  -2956057.22363
  22973566.157    -4330273.569 5  -3301248.85921
 91  3 26 22 58 29.9970000  0  6G18G 2G11G16G19G 6
  21315979.1184    4610587.83747   3592653.46261
  21092427.0404  -14442945.37946 -11254202.39262
  21978156.657    -7173987.208 6  -5590109.45321
  23230654.5094   -2754325.76645  -2031909.91161
  20162151.8144   -3801382.07946  -2962114.68063
  22964578.6034   -4377497.84145  -3338046.90361
 91  3 26 22 58 44.9970000  0  6G18G 2G11G16G19G 6
  21321568.5564    4639959.63947   3615540.48361
  21084299.462   -14485655.927 6 -11287483.26422
  21977047.5564   -7179833.15546  -5594664.73061
  23228007.6574   -2768236.95745  -2042749.86061
  20160684.915    -3809091.826 6  -2968122.28523
  22955590.7674   -4424713.40345  -3374838.16061
 91  3 26 22 58 59.9970000  0  6G18G 2G11G16G19G 6
  21327174.7434    4669422.97647   3638498.83562
  21076188.321   -14528281.411 6 -11320697.84322
  21975965.2284   -7185514.54946  -5599091.78261
  23225389.181    -2782009.153 5  -2053481.48821
  20159234.4074   -3816734.35646  -2974077.51263
  22946611.1424   -4471917.15645  -3411620.22261
 91  3 26 22 59 14.9970000  0  6G18G 2G11G16G19G 6
  21332793.4854    4698948.10247   3661505.33062
  21068087.774   -14570851.277 6 -11353869.09322
  21974909.2824   -7191061.00047  -5603413.68561
  23222786.954    -2795672.088 5  -2064127.96621
  20157785.118    -3824339.144 6  -2980003.33623
  22937623.1344   -4519138.49145  -3448416.00361
 91  3 26 22 59 29.9970000  0  6G18G 2G11G16G19G 6
  21338424.0794    4728537.85647   3684562.19361
  21059998.118   -14613362.453 6 -11386994.60322
  21973881.5564   -7196469.44046  -5607628.06061
  23220209.3454   -2809222.66445  -2074686.90561
  20156346.8294   -3831902.89946  -2985897.16763
  22928634.579    -4566374.374 5  -3485223.09121
 91  3 26 22 59 44.9970000  0  6G18G 2G11G16G19G 6
  21344066.7824    4758191.25946   3707668.64261
  21051919.509   -14655815.654 6 -11420074.94022
  21972875.173    -7201740.821 6  -5611735.61621
  23217653.7354   -2822661.96545  -2085159.11661
  20154913.9854   -3839426.33246  -2991759.58763
  22919645.009    -4613625.520 5  -3522042.09921
 91  3 26 22 59 59.9970000  0  6G18G 2G11G16G19G 6
  21349725.274     4787926.538 7   3730838.90921
  21043856.173   -14698192.298 6 -11453095.62022
  21971903.0324   -7206856.64046  -5615721.96461
  23215119.642    -2835971.425 5  -2095530.17921
  20153491.5404   -3846890.85746  -2997576.10263
  22910654.384    -4660873.487 5  -3558858.61821
 91  3 26 23  0 14.9970000  0  6G18G 2G11G16G19G 6
  21355401.6494    4817749.18947   3754077.25061
  21035807.3844  -14740486.53047 -11486052.08862
  21970959.3924   -7211810.93546  -5619582.44361
  23212612.8994   -2849145.24345  -2105795.53061
  20152085.9544   -3854290.33546  -3003341.92763
  22901663.329    -4708112.441 5  -3595668.10721
 91  3 26 23  0 29.9970000  0  6G18G 2G11G16G19G 6
  21361091.6344    4847663.48546   3777387.00162
  21027775.931   -14782694.046 7 -11518940.98722
  21970051.493    -7216599.529 6  -5623313.80621
  23210133.2044   -2862179.19745  -2115951.91161
  20150689.1034   -3861620.40446  -3009053.66763
  22892674.689    -4755337.888 5  -3632467.06821
 91  3 26 23  0 44.9970000  0  6G18G 2G11G16G19G 6
  21366799.1894    4877641.20946   3800746.17162
  21019754.728   -14824842.677 7 -11551784.00022
  21969164.5404   -7221250.42846  -5626937.87661
  23207673.6734   -2875101.38045  -2126021.17561
  20149301.2354   -3868908.89446  -3014733.00763
  22883685.556    -4802577.882 5  -3669277.36721
 91  3 26 23  0 59.9970000  0  6G18G 2G11G16G19G 6
  21372513.6654    4907681.78646   3824154.31162
  21011744.6104  -14866932.76247 -11584581.40762
  21968303.0014   -7225764.16446  -5630455.06561
  23205235.649    -2887912.419 5  -2136003.85121
  20147925.3604   -3876156.02146  -3020380.12063
  22874694.2044   -4849832.70045  -3706099.21161
 91  3 26 23  1 14.9970000  0  6G18G 2G11G16G19G 6
  21378251.2984    4937831.44646   3847647.46462
  21003756.095   -14908917.959 7 -11617297.05322
  21967480.8534   -7230094.28746  -5633829.18361
  23202827.892    -2900565.885 5  -2145863.69221
  20146561.2514   -3883315.41646  -3025958.87063
  22865704.212    -4897056.031 5  -3742896.54521
 91  3 26 23  1 29.9970000  0  6G18G 2G11G16G19G 6
  21383998.9624    4968043.25146   3871189.03262
  20995776.8454  -14950844.82747 -11649967.27662
  21966681.9854   -7234287.26846  -5637096.43861
  23200437.9394   -2913108.57945  -2155637.27161
  20145210.2284   -3890433.46946  -3031505.40063
  22856720.8684   -4944294.48445  -3779705.60961
 91  3 26 23  1 44.9970000  0  6G18G 2G11G16G19G 6
  21389762.8534    4998329.13346   3894788.33362
  20987812.157   -14992700.951 7 -11682582.36622
  21965912.6424   -7238330.91346  -5640247.33361
  23198079.485    -2925528.248 5  -2165314.98521
  20143862.6964   -3897497.54946  -3037009.87763
  22847728.431    -4991535.443 5  -3816516.66421
 91  3 26 23  1 59.9970000  0  6G18G 2G11G16G19G 6
  21395543.298     5028700.552 6   3918454.27722
  20979863.103   -15034474.681 7 -11715133.25122
  21965173.4544   -7242213.68646  -5643272.86961
  23195739.2284   -2937813.26745  -2174887.75861
  20142531.2354   -3904496.12446  -3042463.31763
  22838740.3294   -5038767.50345  -3853320.78961
 91  3 26 23  2 14.9970000  0  6G18G 2G11G16G19G 6
  21401339.2904    5059151.65546   3942182.30562
  20971929.0644  -15076171.83947 -11747624.47062
  21964464.2904   -7245941.36346  -5646177.55761
  23193424.485    -2949969.676 5  -2184360.31421
  20141210.5564   -3911435.11946  -3047870.32463
  22829751.6034   -5085996.39145  -3890122.42661
 91  3 26 23  2 29.9970000  0  6G18G 2G11G16G19G 6
  21407148.493     5089682.736 6   3965972.65322
  20964008.4624  -15117791.66347 -11780055.43862
  21963784.3534   -7249513.45346  -5648960.99761
  23191136.1814   -2961996.90445  -2193732.22461
  20139903.0794   -3918313.60646  -3053230.18163
  22820765.3214   -5133221.44345  -3926921.07461
 91  3 26 23  2 44.9970000  0  6G18G 2G11G16G19G 6
  21412971.9074    5120280.30246   3989814.81662
  20956099.454   -15159347.374 7 -11812436.43622
  21963133.8994   -7252943.25447  -5651633.56861
  23188871.2904   -2973908.12145  -2203013.70561
  20138601.7204   -3925144.66546  -3058553.08563
  22811777.2284   -5180455.88045  -3963727.02461
 91  3 26 23  2 59.9970000  0  6G18G 2G11G16G19G 6
  21418804.3374    5150941.87146   4013706.85062
  20948203.532   -15200841.466 7 -11844769.42822
  21962507.9704   -7256233.22446  -5654197.18561
  23186627.5244   -2985706.32045  -2212207.13961
  20137309.3604   -3931930.56446  -3063840.80063
  22802787.579    -5227702.205 5  -4000542.23421
 91  3 26 23  3 14.9970000  0  6G18G 2G11G16G19G 6
  21424657.1574    5181693.57746   4037669.12662
  20940324.6574  -15242247.40747 -11877033.72662
  21961910.1184   -7259356.94546  -5656631.25061
  23184407.2204   -2997364.76845  -2221291.67361
  20136033.6104   -3938644.60346  -3069072.50963
  22793797.9394   -5274933.86045  -4037346.02561
 91  3 26 23  3 29.9970000  0  6G18G 2G11G16G19G 6
  21430523.595     5212524.760 6   4061693.32422
  20932459.235   -15283575.621 7 -11909237.46222
  21961348.7044   -7262324.91247  -5658943.94961
  23182211.6964   -3008893.99245  -2230275.52761
  20134768.095    -3945297.285 6  -3074256.40923
  22784811.806    -5322161.172 5  -4074146.44121
 91  3 26 23  3 44.9970000  0  6G18G 2G11G16G19G 6
  21436401.860     5243421.165 6   4085768.33722
  20924607.3144  -15324840.02846 -11941391.47662
  21960810.2354   -7265151.23647  -5661146.28361
  23180037.376    -3020308.205 5  -2239169.73321
  20133509.1184   -3951902.30246  -3079403.16663
  22775822.5714   -5369398.23045  -4110954.43461
 91  3 26 23  3 59.9970000  0  6G18G 2G11G16G19G 6
  21442295.673     5274383.017 6   4109894.35122
  20916767.6964  -15366039.97046 -11973495.25962
  21960298.5954   -7267835.40647  -5663237.83161
  23177891.1894   -3031606.75645  -2247973.84361
  20132263.5174   -3958459.02646  -3084512.30163
  22766831.704    -5416644.443 5  -4147769.57521
 91  3 26 23  4 14.9970000  0  6G18G 2G11G16G19G 6
  21448202.579     5305421.505 6   4134080.08322
  20908940.5954  -15407163.96846 -12005539.86862
  21959815.5714   -7270366.08246  -5665209.78761
  23175764.4234   -3042778.42745  -2256679.10761
  20131025.5714   -3964955.94746  -3089574.83163
  22757841.774    -5463888.216 5  -4184582.79821
 91  3 26 23  4 29.9970000  0  6G18G 2G11G16G19G 6
  21454123.8994    5336534.63546   4158323.98362
  20901130.0714  -15448213.87146 -12037526.73862
  21959367.470    -7272745.109 6  -5667063.55821
  23173661.9234   -3053825.04445  -2265286.88261
  20129800.1574   -3971394.76546  -3094592.09363
  22748850.2284   -5511131.28845  -4221395.47661
 91  3 26 23  4 44.9970000  0  6G18G 2G11G16G19G 6
  21460057.5484    5367714.56046   4182619.93961
  20893331.2594  -15489197.38447 -12069461.88262
  21958936.7674   -7274980.16646  -5668805.15461
  23171584.321    -3064754.524 5  -2273803.38121
  20128586.1894   -3977783.15446  -3099570.06163
  22739857.618    -5558381.454 5  -4258213.68021
 91  3 26 23  4 59.9970000  0  6G18G 2G11G16G19G 6
  21466006.2434    5398977.14546   4206980.28761
  20885548.0244  -15530098.36047 -12101332.71062
  21958545.0714   -7277055.31046  -5670422.14361
  23169527.3604   -3075551.05845  -2282216.28361
  20127382.9544   -3984104.81146  -3104496.03463
  22730870.728    -5605622.630 5  -4295024.88921
 91  3 26 23  5 14.9970000  0  6G18G 2G11G16G19G 6
  21471970.9544    5430318.63046   4231402.12961
  20877780.1424  -15570920.30246 -12133141.95462
  21958178.8374   -7278974.12046  -5671917.31461
  23167496.3454   -3086218.02745  -2290528.29761
  20126190.8374   -3990363.11346  -3109372.62963
  22721880.681    -5652858.289 5  -4331831.77721
 91  3 26 23  5 29.9970000  0  6G18G 2G11G16G19G 6
  21477950.6344    5461747.86146   4255892.33861
  20870028.7354  -15611653.73746 -12164882.22963
  21957846.6494   -7280727.28146  -5673283.41861
  23165494.3214   -3096746.26645  -2298732.13261
  20125012.3454   -3996548.56346  -3114192.46063
  22712894.751    -5700079.084 5  -4368627.07721
 91  3 26 23  5 44.9970000  0  6G18G 2G11G16G19G 6
  21483944.7744    5493237.67546   4280429.76061
  20862286.8844  -15652326.04946 -12196574.87162
  21957541.0794   -7282342.14146  -5674541.74161
  23163514.1734   -3107163.40445  -2306849.45361
  20123843.4624   -4002688.37846  -3118976.73563
  22703909.509    -5747312.198 5  -4405432.00121
 91  3 26 23  5 59.9970000  0  6G18G 2G11G16G19G 6
  21489953.814     5524813.099 6   4305033.88721
  20854566.3924  -15692911.66547 -12228199.96862
  21957262.7594   -7283793.18746  -5675672.43261
  23161552.056    -3117443.513 4  -2314859.96821
  20122689.8994   -4008756.74846  -3123705.33163
  22694921.368    -5794532.029 5  -4442226.55121
 91  3 26 23  6 14.9970000  0  6G18G 2G11G16G19G 6
  21495974.087     5556460.132 6   4329693.81421
  20846855.5644  -15733424.46747 -12259768.32862
  21957016.6814   -7285094.56246  -5676686.48461
  23159624.978    -3127601.045 5  -2322774.98821
  20121544.6034   -4014767.66546  -3128389.16163
  22685936.6574   -5841752.59545  -4479021.70961
 91  3 26 23  6 29.9970000  0  6G18G 2G11G16G19G 6
  21502008.7744    5588170.31047   4354402.94661
  20839158.5404  -15773872.65247 -12291286.33162
  21956792.1574   -7286254.61146  -5677590.42261
  23157712.0404   -3137644.59345  -2330601.17861
  20120412.6494   -4020729.14946  -3133034.47763
  22676948.915    -5888982.149 5  -4515823.82821
 91  3 26 23  6 44.9970000  0  6G18G 2G11G16G19G 6
  21508057.298     5619946.158 6   4379163.24921
  20831476.1964  -15814253.48147 -12322751.84762
  21956600.6574   -7287270.50646  -5678382.03361
  23155820.829    -3147571.068 5  -2338336.14321
  20119287.7744   -4026638.39046  -3137639.08163
  22667958.173    -5936217.667 5  -4552630.61321
 91  3 26 23  6 59.9970000  0  6G18G 2G11G16G19G 6
  21514114.9234    5651780.92647   4403969.47561
  20823801.8924  -15854573.44747 -12354169.94962
  21956432.3064   -7288148.87946  -5679066.48362
  23153958.767    -3157387.203 5  -2345985.13021
  20118174.2044   -4032501.69546  -3142207.88363
  22658969.1424   -5983465.72845  -4589447.15861
 91  3 26 23  7 14.9970000  0  6G18G 2G11G16G19G 6
  21520190.1814    5683710.15746   4428849.29361
  20816148.7984  -15894796.57647 -12385512.59062
  21956301.5794   -7288853.92746  -5679615.87262
  23152115.860    -3167057.230 5  -2353520.27121
  20117070.6734   -4038283.06746  -3146712.84963
  22649979.532    -6030690.401 5  -4626245.49421
 91  3 26 23  7 29.9970000  0  6G18G 2G11G16G19G 6
  21526277.4784    5715700.75046   4453776.94161
  20808506.251   -15934955.755 7 -12416805.40522
  21956193.3214   -7289418.60446  -5680055.87862
  23150299.821    -3176614.312 5  -2360967.39921
  20115980.6264   -4044015.43646  -3151179.63063
  22640994.4854   -6077924.61145  -4663051.26161
 91  3 26 23  7 44.9970000  0  6G18G 2G11G16G19G 6
  21532378.782     5747757.348 6   4478756.00621
  20800876.3064  -15975045.99747 -12448044.50062
  21956113.1654   -7289838.10546  -5680382.76362
  23148500.251    -3186053.559 5  -2368322.68521
  20114900.5484   -4049693.75746  -3155604.29563
  22632002.321    -6125163.407 5  -4699860.60621
 91  3 26 23  7 59.9970000  0  6G18G 2G11G16G19G 6
  21538492.5714    5779891.06746   4503795.16861
  20793265.1814  -16015056.00347 -12479221.06462
  21956061.6034   -7290101.29546  -5680587.84061
  23146729.376    -3195363.838 5  -2375577.48521
  20113833.5094   -4055306.58846  -3159977.92863
  22623017.1344   -6172395.40545  -4736664.64261
 91  3 26 23  8 14.9970000  0  6G18G 2G11G16G19G 6
  21544620.7824    5812089.74646   4528884.95561
  20785661.649   -16054997.899 7 -12510344.56822
  21956039.5644   -7290220.44246
  23144980.470    -3204557.351 5  -2382741.31921
  20112773.8994   -4060865.90446  -3164309.86563
  22614025.282    -6219632.666 5  -4773472.78921
 91  3 26 23  8 29.9970000  0  6G18G 2G11G16G19G 6
  21550761.962     5844368.636 6   4554037.24621
  20778076.7984  -16094855.84747 -12541402.64062
  21956047.6654   -7290179.77246
  23143255.728    -3213618.537 5  -2389802.02921
  20111730.6424   -4066355.76946  -3168587.69363
  22605038.626    -6266859.538 5  -4810272.84921
 91  3 26 23  8 44.9970000  0  6G18G 2G11G16G19G 6
  21556920.6104    5876728.99246   4579253.01261
  20770508.314   -16134628.462 7 -12572394.22822
  21956086.3294   -7289978.03446
  23141558.6654   -3222546.28945  -2396758.76361
  20110697.8844   -4071774.62046  -3172810.17663
  22596055.056    -6314074.423 5  -4847063.54321
 91  3 26 23  8 59.9970000  0  6G18G 2G11G16G19G 6
  21563088.8294    5909141.88546   4604509.72061
  20762952.2354  -16174344.60947 -12603341.81362
  21956149.6814   -7289644.14746
  23139880.0874   -3231369.37945  -2403633.93161
  20109675.5794   -4077151.23146  -3176999.75663
  22587068.962    -6361306.269 5  -4883867.48821
 91  3 26 23  9 14.9970000  0  6G18G 2G11G16G19G 6
  21569272.3454    5941629.03446   4629824.28261
  20755409.1734  -16213982.06447 -12634228.07262
  21956240.7044   -7289155.98246  -5679851.23161
  23138223.8604   -3240065.78745  -2410410.38561
  20108664.1494   -4082463.43546  -3181139.13363
  22578078.149    -6408532.790 5  -4920667.25921
 91  3 26 23  9 29.9970000  0  6G18G 2G11G16G19G 6
  21575458.5484    5974145.04046   4655161.34461
  20747872.4314  -16253585.94047 -12665088.16962
  21956354.5954   -7288558.85846  -5679385.94161
  23136586.689    -3248680.702 5  -2417123.36321
  20107656.4154   -4087756.24246  -3185263.41563
  22569082.540    -6455799.085 5  -4957498.02721
 91  3 26 23  9 44.9970000  0  6G18G 2G11G16G19G 6
  21581664.501     6006756.557 6   4680572.81621
  20740354.9624  -16293089.37647 -12695870.00162
  21956501.4784   -7287785.84746  -5678783.59461
  23134969.9234   -3257147.50245  -2423720.93661
  20106665.6654   -4092962.42546  -3189320.18763
  22560097.431    -6503038.306 5  -4994307.73521
 91  3 26 23  9 59.9970000  0  6G18G 2G11G16G19G 6
  21587883.4854    6039437.45946   4706038.36061
  20732851.6574  -16332517.92647 -12726593.48762
  21956678.1654   -7286862.75146  -5678064.30261
  23133383.993    -3265491.980 5  -2430223.17321
  20105685.3844   -4098107.64746  -3193329.45663
  22551109.220    -6550275.990 5  -5031116.22321
 91  3 26 23 10 14.9960000  0  6G18G 2G11G16G19G 6
  21594112.8564    6072169.53046   4731543.77361
  20725359.8874  -16371885.04147 -12757269.09862
  21956879.4884   -7285805.69446  -5677240.62061
  23131816.7074   -3273729.75645  -2436642.25261
  20104716.6064   -4103207.61146  -3197303.46163
  22542114.4654   -6597524.99945  -5067933.53961
 91  3 26 23 10 29.9960000  0  6G18G 2G11G16G19G 6
  21600345.8634    6104938.38446   4757077.85061
  20717876.3164  -16411214.51447 -12787915.37662
  21957106.5984   -7284633.33346  -5676327.09261
  23130267.856    -3281880.659 5  -2442993.64821
  20103754.7934   -4108281.23046  -3201256.92963
  22533117.8094   -6644810.13145  -5104779.00361
 91  3 26 23 10 44.9960000  0  6G18G 2G11G16G19G 6
  21606595.6454    6137769.54646   4782660.48361
  20710403.5274  -16450475.82746 -12818508.53262
  21957352.4414   -7283317.86346  -5675302.04762
  23128739.1604   -3289916.58845  -2449255.46861
  20102797.1134   -4113300.08047  -3205167.72763
  22524120.4884   -6692100.15445  -5141628.28561
 91  3 26 23 10 59.9960000  0  6G18G 2G11G16G19G 6
  21612858.504     6170679.661 6   4808304.61321
  20702948.941   -16489651.975 6 -12849035.32722
  21957631.3244   -7281842.41646  -5674152.35861
  23127233.762    -3297820.430 5  -2455414.33921
  20101856.1064   -4118247.14047  -3209022.58763
  22515123.707    -6739378.382 5  -5178468.38521
 91  3 26 23 11 14.9960000  0  6G18G 2G11G16G19G 6
  21619132.910     6203667.177 6   4834009.07521
  20695510.6604  -16528744.24947 -12879496.77662
  21957942.9654   -7280208.53246  -5672879.20062
  23125754.285    -3305593.526 5  -2461471.35421
  20100927.3714   -4123123.64047  -3212822.46263
  22506124.707    -6786645.892 5  -5215300.13421
 91  3 26 23 11 29.9960000  0  6G18G 2G11G16G19G 6
  21625424.910     6236716.054 6   4859761.33721
  20688083.324   -16567768.575 7 -12909905.26822
  21958284.0904   -7278432.09046  -5671494.96462
  23124295.4184   -3313251.98544  -2467439.04061
  20100011.3714   -4127945.32646  -3216579.62763
  22497132.7464   -6833918.50245  -5252135.84261
 91  3 26 23 11 44.9960000  0  6G18G 2G11G16G19G 6
  21631725.941     6269835.485 6   4885568.57621
  20680673.5594  -16606715.15247 -12940253.17762
  21958650.5824   -7276503.45646  -5669992.13761
  23122865.785    -3320786.555 5  -2473310.16921
  20099104.7624   -4132702.24946  -3220286.32863
  22488135.262    -6881186.490 5  -5288967.95221
 91  3 26 23 11 59.9960000  0  6G18G 2G11G16G19G 6
  21638045.613     6303031.663 6   4911435.62821
  20673277.7384  -16645577.78147 -12970535.68462
  21959043.5124   -7274416.67846  -5668366.06961
  23121451.4344   -3328190.88244  -2479079.84261
  20098217.1134   -4137388.38946  -3223937.87263
  22479145.481    -6928443.669 5  -5325791.66121
 91  3 26 23 12 14.9960000  0  6G18G 2G11G16G19G 6
  21644371.621     6336278.720 6   4937342.30921
  20665893.4884  -16684381.87947 -13000772.57162
  21959470.6764   -7272197.31046  -5666636.69061
  23120063.4814   -3335490.46744  -2484767.88361
  20097328.6524   -4142028.96346  -3227553.91063
  22470147.863    -6975715.559 5  -5362626.82821
 91  3 26 23 12 29.9960000  0  6G18G 2G11G16G19G 6
  21650709.871     6369587.296 6   4963296.92821
  20658521.1524  -16723116.75647 -13030955.52662
  21959916.512    -7269834.714 6  -5664795.72722
  23118700.5594   -3342675.07545  -2490366.34061
  20096455.9024   -4146612.93546  -3231125.84263
  22461152.9024   -7022991.15845  -5399464.89761
 91  3 26 23 12 44.9960000  0  6G18G 2G11G16G19G 6
  21657057.981     6402954.183 6   4989296.99521
  20651164.168   -16761785.145 7 -13061086.67022
  21960395.6844   -7267331.79946  -5662845.40662
  23117351.8014   -3349747.46845  -2495877.32961
  20095594.8484   -4151143.06246  -3234655.81663
  22452155.4574   -7070273.42445  -5436308.16361
 91  3 26 23 12 59.9960000  0  6G18G 2G11G16G19G 6
  21663420.121     6436384.497 6   5015346.49021
  20643820.6214  -16800381.74347 -13091161.87862
  21960898.6134   -7264683.30446  -5660781.64361
  23116029.4264   -3356702.60245  -2501296.98261
  20094746.6134   -4155614.08346  -3238139.73063
  22443156.1454   -7117556.78245  -5473152.23461
 91  3 26 23 13 14.9960000  0  6G18G 2G11G16G19G 6
  21669797.652     6469896.126 6   5041459.34321
  20636491.2074  -16838888.66547 -13121167.21262
  21961433.1604   -7261871.48646  -5658590.63161
  23114733.0434   -3363522.59445  -2506611.30561
  20093908.0664   -4160007.80646  -3241563.42163
  22434165.1914   -7164823.39445  -5509983.31861
 91  3 26 23 13 29.9960000  0  6G18G 2G11G16G19G 6
  21676182.887     6503450.474 6   5067605.47921
  20629174.9414  -16877344.15147 -13151132.45762
  21961993.0664   -7258934.79246  -5656302.29761
  23113450.4264   -3370245.90945  -2511850.33461
  20093079.7464   -4164362.43046  -3244956.63563
  22425165.5204   -7212111.56745  -5546831.18161
 91  3 26 23 13 44.9960000  0  6G18G 2G11G16G19G 6
  21682579.676     6537071.425 6   5093803.51521
  20621870.1844  -16915723.92747 -13181038.71362
  21962580.1454   -7255849.06046  -5653897.82561
  23112193.168    -3376848.476 5  -2516995.26121
  20092260.9104   -4168653.72746  -3248300.51363
  22416164.0904   -7259396.76445  -5583676.72861
 91  3 26 23 13 59.9960000  0  6G18G 2G11G16G19G 6
  21688992.645     6570758.068 6   5120052.73222
  20614582.059   -16954028.495 7 -13210886.35523
  21963195.2774   -7252614.98346  -5651377.77361
  23110957.613    -3383331.040 4  -2522046.66221
  20091460.7074   -4172882.14346  -3251595.38663
  22407165.621    -7306679.756 5  -5620520.53121
 91  3 26 23 14 14.9960000  0  6G18G 2G11G16G19G 6
  21695411.6064    6604506.42146   5146350.03061
  20607305.8164  -16992261.64447 -13240678.34962
  21963838.590    -7249236.356 6  -5648745.09121
  23109753.3484   -3389697.73145  -2527007.76061
  20090664.8484   -4177051.18946  -3254843.99863
  22398170.5434   -7353964.15045  -5657365.45861
 91  3 26 23 14 29.9960000  0  6G18G 2G11G16G19G 6
  21701845.965     6638314.402 6   5172693.79921
  20600042.6684  -17030425.22347 -13270416.13462
  21964507.8484   -7245715.14846  -5646001.29761
  23108558.3244   -3395950.23645  -2531879.93361
  20089884.4494   -4181162.39546  -3258047.53763
  22389171.184    -7401251.564 5  -5694212.70221
 91  3 26 23 14 44.9960000  0  6G18G 2G11G16G19G 6
  21708294.168     6672195.628 6   5199094.64321
  20592796.9494  -17068505.50547 -13300089.02462
  21965208.0984   -7242037.95946  -5643135.96961
  23107395.2154   -3402074.94245  -2536652.50861
  20089114.1294   -4185202.15246  -3261195.40163
  22380173.426    -7448528.414 5  -5731051.75021
 91  3 26 23 14 59.9960000  0  6G18G 2G11G16G19G 6
  21714754.8714    6706143.65646   5225547.53061
  20585566.3634  -17106508.66747 -13329701.81862
  21965937.1214   -7238210.93446  -5640153.87461
  23106254.9414   -3408078.41144  -2541330.59061
  20088359.3244   -4189176.59046  -3264292.36263
  22371180.348    -7495800.900 5  -5767887.37121
 91  3 26 23 15 14.9960000  0  6G18G 2G11G16G19G 6
  21721227.7704    6740158.93846   5252052.82361
  20578347.9654  -17144433.94947 -13359253.92762
  21966694.043    -7234233.560 6  -5637054.64021
  23105130.9884   -3413959.92945  -2545913.66861
  20087612.9344   -4193084.68046  -3267337.62763
  22362185.9814   -7543068.11245  -5804718.89761
 91  3 26 23 15 29.9960000  0  6G18G 2G11G16G19G 6
  21727713.621     6774248.506 6   5278616.01421
  20571147.2934  -17182274.16947 -13388739.76062
  21967479.0044   -7230098.77146  -5633832.72261
  23104036.3484   -3419712.50745  -2550396.26661
  20086882.7234   -4196919.22146  -3270325.58663
  22353192.3094   -7590322.87945  -5841540.73061
 91  3 26 23 15 44.9960000  0  6G18G 2G11G16G19G 6
  21734211.652     6808400.862 6   5305228.12622
  20563960.8014  -17220040.19547 -13418167.76562
  21968294.2854   -7225817.55946  -5630496.72361
  23102965.856    -3425347.242 5  -2554787.03921
  20086164.4964   -4200690.96146  -3273264.60763
  22344198.504    -7637576.011 5  -5878361.27721
 91  3 26 23 15 59.9960000  0  6G18G 2G11G16G19G 6
  21740722.5904    6842604.33946   5331880.07161
  20556785.691   -17257743.500 7 -13447546.90522
  21969135.199    -7221401.566 6  -5627055.70721
  23101918.2154   -3430875.97145  -2559095.18861
  20085461.3324   -4204411.30746  -3276163.58263
  22335206.488    -7684839.008 5  -5915189.50821
 91  3 26 23 16 14.9960000  0  6G18G 2G11G16G19G 6
  21747243.246     6876872.039 6   5358582.05821
  20549625.4734  -17295370.93247 -13476866.92762
  21970003.5044   -7216837.66346  -5623499.42161
  23100886.7934   -3436285.27845  -2563310.30161
  20084762.2074   -4208066.86146  -3279012.07163
  22326214.191    -7732098.590 5  -5952015.08021
 91  3 26 23 16 29.9960000  0  6G18G 2G11G16G19G 6
  21753774.715     6911203.297 6   5385333.57722
  20542481.027   -17332922.929 7 -13506128.16022
  21970898.629    -7212126.681 6  -5619828.54121
  23099879.520    -3441576.358 5  -2567433.32421
  20084082.3794   -4211658.05846  -3281810.40863
  22317220.473    -7779355.022 5  -5988838.19421
 91  3 26 23 16 44.9960000  0  6G18G 2G11G16G19G 6
  21760322.441     6945593.292 6   5412130.86422
  20535348.106   -17370403.695 7 -13535333.90622
  21971823.1294   -7207273.04846  -5616046.49061
  23098894.2234   -3446753.28445  -2571467.37161
  20083406.9654   -4215189.23046  -3284561.96463
  22308225.496    -7826612.903 5  -6025662.43321
 91  3 26 23 16 59.9960000  0  6G18G 2G11G16G19G 6
  21766877.074     6980038.324 6   5438971.02822
  20528227.7624  -17407816.98547 -13564487.05762
  21972774.1294   -7202280.53446  -5612156.22761
  23097929.4734   -3451820.12445  -2575415.63861
  20082746.3404   -4218663.71846  -3287269.35663
  22299234.6064   -7873875.60845  -6062490.42561
 91  3 26 23 17 14.9960000  0  6G18G 2G11G16G19G 6
  21773440.5744    7014536.98646   5465852.98661
  20521121.223   -17445164.195 7 -13593588.73522
  21973751.1994   -7197150.41246  -5608158.73461
  23096985.574    -3456778.398 5  -2579279.27621
  20082094.8244   -4222082.55146  -3289933.37963
  22290237.691    -7921144.360 5  -6099323.12721
 91  3 26 23 17 29.9960000  0  6G18G 2G11G16G19G 6
  21780014.9734    7049087.19346   5492775.10662
  20514025.8794  -17482446.84947 -13622640.09462
  21974750.5824   -7191884.54346  -5604055.45961
  23096064.7154   -3461629.70245  -2583059.57561
  20081456.4574   -4225447.41946  -3292555.35363
  22281241.7854   -7968420.83345  -6136161.85961
 91  3 26 23 17 44.9960000  0  6G18G 2G11G16G19G 6
  21786604.293     7083712.053 6   5519755.40321
  20506947.8564  -17519641.39147 -13651622.79562
  21975784.652    -7186459.579 6  -5599828.22721
  23095165.293    -3466350.863 4  -2586738.47121
  20080829.0124   -4228734.74846  -3295116.90663
  22272249.0904   -8015681.45745  -6172988.23861
 91  3 26 23 17 59.9960000  0  6G18G 2G11G16G19G 6
  21793204.0904    7118388.02046   5546775.51661
  20499883.457   -17556771.150 7 -13680555.02322
  21976842.488    -7180899.017 6  -5595495.33221
  23094286.152    -3470965.061 4  -2590334.07021
  20080215.1914   -4231967.69046  -3297636.08363
  22263254.2544   -8062949.44145  -6209820.32861
 91  3 26 23 18 14.9960000  0  6G18G 2G11G16G19G 6
  21799814.3954    7153124.58046   5573842.84461
  20492832.184   -17593826.397 7 -13709429.19022
  21977928.8404   -7175193.29846  -5591049.32561
  23093431.215    -3475463.150 4  -2593839.05221
  20079611.3094   -4235136.55546  -3300105.33263
  22254259.5744   -8110215.20845  -6246650.71161
 91  3 26 23 18 29.9960000  0  6G18G 2G11G16G19G 6
  21806434.934     7187921.688 6   5600957.35721
  20485794.191   -17630807.258 7 -13738245.39322
  21979043.0274   -7169342.56346  -5586490.31461
  23092595.082    -3479845.174 3  -2597253.70821
  20079021.0904   -4238241.11146  -3302524.46863
  22245264.2774   -8157478.39345  -6283479.07361
 91  3 26 23 18 44.9960000  0  6G18G 2G11G16G19G 6
  21813067.0204    7222775.10446   5628115.74861
  20478770.059   -17667717.648 7 -13767006.68222
  21980184.2544   -7163350.95746  -5581821.53061
  23091782.8094   -3484115.41144  -2600581.21861
  20078440.9964   -4241285.18446  -3304896.47263
  22236270.9964   -8204743.13645  -6320308.63761
 91  3 26 23 18 59.9960000  0  6G18G 2G11G16G19G 6
  21819709.3484    7257669.97246   5655306.43861
  20471755.981   -17704572.111 7 -13795724.39322
  21981345.7234   -7157233.14346  -5577054.40261
  23090990.5204   -3488288.45544  -2603833.04361
  20077870.6914   -4244283.15646  -3307232.55863
  22227274.5664   -8252023.82145  -6357150.63561
 91  3 26 23 19 14.9960000  0  6G18G 2G11G16G19G 6
  21826358.9734    7292630.61646   5682548.37761
  20464759.020   -17741345.864 7 -13824379.21422
  21982539.8094   -7150964.65046  -5572169.87661
  23090215.0594   -3492339.85343  -2606990.07661
  20077313.6134   -4247210.26246  -3309513.42463
  22218275.379    -8299295.772 5  -6393985.80221
 91  3 26 23 19 29.9960000  0  6G18G 2G11G16G19G 6
  21833025.5984    7327656.86646   5709841.44161
  20457776.902   -17778039.087 7 -13852971.28322
  21983762.8244   -7144545.72546  -5567168.10861
  23089471.7544   -3496269.71344  -2610052.36261
  20076770.9734   -4250066.41446  -3311738.99663
  22209284.832    -8346558.989 5  -6430814.19921
 91  3 26 23 19 44.9960000  0  6G18G 2G11G16G19G 6
  21839704.0044    7362746.34146   5737183.77161
  20450808.871   -17814653.710 7 -13881502.10122
  21985011.7854   -7137978.41746  -5562050.73461
  23088745.707    -3500080.334 4  -2613021.69521
  20076240.4414   -4252853.61146  -3313910.84263
  22200288.7854   -8393815.34445  -6467637.23661
 91  3 26 23 19 59.9960000  0  6G18G 2G11G16G19G 6
  21846391.8564    7397889.93746   5764568.26861
  20443854.895   -17851198.562 7 -13909978.55823
  21986287.0514   -7131271.74646  -5556824.75861
  23088041.7544   -3503780.82543  -2615905.26961
  20075721.3094   -4255580.49846  -3316035.69863
  22191298.2384   -8441073.72245  -6504461.85761
 91  3 26 23 20 14.9960000  0  6G18G 2G11G16G19G 6
  21853087.4104    7433079.96546   5791988.95061
  20436911.7544  -17887680.95747 -13938406.34462
  21987587.3014   -7124433.26146  -5551496.08161
  23087359.5274   -3507378.70743  -2618708.84661
  20075211.7074   -4258254.48546  -3318119.31363
  22182303.098    -8488341.372 5  -6541293.69221
 91  3 26 23 20 29.9960000  0  6G18G 2G11G16G19G 6
  21859791.1844    7468303.82446   5819435.99661
  20429979.676   -17924113.194 7 -13966795.04223
  21988911.8324   -7117475.31946  -5546074.32861
  23086692.856    -3510886.482 4  -2621442.24021
  20074715.8484   -4260887.56046  -3320171.05663
  22173303.215    -8535630.582 5  -6578142.31521
 91  3 26 23 20 44.9960000  0  6G18G 2G11G16G19G 6
  21866507.3014    7503600.62546   5846939.86761
  20423062.918   -17960456.098 7 -13995114.13923
  21990265.0274   -7110358.89246  -5540529.07761
  23086049.613    -3514264.908 3  -2624074.87221
  20074224.6604   -4263440.31346  -3322160.21363
  22164306.1374   -8582901.83545  -6614976.97061
 91  3 26 23 20 59.9960000  0  6G18G 2G11G16G19G 6
  21873239.8564    7538981.24546   5874509.05761
  20416166.6994  -17996698.56647 -14023354.96463
  21991653.348    -7103073.120 6  -5534851.85921
  23085427.4494   -3517502.96543  -2626598.09661
  20073758.5744   -4265901.62146  -3324078.11163
  22155319.2154   -8630144.16345  -6651789.05361
 91  3 26 23 21 14.9960000  0  6G18G 2G11G16G19G 6
  21879980.7384    7574412.74846   5902117.90861
  20409281.871   -18032873.650 7 -14051543.29222
  21993062.7934   -7095651.09646  -5529068.48161
  23084835.9184   -3520634.19243  -2629038.12661
  20073299.8874   -4268304.27346  -3325950.30663
  22146327.1844   -8677390.33545  -6688604.16861
 91  3 26 23 21 29.9960000  0  6G18G 2G11G16G19G 6
  21886731.6914    7609875.76646   5929751.30161
  20402407.582   -18068999.933 7 -14079693.59422
  21994500.2934   -7088111.60046  -5523193.55061
  23084256.8874   -3523677.43343  -2631409.54761
  20072850.3564   -4270666.79246  -3327791.23663
  22137335.2464   -8724658.97345  -6725436.78361
 91  3 26 23 21 44.9960000  0  6G18G 2G11G16G19G 6
  21893492.4814    7645404.02346   5957435.53761
  20395548.9494  -18105043.60247 -14107779.53062
  21995963.3014   -7080420.89446  -5517200.79761
  23083699.121    -3526598.778 3  -2633685.99821
  20072414.9264   -4272955.18846  -3329574.41163
  22128341.645    -8771916.162 5  -6762260.46421
 91  3 26 23 21 59.9960000  0  6G18G 2G11G16G19G 6
  21900259.152     7680968.208 6   5985147.75721
  20388700.566   -18141033.836 7 -14135823.81322
  21997449.6134   -7072608.47346  -5511113.20661
  23083159.2154   -3529427.73243  -2635890.46261
  20071987.8954   -4275198.63946  -3331322.56063
  22119345.7624   -8819191.10045  -6799097.98561
 91  3 26 23 22 14.9960000  0  6G18G 2G11G16G19G 6
  21907036.9024    7716587.34346   6012902.80461
  20381865.285   -18176951.261 7 -14163811.37022
  21998962.7854   -7064655.25946  -5504915.89861
  23082642.6134   -3532145.08643  -2638008.01361
  20071572.4104   -4277377.80046  -3333020.61263
  22110348.9184   -8866464.51945  -6835934.32161
 91  3 26 23 22 29.9960000  0  6G18G 2G11G16G19G 6
  21913829.4344    7752275.20946   6040711.40761
  20375046.129   -18212781.735 7 -14191731.17322
  22000505.1294   -7056547.19946  -5498597.94261
  23082149.6684   -3534736.98343  -2640027.71961
  20071174.441    -4279478.237 6  -3334657.32723
  22101353.254    -8913721.954 5  -6872758.20321
 91  3 26 23 22 44.9960000  0  6G18G 2G11G16G19G 6
  21920626.8484    7788003.26846   6068551.32761
  20368240.551   -18248553.594 7 -14219605.30022
  22002074.6914   -7048312.70146  -5492181.45861
  23081678.2624   -3537232.12043  -2641972.05161
  20070783.332    -4281528.097 6  -3336254.62723
  22092361.043    -8960991.779 5  -6909591.74121
 91  3 26 23 22 59.9960000  0  5G18G 2G11G19G 6
  21927437.668     7823801.300 6   6096445.76821
  20361449.731   -18284236.590 7 -14247410.18522
  22003667.8164   -7039921.82846  -5485643.12361
  20070412.6454   -4283497.16146  -3337788.96763
  22083368.9264   -9008243.72245  -6946411.34461
 91  3 26 23 23 14.9960000  0  5G18G 2G11G19G 6
  21934260.8484    7859645.82846   6124376.44061
  20354672.465   -18319854.133 7 -14275164.06222
  22005289.1764   -7031398.09746  -5479001.25961
  20070046.5824   -4285408.64746  -3339278.44263
  22074375.027    -9055501.146 5  -6983235.21621
 91  3 26 23 23 29.9960000  0  5G18G 2G11G19G 6
  21941094.6454    7895548.71346   6152352.59061
  20347909.981   -18355394.132 7 -14302857.52222
  22006942.551    -7022729.632 6  -5472246.64021
  20069694.6994   -4287250.26346  -3340713.47263
  22065382.5044   -9102751.87145  -7020053.85761
 91  3 26 23 23 44.9960000  0  5G18G 2G11G19G 6
  21947934.3014    7931497.79746   6180364.72861
  20341157.691   -18390868.592 7 -14330499.91222
  22008615.7384   -7013928.51846  -5465388.63561
  20069355.3094   -4289033.90246  -3342103.32963
  22056391.504    -9150007.659 5  -7056876.47321
 91  3 26 23 23 59.9960000  0  5G18G 2G11G19G 6
  21954785.410     7967500.444 6   6208418.61521
  20334421.496   -18426269.965 7 -14358085.34522
  22010317.449    -7004987.230 6  -5458421.40221
  20069032.2154   -4290751.96246  -3343442.07963
  22047399.5514   -9197260.82445  -7093697.05061
 91  3 26 23 24 14.9960000  0  5G18G 2G11G19G 6
  21961649.621     8003571.169 6   6236525.53521
  20327700.402   -18461583.465 7 -14385602.30922
  22012047.8714   -6995891.30746  -5451333.68361
  20068716.6064   -4292389.73046  -3344718.26263
  22038409.8094   -9244496.62645  -7130504.08361
 91  3 26 23 24 29.9960000  0  5G18G 2G11G19G 6
  21968524.840     8039692.798 6   6264672.12821
  20320994.574   -18496825.930 7 -14413063.92222
  22013806.293    -6986657.833 6  -5444138.78621
  20068420.7774   -4293963.66746  -3345944.70863
  22029420.652    -9291731.734 5  -7167310.55721
 91  3 26 23 24 44.9960000  0  5G18G 2G11G19G 6
  21975405.2314    8075856.25346   6292851.31861
  20314300.332   -18532005.909 7 -14440476.85022
  22015584.9964   -6977295.71646  -5436843.63761
  20068128.7234   -4295482.38146  -3347128.12563
  22020431.754    -9338974.861 5  -7204123.30221
 91  3 26 23 24 59.9960000  0  5G18G 2G11G19G 6
  21982301.863     8112087.906 6   6321083.64721
  20307622.332   -18567096.888 7 -14467820.42622
  22017398.043    -6967778.477 6  -5429427.62321
  20067854.5824   -4296919.14546  -3348247.68263
  22011445.4734   -9386199.29545  -7240921.46861
 91  3 26 23 25 14.9960000  0  5G18G 2G11G19G 6
  21989206.4574    8148382.25446   6349364.81861
  20300960.535   -18602104.194 7 -14495098.79822
  22019237.0514   -6958111.49946  -5421894.91861
  20067594.0514   -4298279.12546  -3349307.41563
  22002463.566    -9433410.266 6  -7277709.15421
 91  3 26 23 25 29.9960000  0  5G18G 2G11G19G 6
  21996122.473     8184722.933 6   6377682.10121
  20294311.426   -18637044.031 7 -14522324.59923
  22021100.6214   -6948311.20646  -5414258.33761
  20067350.6604   -4299578.46146  -3350319.88563
  21993477.0514   -9480623.99446  -7314499.00461
 91  3 26 23 25 44.9960000  0  5G18G 2G11G19G 6
  22003047.7774    8221115.34446   6406039.69161
  20287677.184   -18671910.760 7 -14549493.42723
  22022992.410    -6938372.136 6  -5406513.61121
  20067114.8794   -4300811.33846  -3351280.58263
  21984495.723    -9527834.651 6  -7351286.44721
 91  3 26 23 25 59.9960000  0  5G18G 2G11G19G 6
  22009985.8324    8257569.29546   6434445.24061
  20281056.270   -18706694.146 7 -14576597.31723
  22024912.613    -6928284.322 6  -5398652.99221
  20066894.6374   -4301967.49346  -3352181.48863
  21975513.309    -9575032.005 6  -7388063.52821
 91  3 26 23 26 14.9960000  0  5G18G 2G11G19G 6
  22016932.559     8294077.533 6   6462893.07221
  20274453.402   -18741401.167 7 -14603641.69323
  22026860.738    -6918054.834 6  -5390681.96821
  20066688.0984   -4303053.72746  -3353027.90963
  21966530.0124   -9622222.85245  -7424835.53661
 91  3 26 23 26 29.9960000  0  5G18G 2G11G19G 6
  22023888.2854    8330637.88145   6491381.53661
  20267862.191   -18776033.836 7 -14630628.14523
  22028831.7074   -6907685.97746  -5382602.35461
  20066497.7234   -4304071.99346  -3353821.36463
  21957551.840    -9669409.159 6  -7461604.00821
 91  3 26 23 26 44.9960000  0  5G18G 2G11G19G 6
  22030852.840     8367230.887 5   6519895.41521
  20261283.770   -18810611.441 7 -14657571.68723
  22030830.3634   -6897197.32946  -5374429.39361
  20066309.6684   -4305041.38446  -3354576.74063
  21948569.637    -9716610.238 5  -7498383.99721
 91  3 26 23 26 59.9960000  0  5G18G 2G11G19G 6
  22037827.684     8403872.176 5   6548446.93521
  20254716.246   -18845118.277 7 -14684460.07722
  22032853.106    -6886572.959 6  -5366150.67521
  20066136.652    -4305945.865 6  -3355281.54023
  21939589.441    -9763809.975 6  -7535162.92721
 91  3 26 23 27 14.9960000  0  5G18G 2G11G19G 6
  22044808.5984    8440565.42645   6577038.93661
  20248164.332   -18879550.298 7 -14711290.17822
  22034900.0984   -6875809.10746  -5357763.27161
  20065978.527    -4306781.432 6  -3355932.64323
  21930607.348    -9811004.387 6  -7571937.70121
 91  3 26 23 27 29.9960000  0  5G18G 2G11G19G 6
  22051797.8484    8477304.71445   6605666.80961
  20241625.981   -18913913.046 7 -14738066.29923
  22036972.9884   -6864911.66146  -5349271.76261
  20065831.652    -4307553.463 6  -3356534.23523
  21921623.3244   -9858198.95245  -7608712.62961
 91  3 26 23 27 44.9960000  0  5G18G 2G11G19G 6
  22058802.4654    8514095.07745   6634334.47261
  20235100.449   -18948201.146 7 -14764784.24622
  22039073.4264   -6853875.42246  -5340672.10061
  20065695.379    -4308256.591 6  -3357082.13923
  21912647.6454   -9905388.21346  -7645483.40561
 91  3 26 23 27 59.9960000  0  5G18G 2G11G19G 6
  22065815.7934    8550948.81445   6663051.53961
  20228592.566   -18982402.072 7 -14791434.26322
  22041201.3484   -6842687.98146  -5331954.62261
  20065580.527    -4308877.975 6  -3357566.34523
  21903669.301    -9952559.529 6  -7682240.19021
 91  3 26 23 28 14.9960000  0  5G18G 2G11G19G 6
  22072833.4344    8587826.48945   6691787.22661
  20222094.316   -19016555.127 7 -14818046.98123
  22043349.363    -6831388.827 6  -5323150.07021
  20065468.770    -4309456.975 6  -3358017.52623
  21894688.9344   -9999752.14245  -7719013.57761
 91  3 26 23 28 29.9960000  0  5G18G 2G11G19G 6
  22079862.652     8624786.096 5   6720586.76821
  20215613.301   -19050601.936 7 -14844576.91023
  22045537.145    -6819919.799 6  -5314213.19321
  20065379.020    -4309935.058 6  -3358390.07523
  21885714.8634  -10046907.63046  -7755758.05761
 91  3 26 23 28 44.9960000  0  5G18G 2G11G19G 6
  22086905.621     8661783.936 5   6749416.10821
  20209147.996   -19084585.995 7 -14871057.94322
  22047739.9964   -6808324.71246  -5305178.06161
  20065297.715    -4310355.608 6  -3358717.79123
  21876740.4024  -10094069.40246  -7792507.42161
 91  3 26 23 28 59.9960000  0  5G18G 2G11G19G 6
  22093950.7384    8698810.23645   6778267.62361
  20202691.168   -19118516.899 7 -14897497.55323
  22049969.668    -6796613.317 6  -5296052.31521
  20065229.285    -4310727.979 6  -3359007.96223
  21867765.395   -10141246.817 6  -7829268.96521
 91  3 26 23 29 14.9960000  0  5G18G 2G11G19G 6
  22101001.559     8735867.679 5   6807143.42521
  20196244.152   -19152391.586 7 -14923893.36423
  22052220.684    -6784782.885 6  -5286833.81921
  20065165.527    -4311049.262 6  -3359258.32823
  21858784.707   -10188437.014 6  -7866040.47121
 91  3 26 23 29 29.9960000  0  5G18G 2G11G19G 6
  22108064.535     8772976.507 5   6836059.22821
  20189813.387   -19186189.629 7 -14950229.45122
  22054500.106    -6772813.044 6  -5277506.69421
  20065119.3324   -4311298.82646  -3359452.80363
  21849806.3404  -10235619.24246  -7902805.77461
 91  3 26 23 29 44.9960000  0  5G18G 2G11G19G 6
  22115135.9104    8810130.49645   6865010.23461
  20183396.035   -19219917.096 7 -14976510.55423
  22056800.191    -6760710.001 6  -5268075.76521
  20065084.879    -4311482.395 6  -3359595.86123
  21840825.2074  -10282799.53446  -7939569.58261
 91  3 26 23 29 59.9960000  0  5G18G 2G11G19G 6
  22122216.7464    8847346.73445   6894009.73061
  20176992.910   -19253556.498 7 -15002723.03223
  22059133.348    -6748456.440 6  -5258527.55821
  20065064.816    -4311582.262 6
  21831850.6684  -10329960.14546  -7976318.05561
 91  3 26 23 30 14.9960000  0  5G18G 2G11G19G 6
  22129308.4814    8884615.98145   6923050.55161
  20170607.254   -19287116.814 7 -15028873.87023
  22061493.6214   -6736061.60046  -5248869.26261
  20065060.324    -4311607.470 6
  21822879.2624  -10377110.05646  -8013058.18361
 91  3 26 23 30 29.9960000  0  5G18G 2G11G19G 6
  22136407.5744    8921913.59645   6952113.46461
  20164231.316   -19320622.623 7 -15054982.24723
  22063871.9414   -6723550.24346  -5239120.17761
  20065064.223    -4311582.506 6
  21813905.2234  -10424273.79446  -8049809.08061
 91  3 26 23 30 44.9960000  0  5G18G 2G11G19G 6
  22143516.566     8959254.170 5   6981209.91121
  20157868.5274  -19354059.22447 -15081036.68963
  22066280.582    -6710907.729 6  -5229268.87621
  20065083.434    -4311492.479 6
  21804933.8874  -10471436.29446  -8086559.01661
 91  3 26 23 30 59.9960000  0  5G18G 2G11G19G 6
  22150636.9734    8996678.86645   7010371.82561
  20151526.918   -19387384.852 7 -15107004.65823
  22068712.527    -6698092.741 6  -5219283.19321
  20065120.449    -4311295.503 6
  21795968.0514  -10518555.96846  -8123275.57761
 91  3 26 23 31 14.9960000  0  5G18G 2G11G19G 6
  22157763.871     9034130.283 4   7039554.60021
  20145194.926   -19420656.648 7 -15132930.68323
  22071180.9734   -6685162.65046  -5209207.81861
  20065165.512    -4311048.769 6
  21786993.988   -10565689.861 6  -8160003.23421
 91  3 26 23 31 29.9960000  0  5G18G 2G11G19G 6
  22164900.754     9071638.808 4   7068781.85321
  20138879.816   -19453843.809 7 -15158790.76323
  22073666.9494   -6672086.99046  -5199019.01261
  20065228.676    -4310721.336 6  -3359002.93523
  21778027.1764  -10612807.19846  -8196717.98361
 91  3 26 23 31 44.9960000  0  5G18G 2G11G19G 6
  22172041.324     9109158.442 4   7098017.73721
  20132570.988   -19486992.462 7 -15184620.83423
  22076171.9414   -6658911.82746  -5188752.66461
  20065297.3954   -4310359.06446  -3358720.65963
  21769056.5044  -10659953.80446  -8233455.52861
 91  3 26 23 31 59.9960000  0  5G18G 2G11G19G 6
  22179191.856     9146741.961 4
  20126280.262   -19520049.561 7 -15210379.56523
  22078709.1454   -6645584.24846  -5178367.58261
  20065385.449    -4309908.748 6  -3358369.77323
  21760088.7234  -10707076.58446  -8270174.51661
 91  3 26 23 32 14.9960000  0  5G18G 2G11G19G 6
  22186347.3484    9184354.85243
  20120000.824   -19553048.936 7 -15236093.31523
  22081270.457    -6632138.437 6  -5167890.33821
  20065479.832    -4309404.288 6  -3357976.70123
  21751119.9414  -10754209.33346  -8306901.24561
 91  3 26 23 32 29.9960000  0  5G18G 2G11G19G 6
  22193510.9884    9222010.23443
  20113734.590   -19585977.461 7 -15261751.85923
  22083850.191    -6618561.556 6  -5157310.98621
  20065588.715    -4308832.209 6  -3357530.94323
  21742151.582   -10801338.694 6  -8343625.35921
 91  3 26 23 32 44.9960000  0  5G18G 2G11G19G 6
  22200691.356     9259705.921 3        -0.17331
  20107481.871   -19618837.484 7 -15287357.01923
  22086461.551    -6604855.969 6  -5146631.32221
  20065710.0204   -4308194.61946  -3357034.12763
  21733182.160   -10848466.770 6  -8380348.46121
 91  3 26 23 32 59.9960000  0  5G18G 2G11G19G 6
  22207868.4964    9297433.23343     29397.55961
  20101239.3714  -19651637.38147 -15312915.34163
  22089093.1374   -6591030.22046  -5135858.04261
  20065844.2384   -4307499.99246  -3356492.86963
  21724210.9494  -10895601.89846  -8417077.07661
 91  3 26 23 33 14.9960000  0  5G18G 2G11G19G 6
  22215057.5204    9335201.25943     58827.00761
  20095012.316   -19684367.698 7 -15338419.43623
  22091747.1914   -6577075.02146  -5124983.89261
  20065985.1294   -4306738.66146  -3355899.62163
  21715244.0664  -10942734.56246  -8453803.76061
 91  3 26 23 33 29.9960000  0  5G18G 2G11G19G 6
  22222253.5044    9373018.10043     88294.49861
  20088799.4734  -19717019.95247 -15363862.71363
  22094428.785    -6562982.289 6  -5114002.55121
  20066145.832    -4305901.976 6  -3355247.67223
  21706278.8714  -10989856.18646  -8490521.84261
 91  3 26 23 33 44.9960000  0  5G18G 2G11G19G 6
  22229455.676     9410876.441 2    117794.31221
  20082598.285   -19749601.020 7 -15389250.51823
  22097135.215    -6548759.001 6  -5102919.50821
  20066319.2774   -4304996.81146  -3354542.35663
  21697309.7624  -11036973.49046  -8527236.55361
 91  3 26 23 33 59.9960000  0  5G18G 2G11G19G 6
  22236662.6134    9448784.93242    147333.24061
  20076413.496   -19782102.286 7 -15414576.13823
  22099868.1764   -6534396.81946  -5091728.22461
  20066504.4264   -4304014.22246  -3353776.71362
  21688346.395   -11084077.867 6  -8563941.19421
 91  3 26 23 34 14.9960000  0  5G18G 2G11G19G 6
  22243889.356     9486738.554 2
  20070242.590   -19814528.335 7 -15439843.13723
  22102624.2074   -6519900.51446  -5080432.41561
  20066705.0044   -4302958.69746  -3352954.23162
  21679383.8484  -11131173.59146  -8600639.07161
 91  3 26 23 34 29.9960000  0  5G18G 2G11G19G 6
  22251121.402     9524739.846 2
  20064086.520   -19846876.538 7 -15465049.48323
  22105411.1294   -6505267.68346  -5069030.25261
  20066920.7934   -4301827.74046  -3352072.97563
  21670426.2384  -11178258.08446  -8637328.20861
 91  3 26 23 34 44.9960000  0  5G18G 2G11G19G 6
  22258361.098     9562778.139 2
  20057943.356   -19879157.462 7 -15490203.40223
  22108218.598    -6490509.172 6  -5057530.12521
  20067148.4654   -4300631.79046  -3351141.06562
  21661469.3794  -11225341.73346  -8674016.70861
 91  3 26 23 34 59.9960000  0  5G18G 2G11G19G 6
  22265608.551     9600854.690 2
  20051814.668   -19911369.482 7 -15515303.63123
  22111053.824    -6475623.444 6  -5045930.88421
  20067390.9814   -4299368.91246  -3350157.00363
  21652507.9884  -11272422.70246  -8710703.10961
 91  3 26 23 35 14.9950000  0  5G18G 2G11G19G 6
  22272862.569     9638981.234 2
  20045701.226   -19943495.886 7 -15540337.14423
  22113909.8584   -6460597.25746  -5034222.19861
  20067644.7184   -4298024.50146  -3349109.41663
  21643551.1554  -11319483.28946  -8747373.61761
 91  3 26 23 35 29.9950000  0  4G 2G11G19G 6
  20039599.812   -19975555.422 7 -15565318.56323
  22116797.085    -6445443.116 6  -5022413.79521
  20067916.6014   -4296612.50146  -3348009.16162
  21634598.069   -11366543.944 6  -8784044.17821
 91  3 26 23 35 44.9950000  0  4G 2G11G19G 6
  20033510.5694  -20007550.55247 -15590249.79463
  22119700.8584   -6430166.91046  -5010510.29361
  20068192.937    -4295137.686 6  -3346859.96923
  21625640.374   -11413606.172 6  -8820715.96521
 91  3 26 23 35 59.9950000  0  4G 2G11G19G 6
  20027435.132   -20039474.958 7 -15615125.91223
  22122635.8744   -6414762.63246  -4998506.98461
  20068487.3584   -4293593.57846  -3345656.77663
  21616686.023   -11460663.408 6  -8857383.85721
 91  3 26 23 36 14.9950000  0  4G 2G11G19G 6
  20021374.874   -20071327.187 7 -15639945.78123
  22125588.757    -6399229.080 6  -4986402.93921
  20068794.0304   -4291978.72146  -3344398.45663
  21607732.093   -11507714.294 6  -8894046.81021
 91  3 26 23 36 29.9950000  0  4G 2G11G19G 6
  20015327.796   -20103105.788 7 -15664708.28623
  22128572.351    -6383564.853 6  -4974197.06921
  20069120.5464   -4290291.43046  -3343083.68963
  21598780.1794  -11554757.12946  -8930703.47761
 91  3 26 23 36 44.9950000  0  4G 2G11G19G 6
  20009291.819   -20134820.861 7 -15689421.28823
  22131574.140    -6367780.401 6  -4961897.51421
  20069451.0234   -4288541.77446  -3341720.32963
  21589824.7184  -11601801.92046  -8967361.65461
 91  3 26 23 36 59.9950000  0  4G 2G11G19G 6
  20003270.421   -20166466.664 7 -15714080.31623
  22134602.1084   -6351870.09446  -4949499.90261
  20069799.3514   -4286723.94346  -3340303.84163
  21580877.4604  -11648842.77146  -9004016.77661
 91  3 26 23 37 14.9950000  0  4G 2G11G19G 6
  19997262.3194  -20198035.96247 -15738679.72563
  22137656.0304   -6335826.94046  -4936998.76261
  20070155.796    -4284830.594 6  -3338828.50823
  21571928.0304  -11695872.28746  -9040663.06661
 91  3 26 23 37 29.9950000  0  4G 2G11G19G 6
  19991269.6404  -20229530.94847 -15763221.24163
  22140735.1484   -6319653.36846  -4924396.00461
  20070530.1244   -4282863.50446  -3337295.72063
  21562979.0074  -11742892.62746  -9077302.19361
 91  3 26 23 37 44.9950000  0  4G 2G11G19G 6
  19985289.0304  -20260951.53147 -15787704.77663
  22143835.788    -6303349.572 6  -4911691.76721
  20070919.046    -4280822.592 6  -3335705.41123
  21554033.382   -11789903.429 6  -9113933.90321
 91  3 26 23 37 59.9950000  0  4G 2G11G19G 6
  19979326.983   -20292292.866 7 -15812126.55223
  22146964.718    -6286910.907 6  -4898882.44121
  20071323.9604   -4278702.89346  -3334053.70663
  21545090.2264  -11836899.83246  -9150554.40361
 91  3 26 23 38 14.9950000  0  4G 2G11G19G 6
  19973374.5234  -20323574.56647 -15836501.87263
  22150115.4054   -6270357.25546  -4885983.50561
  20071734.976    -4276523.899 6  -3332355.80023
  21536145.6484  -11883901.28046  -9187178.82961
 91  3 26 23 38 29.9950000  0  4G 2G11G19G 6
  19967432.7574  -20354795.19247 -15860829.59763
  22153283.0544   -6253687.40746  -4872994.04261
  20072164.9444   -4274284.18446  -3330610.57763
  21527201.093   -11930906.358 6  -9223806.08921
 91  3 26 23 38 44.9950000  0  4G 2G11G19G 6
  19961506.5384  -20385941.55247 -15885099.45463
  22156483.819    -6236888.244 6  -4859903.81121
  20072602.2494   -4271970.17746  -3328807.46063
  21518255.898   -11977901.597 6  -9260425.67321
 91  3 26 23 38 59.9950000  0  4G 2G11G19G 6
  19955593.1714  -20417012.73447 -15909310.73163
  22159701.187    -6219958.991 6  -4846712.19321
  20073060.2024   -4269580.77846  -3326945.58963
  21509317.4994  -12024885.76446  -9297036.64961
 91  3 26 23 39 14.9950000  0  4G 2G11G19G 6
  19949693.7414  -20448015.79047 -15933468.92663
  22162950.554    -6202907.067 6  -4833425.01921
  20073525.3354   -4267123.09546  -3325030.52263
  21500378.726   -12071866.020 6  -9333644.55221
 91  3 26 23 39 29.9950000  0  4G 2G11G19G 6
  19943807.2804  -20478946.69047 -15957570.89263
  22166219.499    -6185728.822 6  -4820039.38221
  20074008.7264   -4264593.08146  -3323059.08863
  21491437.7104  -12118838.11546  -9370246.11361
 91  3 26 23 39 44.9950000  0  4G 2G11G19G 6
  19937935.0934  -20509803.92847 -15981615.46263
  22169508.819    -6168423.004 6  -4806554.36421
  20074499.8744   -4261989.18246  -3321030.08363
  21482500.507   -12165800.677 6  -9406840.23921
 91  3 26 23 39 59.9950000  0  4G 2G11G19G 6
  19932077.1014  -20540595.90047 -16005609.17263
  22172828.249    -6150997.966 6  -4792976.42821
  20075012.3044   -4259319.41346  -3318949.74763
  21473566.265   -12212761.495 6  -9443433.01121
 91  3 26 23 40 14.9950000  0  4G 2G11G19G 6
  19926230.3664  -20571314.48647 -16029545.69363
  22176166.9294   -6133445.88446  -4779299.50861
  20075530.9214   -4256575.54346  -3316811.67363
  21464628.8744  -12259712.53946  -9480018.14561
 91  3 26 23 40 29.9950000  0  4G 2G11G19G 6
  19920400.7964  -20601948.55347 -16053416.36263
  22179531.319    -6115755.846 6  -4765515.07921
  20076071.8514   -4253746.32646  -3314607.09463
  21455698.280   -12306642.541 6  -9516586.89121
 91  3 26 23 40 44.9950000  0  4G 2G11G19G 6
  19914583.8514  -20632522.40547 -16077240.10263
  22182920.1714   -6097952.39946  -4751642.29761
  20076620.2264   -4250855.77046  -3312354.71962
  21446769.991   -12353575.686 6  -9553158.10021
 91  3 26 23 40 59.9950000  0  4G 2G11G19G 6
  19908782.1084  -20663010.34447 -16100996.90563
  22186337.4214   -6080010.09546  -4737661.28361
  20077188.1554   -4247878.09446  -3310034.45362
  21437841.499   -12400486.040 6  -9589711.55021
 91  3 26 23 41 14.9950000  0  4G 2G11G19G 6
  19902994.483   -20693425.693 7 -16124697.13723
  22189773.8744   -6061942.59146  -4723582.72761
  20077767.4834   -4244826.60046  -3307656.67662
  21428918.429   -12447386.857 6  -9626257.57221
 91  3 26 23 41 29.9950000  0  4G 2G11G19G 6
  19897218.0074  -20723775.52347 -16148346.31263
  22193235.577    -6043757.067 6  -4709412.22821
  20078363.6944   -4241708.28046  -3305226.81862
  21419993.913   -12494285.057 6  -9662801.53821
 91  3 26 23 41 44.9950000  0  4G 2G11G19G 6
  19891451.741   -20754077.137 7 -16171957.92023
  22196711.663    -6025471.266 6  -4695163.57021
  20078964.0624   -4238540.52846  -3302758.45063
  21411066.9374  -12541197.86646  -9699356.91261
 91  3 26 23 41 59.9950000  0  4G 2G11G19G 6
  19885698.5854  -20784313.71447 -16195518.84763
  22200217.1944   -6007068.60946  -4680823.87261
  20079579.046    -4235306.287 6  -3300238.27323
  21402138.671   -12588108.330 6  -9735910.44321
 91  3 26 23 42 14.9950000  0  4G 2G11G19G 6
  19879957.3044  -20814482.47547 -16219026.93463
  22203744.5854   -5988546.35646  -4666390.98161
  20080209.7734   -4232002.51046  -3297663.91663
  21393216.312   -12635013.446 6  -9772459.81621
 91  3 26 23 42 29.9950000  0  4G 2G11G19G 6
  19874229.476   -20844581.725 7 -16242480.85323
  22207289.8044   -5969903.06846  -4651863.76461
  20080851.5154   -4228627.30446  -3295033.89363
  21384287.4134  -12681911.39346  -9809003.59861
 91  3 26 23 42 44.9950000  0  4G 2G11G19G 6
  19868511.960   -20874624.154 7 -16265890.49323
  22210856.030    -5951151.757 6  -4637252.37821
  20081505.2734   -4225193.45546  -3292358.17563
  21375364.0694  -12728814.61746  -9845551.50961
 91  3 26 23 42 59.9950000  0  4G 2G11G19G 6
  19862813.124   -20904574.010 7 -16289227.99823
  22214449.507    -5932256.752 6  -4622529.02421
  20082174.726    -4221664.781 6  -3289608.57523
  21366443.9764  -12775687.25446  -9882075.56861
 91  3 26 23 43 14.9950000  0  4G 2G11G19G 6
  19857128.6484  -20934447.75547 -16312506.20563
  22218070.358    -5913234.818 6  -4607706.75221
  20082861.5074   -4218057.67846  -3286797.85163
  21357524.9374  -12822545.55846  -9918588.46161
 91  3 26 23 43 29.9950000  0  4G 2G11G19G 6
  19851453.179   -20964267.534 7 -16335742.35123
  22221710.7264   -5894108.26746  -4592802.97961
  20083558.7964   -4214394.30546  -3283943.28863
  21348609.2184  -12869411.70046  -9955107.47861
 91  3 26 23 43 44.9950000  0  4G 2G11G19G 6
  19845795.3434  -20994004.42347 -16358913.91563
  22225377.319    -5874848.508 6  -4577795.41021
  20084272.0074   -4210645.57346  -3281022.20763
  21339693.1014  -12916256.53046  -9991609.87261
 91  3 26 23 43 59.9950000  0  4G 2G11G19G 6
  19840148.1944  -21023677.52947 -16382035.78163
  22229060.4524   -5855474.85946  -4562699.05961
  20084998.194    -4206830.440 6  -3278049.39123
  21330780.3984  -12963098.98446 -10028110.41961
 91  3 26 23 44 14.9950000  0  4G 2G11G19G 6
  19834513.6944  -21053283.62047 -16405105.42163
  22232771.530    -5835984.376 6  -4547511.69521
  20085738.4294   -4202945.56046  -3275022.22463
  21321866.835   -13009935.709 6 -10064606.50321
 91  3 26 23 44 29.9950000  0  4G 2G11G19G 6
  19828893.6794  -21082818.26447 -16428119.38963
  22236503.5624   -5816372.79146  -4532229.98361
  20086492.9764   -4198986.45946  -3271937.22063
  21312956.538   -13056762.108 6 -10101094.55421
 91  3 26 23 44 44.9950000  0  4G 2G11G19G 6
  19823284.4214  -21112293.51347 -16451087.08263
  22240256.398    -5796652.545 6  -4516863.57021
  20087256.1714   -4194965.12246  -3268803.70862
  21304043.382   -13103590.213 6 -10137583.90621
 91  3 26 23 44 59.9950000  0  4G 2G11G19G 6
  19817688.9684  -21141699.06547 -16474000.45763
  22244032.921    -5776813.608 6  -4501404.69221
  20088037.6164   -4190871.12246  -3265613.58262
  21295134.757   -13150409.433 6 -10174066.33621
 91  3 26 23 45 14.9950000  0  4G 2G11G19G 6
  19812107.2334  -21171034.96347 -16496859.55963
  22247829.179    -5756856.020 6  -4485853.33621
  20088828.9444   -4186704.12746  -3262366.58363
  21286229.1014  -13197219.64046 -10210541.76061
 91  3 26 23 45 29.9950000  0  4G 2G11G19G 6
  19806540.0774  -21200286.84947 -16519653.20063
  22251654.0544   -5736765.62446  -4470198.51461
  20089641.5384   -4182449.54746  -3259051.33963
  21277324.9134  -13244006.07946 -10246998.66961
 91  3 26 23 45 44.9950000  0  4G 2G11G19G 6
  19800985.6084  -21229474.10647 -16542396.48463
  22255499.2494   -5716562.25346  -4454455.67161
  20090459.9444   -4178126.83846  -3255682.99863
  21268422.0694  -13290788.21046 -10283452.21661
 91  3 26 23 45 59.9950000  0  4G 2G11G19G 6
  19795447.2574  -21258580.62947 -16565076.86063
  22259366.382    -5696229.969 6  -4438612.35121
  20091299.640    -4173719.756 6  -3252248.92323
  21259522.257   -13337549.735 6 -10319889.69921
 91  3 26 23 46 14.9950000  0  4G 2G11G19G 6
  19789919.6324  -21287625.67347 -16587709.31363
  22263255.351    -5675788.273 6  -4422683.79721
  20092150.4914   -4169247.56346  -3248764.12263
  21250625.6014  -13384309.85546 -10356326.10161
 91  3 26 23 46 29.9950000  0  4G 2G11G19G 6
  19784411.1944  -21316574.62647 -16610266.90963
  22267173.562    -5655202.958 6  -4406643.32821
  20093019.733    -4164675.572 6  -3245201.55023
  21241734.796   -13431033.793 6 -10392734.30721
 91  3 26 23 46 44.9950000  0  4G 2G11G19G 6
  19778920.4054  -21345438.17747 -16632757.95463
  22271113.5154   -5634485.03346  -4390499.52061
  20093906.780    -4160014.198 6  -3241569.32123
  21232848.3744  -13477732.20046 -10429122.61161
 91  3 26 23 46 59.9950000  0  4G 2G11G19G 6
  19773437.6404  -21374241.12647 -16655201.77863
  22275078.3274   -5613659.41746  -4374271.81061
  20094805.890    -4155288.062 6  -3237886.64223
  21223961.5544  -13524429.54646 -10465510.08661
 91  3 26 23 47 14.9950000  0  4G 2G11G19G 6
  19767967.8744  -21402988.99047 -16677602.67463
  22279061.3354   -5592731.61746  -4357964.45461
  20095716.757    -4150502.358 6  -3234157.53523
  21215074.5624  -13571131.06846 -10501900.81661
 91  3 26 23 47 29.9950000  0  4G 2G11G19G 6
  19762508.7734  -21431676.57947 -16699956.59963
  22283066.0854   -5571696.92546  -4341573.83361
  20096640.7734   -4145652.20946  -3230378.20663
  21206187.6874  -13617831.53046 -10538290.72661
 91  3 26 23 47 44.9950000  0  4G 2G11G19G 6
  19757060.5464  -21460301.86347 -16722261.98563
  22287089.562    -5550553.536 6  -4325098.48721
  20097576.280    -4140735.363 6  -3226546.91223
  21197301.0854  -13664528.67846 -10574678.05161
 91  3 26 23 47 59.9950000  0  4G 2G11G19G 6
  19751621.5074  -21488891.29447 -16744539.42963
  22291127.140    -5529328.168 6  -4308559.28921
  20098521.835    -4135778.103 6  -3222684.13123
  21188413.296   -13711248.956 6 -10611083.38721
 91  3 26 23 48 14.9950000  0  4G 2G11G19G 6
  19746198.1634  -21517383.20647 -16766740.88363
  22295193.827    -5507959.434 6  -4291908.34921
  20099481.616    -4130718.634 6  -3218741.70023
  21179530.4054  -13757930.49946 -10647458.55761
 91  3 26 23 48 29.9950000  0  4G 2G11G19G 6
  19740790.3584  -21545806.00547 -16788888.48063
  22299283.280    -5486475.871 6  -4275167.92821
  20100458.327    -4125585.153 6  -3214741.61123
  21170646.7024  -13804601.38046 -10683825.40861
 91  3 26 23 48 44.9950000  0  4G 2G11G19G 6
  19735391.3744  -21574177.24347 -16810995.90163
  22303387.7884   -5464895.19046  -4258351.84061
  20101446.562    -4120395.062 6  -3210697.39923
  21161763.601   -13851278.960 6 -10720197.49621
 91  3 26 23 48 59.9950000  0  4G 2G11G19G 6
  19730006.382   -21602479.623 7 -16833049.66023
  22307517.2334   -5443200.46946  -4241446.89661
  20102451.054    -4115131.086 6  -3206595.62323
  21152883.015   -13897945.890 6 -10756561.25921
 91  3 26 23 49 14.9950000  0  4G 2G11G19G 6
  19724634.4834  -21630701.81447 -16855040.94563
  22311667.812    -5421380.572 6  -4224444.40021
  20103466.585    -4109781.750 6  -3202427.32822
  21144007.116   -13944590.606 6 -10792907.72121
 91  3 26 23 49 29.9950000  0  4G 2G11G19G 6
  19719278.8824  -21658845.27947 -16876970.88063
  22315845.054    -5399437.364 6  -4207345.81521
  20104504.1714   -4104348.38446  -3198193.54862
  21135135.413   -13991214.574 6 -10829238.01321
 91  3 26 23 49 44.9950000  0  4G 2G11G19G 6
  19713935.8664  -21686926.66547 -16898852.43963
  22320042.4684   -5377387.70946  -4190164.29161
  20105546.187    -4098847.386 6  -3193907.07822
  21126264.5304  -14037834.16746 -10865564.89861
 91  3 26 23 49 59.9950000  0  4G 2G11G19G 6
  19708607.1244  -21714923.07147 -16920667.78663
  22324260.046    -5355208.835 6  -4172882.06321
  20106611.515    -4093255.863 6  -3189550.06522
  21117394.460   -14084426.154 6 -10901870.27021
 91  3 26 23 50 14.9950000  0  4G 2G11G19G 6
  19703289.2964  -21742876.20347 -16942449.41163
  22328497.468    -5332942.852 6  -4155531.96421
  20107684.452    -4087615.411 6  -3185154.93122
  21108527.6084  -14131032.28146 -10938186.66261
 91  3 26 23 50 29.9950000  0  4G 2G11G19G 6
  19697986.4994  -21770735.92747 -16964158.24663
  22332760.8984   -5310539.86246  -4138075.11961
  20108778.429    -4081875.757 6  -3180682.49322
  21099664.851   -14177602.172 6 -10974474.80321
 91  3 26 23 50 44.9950000  0  4G 2G11G19G 6
  19692693.7654  -21798551.99347 -16985833.06263
  22337040.7024   -5288049.90446  -4120550.47861
  20109877.702    -4076086.570 6  -3176171.45722
  21090801.499   -14224185.431 6 -11010773.36021
 91  3 26 23 50 59.9950000  0  4G 2G11G19G 6
  19687412.3194  -21826305.84647 -17007459.40363
  22341342.0934   -5265454.59046  -4102943.76861
  20110995.124    -4070229.235 6  -3171607.31622
  21081937.3824  -14270763.29646 -11047067.74061
 91  3 26 23 51 14.9950000  0  4G 2G11G19G 6
  19682141.5384  -21854000.44847 -17029039.57663
  22345660.0774   -5242756.93646  -4085257.32161
  20112122.249    -4064306.191 6  -3166991.97522
  21073074.1244  -14317338.38046 -11083359.92361
 91  3 26 23 51 29.9950000  0  4G 2G11G19G 6
  19676884.8434  -21881627.03047 -17050566.74163
  22350000.7734   -5219948.54946  -4067484.56761
  20113264.1084   -4058308.73246  -3162318.64662
  21064213.726   -14363901.899 6 -11119643.11521
 91  3 26 23 51 44.9950000  0  4G 2G11G19G 6
  19671641.538   -21909183.099 7 -17072038.96423
  22354362.1404   -5197027.24246  -4049623.80961
  20114417.343    -4052234.442 6  -3157585.44822
  21055356.913   -14410451.179 6 -11155915.20521
 91  3 26 23 51 59.9950000  0  4G 2G11G19G 6
  19666412.0694  -21936664.80047 -17093453.23463
  22358747.1944   -5173989.38346  -4031672.24861
  20115589.0544   -4046079.16046  -3152789.13262
  21046502.398   -14456982.026 6 -11192172.92421
 91  3 26 23 52 14.9950000  0  4G 2G11G19G 6
  19661193.7804  -21964087.44747 -17114821.49563
  22363149.0154   -5150850.54746  -4013642.01961
  20116773.468    -4039857.953 6  -3147941.45922
  21037649.218   -14503509.740 6 -11228428.21921
 91  3 26 23 52 29.9950000  0  4G 2G11G19G 6
  19655984.4524  -21991455.10847 -17136146.90863
  22367570.1324   -5127615.12246  -3995536.51261
  20117968.515    -4033574.874 6  -3143045.57022
  21028795.054   -14550038.112 6 -11264684.01821
 91  3 26 23 52 44.9950000  0  4G 2G11G19G 6
  19650790.2964  -22018752.78547 -17157417.78763
  22372015.2494   -5104268.38246  -3977344.23161
  20119179.765    -4027214.853 6  -3138089.73223
  21019939.2494  -14596551.99246 -11300928.50761
 91  3 26 23 52 59.9950000  0  4G 2G11G19G 6
  19645610.9604  -22045970.64047 -17178626.47063
  22376479.6244   -5080800.85546  -3959057.89461
  20120403.140    -4020768.180 6  -3133066.36923
  21011095.952   -14643041.578 6 -11337154.07221
 91  3 26 23 53 14.9950000  0  4G 2G11G19G 6
  19640443.9914  -22073127.64447 -17199787.73363
  22380964.3584   -5057231.78146  -3940692.39161
  20121643.210    -4014253.521 6  -3127990.02823
  21002248.8274  -14689525.64746 -11373375.36561
 91  3 26 23 53 29.9950000  0  4G 2G11G19G 6
  19635287.5934  -22100220.04147 -17220898.65163
  22385471.890    -5033557.540 6  -3922244.94521
  20122899.374    -4007666.848 6  -3122857.58323
  20993403.179   -14736000.086 6 -11409589.12721
 91  3 26 23 53 44.9950000  0  4G 2G11G19G 6
  19630147.1944  -22127236.23447 -17241950.19363
  22389995.4914   -5009766.70646  -3903706.65761
  20124167.124    -4000996.530 6  -3117659.94623
  20984565.007   -14782453.046 6 -11445786.14921
 91  3 26 23 53 59.9950000  0  4G 2G11G19G 6
  19625019.9764  -22154180.98847 -17262946.06563
  22394545.460    -4985864.314 6  -3885081.44921
  20125453.132    -3994247.212 6  -3112400.75923
  20975728.7884  -14828889.09646 -11481970.00161
 91  3 26 23 54 14.9950000  0  4G 2G11G19G 6
  19619902.4834  -22181069.45147 -17283898.07763
  22399111.5934   -4961865.75246  -3866381.27461
  20126746.593    -3987433.791 6  -3107091.61723
  20966892.335   -14875323.229 6 -11518152.37121
 91  3 26 23 54 29.9950000  0  4G 2G11G19G 6
  19614800.3124  -22207886.85347 -17304794.71563
  22403699.1714   -4937756.54046  -3847594.87661
  20128061.944    -3980541.623 6  -3101721.11322
  20958060.3514  -14921740.52746 -11554321.62261
 91  3 26 23 54 44.9950000  0  4G 2G11G19G 6
  19609708.8664  -22234635.80747 -17325638.01863
  22408307.210    -4913539.575 6  -3828724.55321
  20129386.265    -3973573.237 6  -3096291.22422
  20949228.929   -14968143.395 6 -11590479.62221
 91  3 26 23 54 59.9950000  0  4G 2G11G19G 6
  19604630.9444  -22261327.89347 -17346437.01463
  22412936.265    -4889226.628 6  -3809779.44221
  20130726.038    -3966539.915 6  -3090810.72222
  20940400.6484  -15014543.02846 -11626635.11261
 91  3 26 23 55 14.9950000  0  4G 2G11G19G 6
  19599563.1634  -22287956.32647 -17367186.40763
  22417582.3194   -4864811.29546  -3790754.49061
  20132076.023    -3959435.025 6  -3085274.47422
  20931573.179   -15060932.726 6 -11662782.85221
 91  3 26 23 55 29.9950000  0  4G 2G11G19G 6
  19594509.2334  -22314514.78747 -17387881.27863
  22422248.2654   -4840287.60646  -3771645.17161
  20133444.2654   -3952251.97346  -3079677.29862
  20922747.132   -15107306.056 6 -11698917.83921
 91  3 26 23 55 44.9950000  0  4G 2G11G19G 6
  19589467.0234  -22341005.67247 -17408523.49463
  22426935.1484   -4815658.00846  -3752453.28561
  20134826.1634   -3944992.88046  -3074020.87062
  20913925.148   -15153665.005 6 -11735041.62021
 91  3 26 23 55 59.9950000  0  4G 2G11G19G 6
  19584436.8354  -22367444.98047 -17429125.52363
  22431637.921    -4790938.849 6  -3733191.62221
  20136217.2964   -3937673.69846  -3068317.61962
  20905104.062   -15200025.481 6 -11771166.59621
 91  3 26 23 56 14.9950000  0  4G 2G11G19G 6
  19579415.8984  -22393828.75747 -17449684.28463
  22436361.577    -4766126.610 6  -3713857.42421
  20137623.3664   -3930290.38346  -3062564.39662
  20896285.483   -15246383.360 6 -11807289.54321
 91  3 26 23 56 29.9950000  0  4G 2G11G19G 6
  19574409.7574  -22420135.75447 -17470183.21763
  22441106.843    -4741200.372 6  -3694434.40821
  20139044.882    -3922821.658 6  -3056744.62822
  20887467.1554  -15292717.29046 -11843393.82861
 91  3 26 23 56 44.9950000  0  4G 2G11G19G 6
  19569419.7804  -22446361.43648 -17490618.78263
  22445869.796    -4716155.571 6  -3674918.99721
  20140481.4834   -3915262.66646  -3050854.51162
  20878654.2184  -15339022.35546 -11879475.63961
 91  3 26 23 56 59.9950000  0  4G 2G11G19G 6
  19564440.593   -22472529.487 8 -17511009.45023
  22450654.796    -4691016.145 6  -3655329.85921
  20141934.304    -3907637.149 6  -3044912.56422
  20869842.8354  -15385322.12146 -11915553.30161
 91  3 26 23 57 14.9950000  0  4G 2G11G19G 6
  19559475.304   -22498619.024 7 -17531338.93323
  22455460.1794   -4665761.55946  -3635650.95661
  20143401.163    -3899924.109 6  -3038902.42123
  20861036.788   -15431595.446 6 -11951610.37021
 91  3 26 23 57 29.9950000  0  4G 2G11G19G 6
  19554520.7574  -22524657.50148 -17551628.63163
  22460279.804    -4640419.469 5  -3615903.91821
  20144882.116    -3892150.850 6  -3032845.34423
  20852232.1244  -15477869.56046 -11987668.06661
 91  3 26 23 57 44.9950000  0  4G 2G11G19G 6
  19549578.413   -22550626.908 7 -17571864.50823
  22465124.726    -4614972.044 6  -3596074.78721
  20146373.233    -3884298.999 6  -3026727.04222
  20843427.8514  -15524126.14946 -12023712.09661
 91  3 26 23 57 59.9950000  0  4G 2G11G19G 6
  19544647.116   -22576538.172 7 -17592055.07723
  22469985.4994   -4589430.72046  -3576172.43961
  20147885.9604   -3876379.50746  -3020556.01862
  20834627.577   -15570376.078 6 -12059750.93221
 91  3 26 23 58 14.9950000  0  4G 2G11G19G 6
  19539728.648   -22602384.891 7 -17612195.35223
  22474861.4214   -4563789.43646  -3556192.25961
  20149403.202    -3868385.952 6  -3014327.28622
  20825831.5624  -15616612.91746 -12095779.57861
 91  3 26 23 58 29.9950000  0  4G 2G11G19G 6
  19534822.132   -22628170.821 7 -17632288.26423
  22479761.476    -4538052.310 6  -3536137.37421
  20150936.187    -3860322.139 6  -3008043.81222
  20817033.1794  -15662840.18046 -12131800.76061
 91  3 26 23 58 44.9950000  0  4G 2G11G19G 6
  19529926.226   -22653903.153 7 -17652339.40723
  22484676.0854   -4512226.51546  -3516013.39161
  20152483.155    -3852195.010 6  -3001711.00822
  20808236.3514  -15709064.63146 -12167819.74361
 91  3 26 23 58 59.9950000  0  4G 2G11G19G 6
  19525039.327   -22679576.637 7 -17672344.70023
  22489607.921    -4486307.097 6  -3495816.46521
  20154044.4444   -3843999.21046  -2995324.67262
  20799441.6944  -15755280.82746 -12203832.29861
 91  3 26 23 59 14.9950000  0  4G 2G11G19G 6
  19520165.8124  -22705187.71747 -17692301.35363
  22494558.5074   -4460290.69946  -3475543.95861
  20155616.773    -3835730.937 6  -2988881.88022
  20790648.499   -15801485.009 6 -12239835.50021
 91  3 26 23 59 29.9950000  0  4G 2G11G19G 6
  19515303.9444  -22730738.20047 -17712210.79563
  22499526.2734   -4434179.49045  -3455197.56861
  20157203.038    -3827391.861 6  -2982383.92622
  20781858.702   -15847678.871 6 -12275830.67121
 91  3 26 23 59 44.9950000  0  4G 2G11G19G 6
  19510454.960   -22756218.740 7 -17732065.73523
  22504516.1244   -4407964.54245  -3434770.34161
  20158806.523    -3818972.839 6  -2975823.66722
  20773071.358   -15893853.059 6 -12311810.51121
 91  3 26 23 59 59.9950000  0  4G 2G11G19G 6
  19505622.288   -22781613.270 7 -17751853.65923
  22509527.085    -4381629.871 6  -3414249.83421
  20160426.140    -3810457.558 6  -2969188.40222
  20764290.757   -15939991.082 6 -12347762.16521
 91  3 27  0  0 14.9950000  0  4G 2G11G19G 6
  19500800.0544  -22806952.51247 -17771598.48863
  22514556.780    -4355206.413 6  -3393660.16221
  20162060.960    -3801876.525 6  -2962501.90522
  20755513.8124  -15986123.43846 -12383709.40261
 91  3 27  0  0 29.9950000  0  4G 2G11G19G 6
  19495988.163   -22832245.851 8 -17791307.56023
  22519599.0384   -4328704.02046  -3373008.96061
  20163706.4764   -3793238.88946  -2955771.31362
  20746735.858   -16032259.412 6 -12419659.46021
 91  3 27  0  0 44.9950000  0  4G 2G11G19G 6
  19491185.421   -22857479.735 7 -17810970.30523
  22524661.3434   -4302109.31046  -3352285.80361
  20165361.624    -3784531.230 6  -2948986.13922
  20737956.8664  -16078385.09646 -12455601.49761
 91  3 27  0  0 59.9940000  0  4G 2G11G19G 6
  19486393.4164  -22882664.56147 -17830594.82263
  22529734.9554   -4275436.35946  -3331501.71661
  20167027.963    -3775766.120 6  -2942156.19222
  20729180.377   -16124509.313 6 -12491542.38321
 91  3 27  0  1 14.9940000  0  4G 2G11G19G 6
  19481612.7364  -22907785.70247 -17850169.71263
  22534830.705    -4248663.906 5  -3310640.08121
  20168712.260    -3766924.331 6  -2935266.50022
  20720404.697   -16170620.045 6 -12527472.78021
 91  3 27  0  1 29.9940000  0  4G 2G11G19G 6
  19476845.1274  -22932837.78547 -17869690.78663
  22539945.947    -4221790.298 5  -3289699.64621
  20170411.5724   -3758002.43046  -2928314.38162
  20711636.158   -16216710.283 6 -12563387.19421
 91  3 27  0  1 44.9940000  0  4G 2G11G19G 6
  19472092.2444  -22957811.80747 -17889151.03163
  22545078.0024   -4194806.86946  -3268673.59461
  20172125.7834   -3748991.35446  -2921292.76362
  20702871.940   -16262770.792 6 -12599278.45721
 91  3 27  0  1 59.9940000  0  4G 2G11G19G 6
  19467349.2914  -22982742.29447 -17908577.35463
  22550229.2054   -4167748.40346  -3247589.10361
  20173852.6194   -3739925.58146  -2914228.53062
  20694104.768   -16308835.950 6 -12635173.32921
 91  3 27  0  2 14.9940000  0  4G 2G11G19G 6
  19462617.5414  -23007607.76047 -17927953.00963
  22555395.041    -4140593.857 6  -3226429.74221
  20175589.1584   -3730783.64546  -2907104.95462
  20685340.2294  -16354884.13746 -12671055.00261
 91  3 27  0  2 29.9940000  0  4G 2G11G19G 6
  19457898.6194  -23032402.37347 -17947273.45563
  22560580.7444   -4113337.40745  -3205190.94161
  20177342.5104   -3721559.39146  -2899917.22762
  20676582.877   -16400909.223 6 -12706918.65121
 91  3 27  0  2 44.9940000  0  4G 2G11G19G 6
  19453190.3464  -23057142.39547 -17966551.36063
  22565784.705    -4085995.757 6  -3183885.78621
  20179113.057    -3712269.046 6  -2892678.02022
  20667826.877   -16446927.336 6 -12742776.85821
 91  3 27  0  2 59.9940000  0  4G 2G11G19G 6
  19448496.2754  -23081811.43847 -17985773.95863
  22571008.8934   -4058552.82146  -3162501.67961
  20180895.533    -3702896.072 6  -2885374.42122
  20659074.143   -16492921.732 6 -12778616.60321
 91  3 27  0  3 14.9940000  0  4G 2G11G19G 6
  19443814.2294  -23106414.93847 -18004945.48063
  22576245.6114   -4031014.28845  -3141043.06461
  20182693.5334   -3693445.95846  -2878010.69762
  20650325.440   -16538897.736 6 -12814442.00621
 91  3 27  0  3 29.9940000  0  4G 2G11G19G 6
  19439144.2684  -23130958.16347 -18024070.03863
  22581508.0414   -4003385.56746  -3119514.19261
  20184505.385    -3683923.641 6  -2870590.73523
  20641576.9634  -16584860.21246 -12850256.86661
 91  3 27  0  3 44.9940000  0  4G 2G11G19G 6
  19434485.8464  -23155435.51347 -18043143.26363
  22586782.377    -3975661.343 6  -3097910.94621
  20186336.041    -3674323.492 6  -2863110.12223
  20632834.5964  -16630803.45946 -12886056.74261
 91  3 27  0  3 59.9940000  0  4G 2G11G19G 6
  19429838.6824  -23179857.19147 -18062173.10663
  22592072.0574   -3947852.16446  -3076241.47361
  20188174.440    -3664655.569 6  -2855576.70723
  20624095.775   -16676737.404 6 -12921849.36521
 91  3 27  0  4 14.9940000  0  4G 2G11G19G 6
  19425202.2134  -23204222.23147 -18081158.82163
  22597380.1044   -3919957.34646  -3054505.26361
  20190026.627    -3654918.844 6  -2847989.67323
  20615354.736   -16722660.913 6 -12957633.87321
 91  3 27  0  4 29.9940000  0  4G 2G11G19G 6
  19420577.8384  -23228525.28647 -18100096.22763
  22602705.9164   -3891971.91246  -3032698.41961
  20191890.111    -3645108.052 6  -2840344.91123
  20606620.4794  -16768568.59146 -12993406.03661
 91  3 27  0  4 44.9940000  0  4G 2G11G19G 6
  19415964.9554  -23252760.76547 -18118980.98263
  22608048.0884   -3863890.35846  -3010816.69961
  20193774.5494   -3635217.28246  -2832637.85263
  20597887.635   -16814454.447 6 -13029161.19421
 91  3 27  0  4 59.9940000  0  4G 2G11G19G 6
  19411368.1114  -23276919.16047 -18137805.67363
  22613414.0414   -3835703.46946  -2988852.90261
  20195676.0254   -3625236.97946  -2824861.00762
  20589161.4714  -16860308.79146 -13064891.78761
 91  3 27  0  5 14.9940000  0  4G 2G11G19G 6
  19406780.6194  -23301023.38747 -18156588.15463
  22618794.6744   -3807434.55946  -2966825.17561
  20197586.291    -3615189.929 6  -2817032.14522
  20580437.877   -16906154.197 6 -13100615.43021
 91  3 27  0  5 29.9940000  0  4G 2G11G19G 6
  19402207.6744  -23325056.16547 -18175314.96263
  22624192.3694   -3779066.59846  -2944720.30261
  20199513.713    -3605058.690 6  -2809137.70322
  20571718.299   -16951973.259 6 -13136318.54021
 91  3 27  0  5 44.9940000  0  4G 2G11G19G 6
  19397645.1974  -23349031.63647 -18193997.10763
  22629606.385    -3750613.927 6  -2922549.41021
  20201455.377    -3594857.178 6  -2801188.49222
  20563001.8694  -16997779.84446 -13172011.92261
 91  3 27  0  5 59.9940000  0  4G 2G11G19G 6
  19393093.1354  -23372950.39447 -18212635.06763
  22635037.518    -3722077.415 6  -2900313.17921
  20203410.4474   -3584585.96446  -2793184.96062
  20554285.5724  -17043574.34646 -13207695.88561
 91  3 27  0  6 14.9940000  0  4G 2G11G19G 6
  19388553.4244  -23396813.73347 -18231229.84263
  22640481.1044   -3693458.51746  -2878012.72561
  20205376.463    -3574246.323 6  -2785128.11622
  20545574.7684  -17089357.75246 -13243371.19861
 91  3 27  0  6 29.9940000  0  4G 2G11G19G 6
  19384022.2914  -23420621.18447 -18249781.07363
  22645944.0184   -3664757.37745  -2855648.18861
  20207358.6504   -3563838.00346  -2777017.74962
  20536865.6974  -17135129.60846 -13279037.51961
 91  3 27  0  6 44.9940000  0  4G 2G11G19G 6
  19379502.7914  -23444372.34247 -18268288.43363
  22651419.9554   -3635973.80145  -2833219.42661
  20209352.150    -3553360.283 6  -2768853.31422
  20528156.4084  -17180889.12146 -13314694.22462
 91  3 27  0  6 59.9940000  0  4G 2G11G19G 6
  19374997.1744  -23468051.66148 -18286739.82163
  22656916.315    -3607092.348 5  -2810714.44421
  20211360.588    -3542797.385 6  -2760622.51322
  20519453.291   -17226620.472 6 -13350328.97521
 91  3 27  0  7 14.9940000  0  4G 2G11G19G 6
  19370502.5964  -23491668.13047 -18305142.23463
  22662427.643    -3578122.500 5  -2788140.56321
  20213387.190    -3532158.360 6  -2752332.38022
  20510755.8934  -17272332.58346 -13385948.72962
 91  3 27  0  7 29.9940000  0  4G 2G11G19G 6
  19366017.986   -23515231.896 7 -18323503.58423
  22667956.7294   -3549074.61245  -2765505.83261
  20215424.744    -3521453.150 6  -2743990.68322
  20502059.322   -17318035.303 6 -13421561.18421
 91  3 27  0  7 44.9940000  0  4G 2G11G19G 6
  19361544.2134  -23538748.11548 -18341827.87963
  22673499.533    -3519953.884 5  -2742814.37321
  20217471.377    -3510686.767 6  -2735601.31022
  20493362.8224  -17363733.48346 -13457170.09261
 91  3 27  0  7 59.9940000  0  4G 2G11G19G 6
  19357083.3224  -23562185.98647 -18360091.12863
  22679061.416    -3490729.870 5  -2720042.43721
  20219537.025    -3499828.274 6  -2727140.17822
  20484674.627   -17409396.064 6 -13492751.24721
 91  3 27  0  8 14.9940000  0  4G 2G11G19G 6
  19352631.643   -23585574.730 7 -18378316.10223
  22684634.0334   -3461432.07945  -2697213.00761
  20221618.885    -3488906.579 6  -2718629.78822
  20475985.0574  -17455051.93246 -13528327.18661
 91  3 27  0  8 29.9940000  0  4G 2G11G19G 6
  19348191.049   -23608918.543 7 -18396506.05823
  22690224.369    -3432064.983 5  -2674329.57521
  20223705.065    -3477926.252 6  -2710073.70522
  20467299.5494  -17500705.28146 -13563901.15561
 91  3 27  0  8 44.9940000  0  4G 2G11G19G 6
  19343759.9004  -23632197.37247 -18414645.37963
  22695830.197    -3402609.127 5  -2651376.99921
  20225809.7054   -3466867.36046  -2701456.43462
  20458612.9714  -17546335.95546 -13599457.45761
 91  3 27  0  8 59.9940000  0  4G 2G11G19G 6
  19339340.9164  -23655420.49547 -18432741.29063
  22701448.869    -3373074.016 6  -2628362.65321
  20227929.799    -3455738.739 6  -2692784.80022
  20449935.510   -17591952.869 6 -13635003.03021
 91  3 27  0  9 14.9940000  0  4G 2G11G19G 6
  19334935.190   -23678577.869 7 -18450785.97723
  22707087.994    -3343449.872 6  -2605278.92221
  20230060.650    -3444530.333 6  -2684050.98622
  20441256.8074  -17637545.69646 -13670529.84461
 91  3 27  0  9 29.9940000  0  4G 2G11G19G 6
  19330540.3614  -23701668.33147 -18468778.51863
  22712742.635    -3313735.556 6  -2582124.92021
  20232209.986    -3433240.789 6  -2675253.96022
  20432584.5574  -17683112.96346 -13706036.73161
 91  3 27  0  9 44.9940000  0  4G 2G11G19G 6
  19326157.479   -23724702.348 7 -18486727.08223
  22718409.1434   -3283942.02545  -2558909.27061
  20234372.854    -3421880.486 6  -2666401.79922
  20423918.6434  -17728664.89746 -13741531.68261
 91  3 27  0  9 59.9940000  0  4G 2G11G19G 6
  19321785.9634  -23747672.85847 -18504626.15363
  22724096.4794   -3254062.50946  -2535626.54761
  20236548.877    -3410442.098 6  -2657488.78922
  20415254.5024  -17774194.30546 -13777009.07661
 91  3 27  0 10 14.9940000  0  4G 2G11G19G 6
  19317426.197   -23770582.156 7 -18522477.52623
  22729800.5334   -3224099.51046  -2512278.74061
  20238739.7214   -3398928.06946  -2648516.84762
  20406595.6274  -17819703.29946 -13812470.55761
 91  3 27  0 10 29.9940000  0  4G 2G11G19G 6
  19313076.080   -23793444.578 7 -18540292.37623
  22735514.8074   -3194067.55646  -2488877.24161
  20240943.072    -3387352.533 6  -2639496.97222
  20397936.963   -17865205.777 6 -13847926.96521
 91  3 27  0 10 44.9940000  0  4G 2G11G19G 6
  19308736.971   -23816249.776 7 -18558062.64123
  22741241.322    -3163956.641 5  -2465414.20121
  20243157.4634   -3375705.05046  -2630421.01962
  20389277.7524  -17910691.26046 -13883370.13361
 91  3 27  0 10 59.9940000  0  4G 2G11G19G 6
  19304408.635   -23839000.250 7 -18575790.25623
  22746988.4324   -3133769.54345  -2441891.79661
  20245389.1114   -3363987.90746  -2621290.78062
  20380625.6744  -17956161.92246 -13918801.75561
 91  3 27  0 11 14.9940000  0  4G 2G11G19G 6
  19300089.0804  -23861690.34947 -18593470.82463
  22752748.619    -3103500.997 5  -2418305.93121
  20247634.3384   -3352195.58446  -2612101.96862
  20371977.0184  -18001612.08546 -13954217.40161
 91  3 27  0 11 29.9940000  0  5G15G 2G11G19G 6
  22577431.807          -0.00615
  19295784.291   -23884320.121 8 -18611104.38923
  22758519.5884   -3073151.14245  -2394656.71861
  20249889.713    -3340328.028 6  -2602854.53922
  20363331.7684  -18047041.39746 -13989616.79761
 91  3 27  0 11 44.9940000  0  5G15G 2G11G19G 6
  22569208.3224     -43205.04745
  19291489.838   -23906882.535 7 -18628685.47023
  22764316.541    -3042713.443 5  -2370939.09621
  20252165.7054   -3328377.90746  -2593542.76962
  20354693.4084  -18092442.69146 -14024994.36362
 91  3 27  0 11 59.9940000  0  5G15G 2G11G19G 6
  22561001.502      -86338.355 5        -0.24431
  19287207.010   -23929386.536 8 -18646221.02823
  22770123.9554   -3012196.92745  -2347159.99161
  20254451.5104   -3316354.17346  -2584173.63162
  20346057.9554  -18137824.57546 -14060356.80262
 91  3 27  0 12 14.9940000  0  5G15G 2G11G19G 6
  22552804.4084    -129401.78945    -33556.02861
  19282935.768   -23951834.580 8 -18663712.98923
  22775944.111    -2981604.499 5  -2323321.75621
  20256752.033    -3304259.167 6  -2574748.96822
  20337423.7524  -18183189.20446 -14095705.80261
 91  3 27  0 12 29.9940000  0  5G15G 2G11G19G 6
  22544624.6114    -172401.94445    -67062.53361
  19278672.6824  -23974233.53847 -18681166.69363
  22781780.9944   -2950943.29745  -2299429.89761
  20259066.697    -3292099.805 6  -2565274.15422
  20328792.2364  -18228543.40846 -14131046.67961
 91  3 27  0 12 44.9940000  0  5G15G 2G11G19G 6
  22536450.6504    -215327.00145   -100510.51461
  19274422.900   -23996572.266 8 -18698573.47023
  22787630.2754   -2920202.25145  -2275475.83261
  20261396.2754   -3279864.84046  -2555740.41062
  20320166.8224  -18273875.53546 -14166370.36061
 91  3 27  0 12 59.9940000  0  5G15G 2G11G19G 6
  22528304.2914    -258166.42445   -133891.77461
  19270184.6194  -24018840.47948 -18715925.29763
  22793494.385    -2889371.233 5  -2251451.64521
  20263744.065    -3267543.835 6  -2546139.64522
  20311545.588   -18319175.054 6 -14201668.63021
 91  3 27  0 13 14.9940000  0  5G15G 2G11G19G 6
  22520160.7364    -300934.32145   -167217.28261
  19265958.7444  -24041052.66748 -18733233.47063
  22799377.2914   -2858465.44745  -2227369.18561
  20266098.830    -3255151.344 6  -2536483.18022
  20302929.8544  -18364456.42746 -14236952.75462
 91  3 27  0 13 29.9940000  0  4G15G 2G19G 6
  22512036.9084    -343621.63345   -200479.97461
  19261744.088   -24063200.098 8 -18750491.18423
  20268470.3154   -3242678.50646  -2526764.10062
  20294318.510   -18409710.676 6 -14272215.74822
 91  3 27  0 13 44.9940000  0  4G15G 2G19G 6
  22503934.2214    -386220.92345   -233674.04261
  19257541.432   -24085276.186 7 -18767693.30723
  20270863.213    -3230118.564 6  -2516977.14722
  20285714.1974  -18454930.90346 -14307452.23561
 91  3 27  0 13 59.9940000  0  4G15G 2G19G 6
  22495842.1044    -428746.05445   -266810.37461
  19253352.3694  -24107295.32747 -18784851.03963
  20273268.518    -3217485.753 6  -2507133.42622
  20277113.338   -18500131.093 6 -14342673.11221
 91  3 27  0 14 14.9940000  0  4G15G 2G19G 6
  22487759.182     -471205.395 5   -299895.46521
  19249172.174   -24129265.994 7 -18801971.02023
  20275682.924    -3204788.496 6  -2497239.48022
  20268513.158   -18545319.601 6 -14377884.88322
 91  3 27  0 14 29.9940000  0  4G15G 2G19G 6
  22479695.9474    -513597.07245   -332927.83161
  19244999.822   -24151186.740 7 -18819052.09523
  20278112.924    -3192025.201 6  -2487294.06822
  20259915.6044  -18590494.74546 -14413086.23762
 91  3 27  0 14 44.9940000  0  4G15G 2G19G 6
  22471642.1114    -555911.05045   -365899.65161
  19240840.4554  -24173047.66047 -18836086.55163
  20280554.3854   -3179186.13146  -2477289.60362
  20251321.9004  -18635646.45146 -14448269.32462
 91  3 27  0 14 59.9940000  0  4G15G 2G19G 6
  22463605.5804    -598147.94545   -398811.40961
  19236691.2364  -24194849.99147 -18853075.35563
  20283011.635    -3166272.387 6  -2467226.95622
  20242733.799   -18680775.667 6 -14483434.89622
 91  3 27  0 15 14.9940000  0  4G15G 2G19G 6
  22455584.1664    -640300.54845   -431657.46761
  19232555.0724  -24216587.03647 -18870013.28463
  20285486.1114   -3153277.16946  -2457100.82562
  20234153.893   -18725875.415 6 -14518577.49722
 91  3 27  0 15 29.9940000  0  4G15G 2G19G 6
  22447576.5024    -682374.89045   -464442.55961
  19228429.072   -24238265.335 7 -18886905.44123
  20287972.690    -3140206.812 6  -2446916.15422
  20225575.057   -18770951.860 6 -14553701.94722
 91  3 27  0 15 44.9940000  0  4G15G 2G19G 6
  22439585.502     -724374.392 5   -497169.32721
  19224314.221   -24259888.647 7 -18903754.74823
  20290473.2524   -3127064.89146  -2436675.72362
  20217001.643   -18816008.617 6 -14588811.05522
 91  3 27  0 15 59.9940000  0  4G15G 2G19G 6
  22431607.5654    -766306.19645   -529843.34361
  19220208.377   -24281464.896 7 -18920567.38123
  20292985.854    -3113859.245 6  -2426385.62922
  20208431.291   -18861053.234 6 -14623910.70222
 91  3 27  0 16 14.9940000  0  4G15G 2G19G 6
  22423642.0414    -808154.14245   -562452.01761
  19216114.588   -24302977.885 7 -18937330.72623
  20295514.283    -3100573.988 6  -2416033.49922
  20199863.268   -18906069.462 6 -14658988.23522
 91  3 27  0 16 29.9940000  0  4G15G 2G19G 6
  22415693.2444    -849918.56145   -594995.62561
  19212032.9164  -24324428.51948 -18954045.47263
  20298060.7294   -3087209.81246  -2405619.88262
  20191303.3154  -18951057.98046 -14694044.16862
 91  3 27  0 16 44.9940000  0  4G15G 2G19G 6
  22407760.5724    -891610.14545   -627482.49161
  19207961.830   -24345828.198 8 -18970720.52224
  20300614.2524   -3073777.70546  -2395153.31962
  20182745.510   -18996029.593 6 -14729086.92822
 91  3 27  0 16 59.9940000  0  4G15G 2G19G 6
  22399839.0804    -933232.23845   -659915.19361
  19203897.0254  -24367180.71048 -18987358.81664
  20303181.393    -3060281.507 6  -2384636.82022
  20174189.674   -19040987.954 6 -14764119.36322
 91  3 27  0 17 14.9940000  0  4G15G 2G19G 6
  22391935.643     -974763.273 5   -692276.92821
  19199847.096   -24388464.790 7 -19003943.77624
  20305766.479    -3046699.961 6  -2374053.82522
  20165640.158   -19085911.743 6 -14799124.85822
 91  3 27  0 17 29.9940000  0  4G15G 2G19G 6
  22384053.0104   -1016188.70745   -724556.39361
  19195813.854   -24409666.208 8 -19020464.34224
  20308370.049    -3033018.804 6  -2363393.20922
  20157102.721   -19130786.440 6 -14834092.10222
 91  3 27  0 17 44.9940000  0  4G15G 2G19G 6
  22376181.4474   -1057562.56345   -756795.65161
  19191783.3694  -24430839.41748 -19036962.91964
  20310981.9794   -3019292.30046  -2352697.25462
  20148560.979   -19175666.080 6 -14869063.20922
 91  3 27  0 17 59.9940000  0  4G15G 2G19G 6
  22368320.768    -1098856.565 5   -788972.68921
  19187764.9794  -24451956.38447 -19053417.66964
  20313608.315    -3005492.324 6  -2341944.04322
  20140027.205   -19220522.565 7 -14904016.26822
 91  3 27  0 18 14.9940000  0  4G15G 2G19G 6
  22360482.6824   -1140058.76645   -821078.20961
  19183760.2524  -24473005.62748 -19069819.65064
  20316250.940    -2991607.511 6  -2331124.73422
  20131495.611   -19265344.125 6 -14938942.11022
 91  3 27  0 18 29.9940000  0  4G15G 2G19G 6
  22352656.1504   -1181182.94345   -853122.91661
  19179763.908   -24494001.578 7 -19086180.10124
  20318907.221    -2977652.213 6  -2320250.49322
  20122972.229   -19310144.944 7 -14973851.78922
 91  3 27  0 18 44.9940000  0  4G15G 2G19G 6
  22344843.190    -1222233.402 5   -885110.18021
  19175778.322   -24514948.846 8 -19102502.62024
  20321572.549    -2963630.812 6  -2309324.75422
  20114448.307   -19354929.290 7 -15008748.63622
 91  3 27  0 18 59.9940000  0  4G15G 2G19G 6
  22337051.041    -1263200.190 5   -917032.28121
  19171803.596   -24535838.157 8 -19118779.98624
  20324257.674    -2949534.108 6  -2298340.33222
  20105930.736   -19399687.463 7 -15043625.08322
 91  3 27  0 19 14.9940000  0  4G15G 2G19G 6
  22329266.2604   -1304078.70645   -948885.56961
  19167840.7684  -24556664.86748 -19135008.56264
  20326955.166    -2935357.544 6  -2287293.68422
  20097419.2604  -19444414.77147 -15078477.47362
 91  3 27  0 19 29.9940000  0  4G15G 2G19G 6
  22321507.955    -1344875.037 5   -980674.82821
  19163887.2134  -24577435.75348 -19151193.64664
  20329665.6354   -2921107.58746  -2276189.85162
  20088912.736   -19489117.764 7 -15113310.92622
 91  3 27  0 19 44.9940000  0  4G15G 2G19G 6
  22313759.822    -1385576.567 5  -1012390.21721
  19159947.6504  -24598138.63648 -19167325.73464
  20332392.0574   -2906772.02146  -2265019.31662
  20080412.674   -19533783.944 7 -15148115.69822
 91  3 27  0 19 59.9940000  0  4G15G 2G19G 6
  22306028.3694   -1426201.94545  -1044046.26761
  19156017.190   -24618792.432 8 -19183419.57324
  20335133.3464   -2892369.48546  -2253796.59062
  20071917.361   -19578431.925 7 -15182906.27722
 91  3 27  0 20 14.9940000  0  4G15G 2G19G 6
  22298316.166    -1466741.326 5  -1075635.31521
  19152097.2444  -24639387.91448 -19199467.96964
  20337888.791    -2877890.778 6  -2242514.49722
  20063427.400   -19623052.075 7 -15217675.17322
 91  3 27  0 20 29.9940000  0  4G15G 2G19G 6
  22290613.4004   -1507208.90245  -1107168.36861
  19148187.510   -24659939.636 8 -19215482.27424
  20340656.0254   -2863350.43446  -2231184.39662
  20054937.393   -19667658.850 7 -15252433.65122
 91  3 27  0 20 44.9940000  0  4G15G 2G19G 6
  22282926.065    -1547601.422 5  -1138642.95121
  19144285.525   -24680444.625 8 -19231460.16524
  20343436.002    -2848745.591 6  -2219804.01422
  20046452.236   -19712249.087 7 -15287179.24022
 91  3 27  0 20 59.9940000  0  4G15G 2G19G 6
  22275259.2214   -1587903.16245  -1170046.81961
  19140395.1904  -24700887.77748 -19247389.86964
  20346228.799    -2834061.002 6  -2208361.50322
  20037973.510   -19756807.359 7 -15321899.92522
 91  3 27  0 21 14.9940000  0  4G15G 2G19G 6
  22267604.9554   -1628127.06845  -1201390.00261
  19136514.268   -24721282.547 8 -19263281.87424
  20349038.924    -2819309.863 6  -2196867.12822
  20029497.5574  -19801346.79047 -15356605.91762
 91  3 27  0 21 29.9940000  0  4G15G 2G19G 6
  22259963.8224   -1668274.78945  -1232673.82961
  19132642.041   -24741630.971 8 -19279137.76524
  20351855.611    -2804494.247 6  -2185322.52122
  20021026.096   -19845869.194 7 -15391298.64622
 91  3 27  0 21 44.9940000  0  4G15G 2G19G 6
  22252340.7834   -1708325.94245  -1263882.44561
  19128782.5964  -24761912.85748 -19294941.80764
  20354693.002    -2789593.977 6  -2173711.94522
  20012561.330   -19890354.083 7 -15425962.15722
 91  3 27  0 21 59.9940000  0  4G15G 2G19G 6
  22244738.190    -1748278.561 5  -1295014.22321
  19124936.830   -24782126.601 8 -19310692.75124
  20357545.174    -2774607.158 6  -2162033.93222
  20004104.1044  -19934799.54347 -15460594.91762
 91  3 27  0 22 14.9940000  0  4G15G 2G19G 6
  22237150.690    -1788148.703 5  -1326081.74521
  19121098.994   -24802289.077 8 -19326403.74924
  20360408.1274   -2759550.69946  -2150301.66362
  19995649.807   -19979222.087 7 -15495209.83422
 91  3 27  0 22 29.9940000  0  4G15G 2G19G 6
  22229577.3384   -1827952.43645  -1357097.58261
  19117269.596   -24822416.721 8 -19342087.60424
  20363282.4474   -2744440.92346  -2138527.85362
  19987198.2364  -20023637.92447 -15529819.51962
 91  3 27  0 22 44.9940000  0  4G15G 2G19G 6
  22222023.549    -1867646.566 5  -1388027.96521
  19113453.807   -24842466.439 8 -19357710.73724
  20366179.744    -2729234.828 6  -2126678.96522
  19978754.213   -20068003.900 7 -15564390.35522
 91  3 27  0 22 59.9940000  0  4G15G 2G19G 6
  22214484.5184   -1907260.07645  -1418895.53261
  19109648.221   -24862467.632 8 -19373296.06424
  20369086.338    -2713961.877 6  -2114777.99022
  19970316.955   -20112349.141 7 -15598945.04322
 91  3 27  0 23 14.9940000  0  4G15G 2G19G 6
  22206964.244    -1946790.459 5  -1449698.35621
  19105850.979   -24882418.339 8 -19388842.04324
  20372004.3304   -2698619.80846  -2102823.16962
  19961882.229   -20156671.325 7 -15633481.75222
 91  3 27  0 23 29.9940000  0  4G15G 2G19G 6
  22199458.315    -1986231.850 5  -1480431.82821
  19102065.760   -24902312.950 8 -19404344.31624
  20374937.479    -2683203.082 6  -2090810.15622
  19953453.135   -20200964.528 7 -15667995.88622
 91  3 27  0 23 44.9940000  0  4G15G 2G19G 6
  22191971.580    -2025585.433 5  -1511096.89121
  19098289.338   -24922153.484 8 -19419804.44824
  20377885.3154   -2667713.53446  -2078740.41462
  19945028.2134  -20245230.50247 -15702488.79962
 91  3 27  0 23 59.9940000  0  4G15G 2G19G 6
  22184496.885    -2064850.562 5  -1541693.01221
  19094524.127   -24941939.502 8 -19435222.10524
  20380845.8544   -2652150.74146  -2066613.59762
  19936611.8774  -20289468.45647 -15736959.86862
 91  3 27  0 24 14.9940000  0  4G15G 2G19G 6
  22177037.5334   -2104037.50845  -1572228.21061
  19090767.955   -24961681.558 8 -19450605.50824
  20383819.9244   -2636525.13046  -2054437.82662
  19928196.908   -20333688.710 7 -15771417.16022
 91  3 27  0 24 29.9940000  0  4G15G 2G19G 6
  22169602.986    -2143123.063 5  -1602684.41721
  19087023.768   -24981356.671 8 -19465936.74024
  20386809.3544   -2620813.74046  -2042195.21262
  19919788.736   -20377868.125 7 -15805842.63022
 91  3 27  0 24 44.9940000  0  4G15G 2G19G 6
  22162183.236    -2182121.692 5  -1633072.86521
  19083289.065   -25000980.009 8 -19481227.64024
  20389813.1904   -2605031.73746  -2029897.57661
  19911388.6274  -20422021.68147 -15840247.93462
 91  3 27  0 24 59.9940000  0  4G15G 2G19G 6
  22154774.002    -2221042.561 5  -1663400.71321
  19079563.447   -25020561.284 8 -19496485.75724
  20392827.2524   -2589188.60546  -2017552.30661
  19902986.440   -20466158.664 7 -15874640.33522
 91  3 27  0 25 14.9940000  0  4G15G 2G19G 6
  22147388.8384   -2259858.77245  -1693647.06061
  19075850.010   -25040073.779 8 -19511690.28324
  20395861.635    -2573257.767 6  -2005138.69021
  19894596.4084  -20510252.04647 -15908998.75662
 91  3 27  0 25 29.9940000  0  4G15G 2G19G 6
  22140020.6824   -2298580.92145  -1723820.08061
  19072147.604   -25059528.418 8 -19526849.72124
  20398907.393    -2557250.174 6  -1992665.26221
  19886211.361   -20554312.649 7 -15943331.64322
 91  3 27  0 25 44.9940000  0  4G15G 2G19G 6
  22132666.596    -2337213.325 5  -1753923.15821
  19068455.205   -25078929.947 8 -19541967.77824
  20401965.971    -2541170.271 6  -1980135.49221
  19877833.330   -20598344.783 7 -15977642.34122
 91  3 27  0 25 59.9940000  0  4G15G 2G19G 6
  22125332.3154   -2375765.52545  -1783963.79361
  19064771.291   -25098288.507 8 -19557052.34724
  20405037.1434   -2525028.10546  -1967557.20661
  19869459.291   -20642358.322 7 -16011938.55022
 91  3 27  0 26 14.9940000  0  4G15G 2G19G 6
  22118013.8464   -2414223.68845  -1813931.07661
  19061099.143   -25117590.875 8 -19572093.13124
  20408124.3854   -2508810.43646  -1954920.09061
  19861087.8154  -20686339.77647 -16046209.75762
 91  3 27  0 26 29.9940000  0  4G15G 2G19G 6
  22110712.775    -2452594.831 5  -1843830.59221
  19057435.002   -25136844.104 8 -19587095.63024
  20411224.9944   -2492524.33445  -1942229.65361
  19852724.799   -20730295.898 7 -16080461.22422
 91  3 27  0 26 44.9940000  0  4G15G 2G19G 6
  22103426.4004   -2490872.71645  -1873657.43761
  19053781.533   -25156042.158 8 -19602055.13324
  20414335.5254   -2476163.55645  -1929481.02361
  19844364.385   -20774220.412 7 -16114688.06922
 91  3 27  0 26 59.9940000  0  4G15G 2G19G 6
  22096166.5184   -2529040.72145  -1903398.66261
  19050141.768   -25175168.982 8 -19616959.13024
  20417468.6434   -2459711.98845  -1916661.65461
  19836015.9404  -20818096.95647 -16148877.51962
 91  3 27  0 27 14.9940000  0  4G15G 2G19G 6
  22088918.065    -2567121.957 5  -1933072.23121
  19046511.143   -25194248.389 8 -19631826.17924
  20420609.9084   -2443193.49145  -1903790.12961
  19827672.596   -20861949.027 7 -16183047.91522
 91  3 27  0 27 29.9930000  0  4G15G 2G19G 6
  22081686.7474   -2605107.60045  -1962671.35261
  19042891.685   -25213272.917 8 -19646650.46824
  20423765.1614   -2426603.08146  -1890862.56461
  19819331.6464  -20905767.47147 -16217192.09362
 91  3 27  0 27 44.9930000  0  4G15G 2G19G 6
  22074474.9584   -2643005.35345  -1992201.99161
  19039280.317   -25232248.164 8 -19661436.35124
  20426936.9974   -2409941.54146  -1877879.58561
  19810998.1924  -20949560.79747 -16251316.71662
 91  3 27  0 27 59.9930000  0  4G15G 2G19G 6
  22067284.739    -2680805.805 5  -2021656.79621
  19035679.317   -25251166.796 7 -19676178.12424
  20430123.989    -2393203.627 6  -1864837.07422
  19802673.3724  -20993319.36847 -16285414.25062
 91  3 27  0 28 14.9930000  0  4G15G 2G19G 6
  22060112.372    -2718505.891 5  -2051033.40821
  19032091.583   -25270025.815 8 -19690873.43924
  20433325.942    -2376386.547 6  -1851732.87421
  19794352.107   -21037040.190 7 -16319482.36922
 91  3 27  0 28 29.9930000  0  4G15G 2G19G 6
  22052952.614    -2756106.146 5  -2080332.15121
  19028513.607   -25288825.910 8 -19705522.83824
  20436538.005    -2359491.051 6  -1838567.57622
  19786037.685   -21080723.802 7 -16353521.50322
 91  3 27  0 28 44.9930000  0  4G15G 2G19G 6
  22045819.747    -2793602.630 5  -2109550.11121
  19024948.5444  -25307563.87348 -19720123.82264
  20439770.474    -2342513.585 6  -1825338.40522
  19777735.724   -21124366.544 7 -16387528.77622
 91  3 27  0 28 59.9930000  0  4G15G 2G19G 6
  22038700.6074   -2831010.14645  -2138698.71161
  19021391.997   -25326254.777 8 -19734688.14324
  20443014.8414   -2325469.39446  -1812057.24662
  19769433.7864  -21167983.36747 -16421515.85562
 91  3 27  0 29 14.9930000  0  4G15G 2G19G 6
  22031599.4974   -2868325.98045  -2167775.93561
  19017844.849   -25344896.174 8 -19749213.88124
  20446269.903    -2308355.915 6  -1798722.08422
  19761141.013   -21211571.506 7 -16455480.58422
 91  3 27  0 29 29.9930000  0  4G15G 2G19G 6
  22024514.060    -2905553.163 5  -2196784.00321
  19014305.2474  -25363491.55148 -19763703.75964
  20449538.6074   -2291176.56146  -1785335.60662
  19752849.216   -21255134.272 7 -16489425.55922
 91  3 27  0 29 44.9930000  0  4G15G 2G19G 6
  22017451.560    -2942683.209 5  -2225716.41921
  19010776.716   -25382032.979 8 -19778151.60524
  20452820.364    -2273923.208 6  -1771891.45822
  19744566.099   -21298663.140 7 -16523344.10522
 91  3 27  0 29 59.9930000  0  4G15G 2G19G 6
  22010402.8104   -2979718.43445  -2254574.91161
  19007258.239   -25400523.256 8 -19792559.59324
  20456120.1464   -2256598.84946  -1758391.98662
  19736289.325   -21342160.750 7 -16557238.29822
 91  3 27  0 30 14.9930000  0  4G15G 2G19G 6
  22003370.7164   -3016676.95245  -2283373.66161
  19003746.325   -25418980.829 8 -19806942.09224
  20459426.4584   -2239221.68646  -1744851.36262
  19728015.247   -21385645.266 7 -16591122.28122
 91  3 27  0 30 29.9930000  0  4G15G 2G19G 6
  21996357.208    -3053532.714 5  -2312092.38121
  19000244.482   -25437379.876 8 -19821278.98824
  20462747.224    -2221765.805 6  -1731249.39921
  19719748.989   -21429090.560 7 -16624975.71222
 91  3 27  0 30 44.9930000  0  4G15G 2G19G 6
  21989358.2004   -3090293.08245  -2340736.70861
  18996753.239   -25455728.137 8 -19835576.31424
  20466082.997    -2204238.836 6  -1717592.04821
  19711486.005   -21472503.956 7 -16658804.28222
 91  3 27  0 30 59.9930000  0  4G15G 2G19G 6
  21982388.396    -3126951.783 5  -2369301.84521
  18993272.458   -25474019.915 8 -19849829.62724
  20469433.833    -2186635.181 6  -1703874.94021
  19703231.6074  -21515879.58547 -16692603.43562
 91  3 27  0 31 14.9930000  0  4G15G 2G19G 6
  21975422.9424   -3163514.51845  -2397792.21561
  18989801.825   -25492261.193 8 -19864043.58024
  20472796.1304   -2168961.06646  -1690102.93661
  19694982.544   -21559223.208 7 -16726377.64222
 91  3 27  0 31 29.9930000  0  4G15G 2G19G 6
  21968490.903    -3199973.375 5  -2426201.63021
  18986340.833   -25510444.357 8 -19878212.25524
  20476175.2634   -2151208.84046  -1676270.05861
  19686741.864   -21602526.976 7 -16760120.79022
 91  3 27  0 31 44.9930000  0  4G15G 2G19G 6
  21961563.638    -3236351.534 5  -2454548.16921
  18982888.263   -25528592.942 8 -19892353.98524
  20479561.966    -2133401.783 6  -1662394.45921
  19678506.474   -21645814.143 7 -16793850.99922
 91  3 27  0 31 59.9930000  0  4G15G 2G19G 6
  21954659.583    -3272632.397 5  -2482818.89821
  18979443.692   -25546690.896 8 -19906456.26524
  20482963.7864   -2115523.80146  -1648463.60261
  19670273.6144  -21689068.36047 -16827555.54362
 91  3 27  0 32 14.9930000  0  4G15G 2G19G 6
  21947777.255    -3308818.708 5  -2511015.95121
  18976008.583   -25564741.400 8 -19920521.57224
  20486381.771    -2097578.055 6  -1634479.92721
  19662049.817   -21732292.377 7 -16861236.55222
 91  3 27  0 32 29.9930000  0  4G15G 2G19G 6
  21940910.411    -3344900.546 5  -2539131.60321
  18972584.224   -25582734.696 8 -19934542.29623
  20489809.583    -2079554.909 6  -1620435.93721
  19653831.755   -21775476.202 7 -16894886.23922
 91  3 27  0 32 44.9930000  0  4G15G 2G19G 6
  21934063.380    -3380882.001 5  -2567169.00921
  18969170.161   -25600675.277 8 -19948521.94823
  20493252.122    -2061458.601 6  -1606334.94121
  19645620.013   -21818624.034 7 -16928507.87922
 91  3 27  0 32 59.9930000  0  4G15G 2G19G 6
  21927235.028    -3416760.872 5  -2595126.53221
  18965766.989   -25618561.191 8 -19962459.00623
  20496712.263    -2043287.067 6  -1592175.32321
  19637418.161   -21861733.650 7 -16962099.73422
 91  3 27  0 33 14.9930000  0  4G15G 2G19G 6
  21920425.732    -3452535.529 5  -2623002.81121
  18962372.646   -25636391.368 8 -19976352.63423
  20500183.333    -2025039.261 6  -1577956.26821
  19629222.372   -21904803.659 7 -16995660.74122
 91  3 27  0 33 29.9930000  0  4G15G 2G19G 6
  21913639.5524   -3488212.35945  -2650802.89261
  18958990.6224  -25654172.45048 -19990207.99064
  20503668.341    -2006721.865 6  -1563682.98821
  19621030.958   -21947840.489 7 -17029195.88222
 91  3 27  0 33 44.9930000  0  4G15G 2G19G 6
  21906865.435    -3523796.079 5  -2678530.41621
  18955613.810   -25671909.646 8 -20004029.16224
  20507167.700    -1988340.369 6  -1549359.77321
  19612847.9354  -21990849.07547 -17062709.03462
 91  3 27  0 33 59.9930000  0  4G15G 2G19G 6
  21900114.177    -3559270.159 5  -2706172.47021
  18952250.669   -25689586.853 8 -20017803.58524
  20510680.200    -1969878.364 6  -1534973.80921
  19604671.833   -22033813.029 7 -17096187.39722
 91  3 27  0 34 14.9930000  0  4G15G 2G19G 6
  21893388.482    -3594631.700 5  -2733726.90121
  18948899.325   -25707201.747 8 -20031529.45224
  20514208.755    -1951333.296 6  -1520523.13921
  19596505.3174  -22076729.54747 -17129628.79962
 91  3 27  0 34 29.9930000  0  4G15G 2G19G 6
  21886675.5054   -3629887.52545  -2761198.89061
  18945558.442   -25724761.144 8 -20045212.08624
  20517753.122    -1932712.022 6  -1506013.07121
  19588346.802   -22119605.096 7 -17163038.27422
 91  3 27  0 34 44.9930000  0  4G15G 2G19G 6
  21879990.161    -3665034.092 5  -2788585.82121
  18942227.138   -25742261.983 8 -20058849.08224
  20521307.1924   -1914011.53546  -1491441.29961
  19580196.8254  -22162436.49347 -17196413.34562
 91  3 27  0 34 59.9930000  0  4G15G 2G19G 6
  21873319.325    -3700088.406 5  -2815900.82221
  18938904.567   -25759721.558 8 -20072453.93324
  20524880.653    -1895249.244 6  -1476821.35121
  19572050.552   -22205240.829 7 -17229767.32922
 91  3 27  0 35 14.9930000  0  4G15G 2G19G 6
  21866666.9744   -3735038.99145  -2843134.95961
  18935592.583   -25777128.916 8 -20086018.08324
  20528465.622    -1876414.089 6  -1462144.63021
  19563912.2784  -22248006.76247 -17263091.39062
 91  3 27  0 35 29.9930000  0  4G15G 2G19G 6
  21860038.1614   -3769877.95245  -2870282.16961
  18932290.232   -25794476.776 8 -20099535.88124
  20532065.505    -1857498.713 6  -1447405.39921
  19555783.450   -22290726.768 7 -17296379.65922
 91  3 27  0 35 44.9930000  0  4G15G 2G19G 6
  21853426.521    -3804622.864 5  -2897356.05021
  18928997.450   -25811782.696 8 -20113020.99524
  20535676.521    -1838520.724 6  -1432617.37821
  19547658.1384  -22333417.98647 -17329645.50462
 91  3 27  0 35 59.9930000  0  4G15G 2G19G 6
  21846836.2554   -3839250.90245  -2924338.88561
  18925716.505   -25829024.224 8 -20126455.93223
  20539303.3884   -1819457.49745  -1417762.94661
  19539544.771   -22376057.663 7 -17362871.17922
 91  3 27  0 36 14.9930000  0  4G15G 2G19G 6
  21840270.8024   -3873772.41046  -2951238.68061
  18922445.7324  -25846212.14048 -20139849.09964
  20542945.005    -1800319.836 5  -1402850.50921
  19531438.4274  -22418656.44947 -17396064.99562
 91  3 27  0 36 29.9930000  0  4G15G 2G19G 6
  21833716.146    -3908191.879 5  -2978058.99721
  18919184.169   -25863351.360 8 -20153204.31624
  20546599.9114   -1781112.53445  -1387883.81061
  19523338.677   -22461218.818 7 -17429230.42722
 91  3 27  0 36 44.9930000  0  4G15G 2G19G 6
  21827190.552    -3942499.342 5  -3004792.01521
  18915934.552   -25880432.378 8 -20166514.18123
  20550271.5134   -1761826.08745  -1372855.44161
  19515247.841   -22503735.041 7 -17462359.91422
 91  3 27  0 36 59.9930000  0  4G15G 2G19G 6
  21820680.614    -3976704.115 5  -3031445.00621
  18912693.810   -25897464.840 8 -20179786.21624
  20553952.271    -1742470.360 5  -1357773.09521
  19507164.622   -22546214.402 7 -17495460.66022
 91  3 27  0 37 14.9930000  0  4G15G 2G19G 6
  21814191.9034   -4010799.07445  -3058012.43661
  18909462.411   -25914441.822 8 -20193015.01424
  20557652.942    -1723038.547 5  -1342631.45021
  19499090.872   -22588649.829 7 -17528527.17622
 91  3 27  0 37 29.9930000  0  4G15G 2G19G 6
  21807725.755    -4044780.781 5  -3084491.61021
  18906243.146   -25931360.313 8 -20206198.23223
  20561365.1924   -1703527.28345  -1327427.89861
  19491023.435   -22631037.839 7 -17561556.74622
 91  3 27  0 37 44.9930000  0  4G15G 2G19G 6
  21801279.5834   -4078666.95845  -3110896.33261
  18903032.489   -25948238.457 8 -20219350.01824
  20565091.0674   -1683954.82345  -1312176.66062
  19482963.677   -22673396.331 7 -17594563.31722
 91  3 27  0 37 59.9930000  0  4G15G 2G19G 6
  21794849.7784   -4112450.18245  -3137220.83461
  18899827.583   -25965069.298 8 -20232464.94424
  20568827.4274   -1664314.15545  -1296872.29061
  19474910.177   -22715718.008 7 -17627541.19922
 91  3 27  0 38 14.9930000  0  4G15G 2G19G 6
  21788445.1384   -4146113.99945  -3163452.29361
  18896637.536   -25981836.679 8 -20245530.41824
  20572580.8574   -1644588.95845  -1281502.02962
  19466865.685   -22757986.481 7 -17660477.62422
 91  3 27  0 38 29.9930000  0  4G15G 2G19G 6
  21782061.271    -4179660.582 6  -3189592.41321
  18893458.357   -25998542.616 8 -20258548.01823
  20576349.2784   -1624781.48446  -1266067.66761
  19458831.6384  -22800203.60847 -17693374.04662
 91  3 27  0 38 44.9930000  0  4G15G 2G19G 6
  21775694.271    -4213102.445 5  -3215650.91621
  18890288.099   -26015200.302 8 -20271528.01623
  20580132.1614   -1604904.67345  -1250579.27561
  19450805.044   -22842382.017 7 -17726240.29222
 91  3 27  0 38 59.9930000  0  4G15G 2G19G 6
  21769351.396    -4246445.591 5  -3241632.49921
  18887126.942   -26031816.320 8 -20284475.54623
  20583925.997    -1584965.217 5  -1235042.08221
  19442784.411   -22884528.157 7 -17759081.39223
 91  3 27  0 39 14.9930000  0  4G15G 2G19G 6
  21763022.161    -4279696.716 5  -3267542.36421
  18883971.302   -26048397.305 8 -20297395.77524
  20587731.0674   -1564969.86145  -1219461.32862
  19434770.3804  -22926648.44347 -17791902.35763
 91  3 27  0 39 29.9930000  0  4G15G 2G19G 6
  21756717.9034   -4312830.50645  -3293360.79361
  18880827.216   -26064918.418 8 -20310269.35323
  20591554.7714   -1544893.71845  -1203817.61661
  19426764.021   -22968717.618 7 -17824683.48423
 91  3 27  0 39 44.9930000  0  5G15G 2G13G19G 6
  21750430.849    -4345864.644 5  -3319101.61321
  18877691.122   -26081397.971 8 -20323110.54523
  21329599.0284         -0.04254
  20595383.513    -1524754.828 5  -1188125.01821
  19418765.278   -23010753.553 7 -17857438.70622
 91  3 27  0 39 59.9930000  0  5G15G 2G13G19G 6
  21744165.958    -4378783.552 5  -3344752.63621
  18874566.497   -26097820.856 7 -20335907.58323
  21315984.0284     -71573.03344
  20599229.2164   -1504538.27345  -1172371.89861
  19410775.099   -23052741.045 7 -17890156.18823
 91  3 27  0 40 14.9930000  0  5G15G 2G13G19G 6
  21737926.8884   -4411586.88345  -3370313.57261
  18871451.607   -26114186.670 7 -20348660.13723
  21302373.685     -143084.044 4
  20603095.1304   -1484243.58746  -1156557.89261
  19402793.841   -23094679.248 7 -17922835.26023
 91  3 27  0 40 29.9930000  0  5G15G 2G13G19G 6
  21731701.489    -4444282.975 5  -3395790.98521
  18868347.294   -26130504.388 8 -20361375.22723
  21288775.099     -214541.444 4
  20606967.8024   -1463879.58845  -1140689.88561
  19394820.786   -23136576.764 7 -17955482.63222
 91  3 27  0 40 44.9930000  0  5G15G 2G13G19G 6
  21725506.8644   -4476858.74245  -3421174.60361
  18865253.560   -26146760.805 8 -20374042.55223
  21275186.755     -285931.851 4        -0.16231
  20610858.1774   -1443433.28446  -1124757.73561
  19386858.661   -23178420.330 7 -17988087.96123
 91  3 27  0 40 59.9930000  0  5G15G 2G13G19G 6
  21719318.7084   -4509343.63645  -3446487.42361
  18862165.372   -26162985.994 8 -20386685.53524
  21261613.1924    -357285.03644    -55599.79761
  20614762.0834   -1422934.72646  -1108784.87461
  19378901.052   -23220239.704 7 -18020674.44023
 91  3 27  0 41 14.9930000  0  5G15G 2G13G19G 6
  21713160.6074   -4541714.01145  -3471710.98361
  18859087.505   -26179156.711 7 -20399286.07224
  21248043.4894    -428577.32644   -111151.98261
  20618676.6774   -1402360.65746  -1092753.16161
  19370952.278   -23262011.288 7 -18053223.68322
 91  3 27  0 41 29.9930000  0  5G15G 2G13G19G 6
  21707024.489    -4573965.094 5  -3496841.63521
  18856021.755   -26195268.306 7 -20411840.53824
  21234490.6614    -499803.48644   -166652.64061
  20622607.3104   -1381706.42846  -1076658.98861
  19363012.388   -23303730.024 7 -18085731.73723
 91  3 27  0 41 44.9930000  0  5G15G 2G13G19G 6
  21700910.005    -4606094.835 5  -3521877.71521
  18852967.685   -26211319.263 7 -20424347.76024
  21220949.075     -570961.656 4   -222100.33421
  20626551.622    -1360970.671 6  -1060501.30321
  19355084.9824  -23345394.30247 -18118197.36863
 91  3 27  0 41 59.9930000  0  5G15G 2G13G19G 6
  21694813.247    -4638127.997 5  -3546838.59021
  18849920.372   -26227334.921 7 -20436827.46924
  21207418.333     -642076.387 4   -277514.08721
  20630507.6614   -1340178.49946  -1044299.64861
  19347162.794   -23387028.905 7 -18150639.86823
 91  3 27  0 42 14.9930000  0  5G15G 2G13G19G 6
  21688744.0134   -4670047.08145  -3571710.55261
  18846883.380   -26243298.037 8 -20449266.24323
  21193894.114     -713130.260 4   -332880.53021
  20634477.9584   -1319312.74246  -1028040.65161
  19339249.138   -23428616.367 7 -18183045.64023
 91  3 27  0 42 29.9930000  0  5G15G 2G13G19G 6
  21682690.067    -4701847.493 5  -3596490.06221
  18843856.185   -26259204.100 8 -20461660.56124
  21180383.216     -784118.409 5   -388195.67121
  20638465.161    -1298368.802 6  -1011720.73621
  19331343.591   -23470151.941 7 -18215410.97823
 91  3 27  0 42 44.9930000  0  5G15G 2G13G19G 6
  21676658.482    -4733542.106 5  -3621187.07921
  18840837.482   -26275066.319 8 -20474020.71423
  21166887.841     -855053.599 5   -443469.64221
  20642461.6854   -1277360.05846   -995350.32961
  19323449.880   -23511648.516 7 -18247745.92823
 91  3 27  0 42 59.9930000  0  5G15G 2G13G19G 6
  21670655.2324   -4765102.01645  -3645779.16361
  18837832.958   -26290856.238 8 -20486324.52623
  21153406.7474    -925906.79745   -498679.66061
  20646479.1854   -1256257.83946   -978907.07561
  19315563.216   -23553077.278 7 -18280028.04123
 91  3 27  0 43 14.9930000  0  5G15G 2G13G19G 6
  21664662.3414   -4796567.80945  -3670297.86561
  18834834.224   -26306614.664 8 -20498603.79823
  21139927.9354    -996718.35345   -553857.27561
  20650505.0214   -1235102.94746   -962422.77961
  19307685.1854  -23594478.71447 -18312288.86063
 91  3 27  0 43 29.9930000  0  5G15G 2G13G19G 6
  21658698.8334   -4827926.48545  -3694733.14361
  18831844.349   -26322328.704 8 -20510848.48423
  21126464.372    -1067475.083 5   -608992.15621
  20654542.528    -1213882.719 6   -945887.58121
  19299814.146   -23635839.784 7 -18344518.22223
 91  3 27  0 43 44.9930000  0  5G15G 2G13G19G 6
  21652752.4194   -4859169.48145  -3719078.26161
  18828862.974   -26337990.602 8 -20523052.54223
  21113012.528    -1138168.883 5   -664077.94121
  20658593.4664   -1192589.30246   -929295.35561
  19291954.1774  -23677152.33947 -18376709.78963
 91  3 27  0 43 59.9930000  0  5G15G 2G13G19G 6
  21646827.6074   -4890302.64745  -3743337.79661
  18825892.099   -26353606.318 8 -20535220.61023
  21099569.614    -1208805.298 5   -719119.06121
  20662660.0604   -1171228.65546   -912650.73561
  19284100.896   -23718422.054 7 -18408867.96323
 91  3 27  0 44 14.9930000  0  5G15G 2G13G19G 6
  21640927.505    -4921306.276 5  -3767496.41721
  18822932.200   -26369156.314 8 -20547337.47123
  21086143.482    -1279364.462 5   -774100.01221
  20666740.0444   -1149781.18246   -895938.45761
  19276258.2634  -23759628.94547 -18440977.19363
 91  3 27  0 44 29.9930000  0  5G15G 2G13G19G 6
  21635046.177    -4952206.702 6  -3791574.61721
  18819981.7164  -26384667.30748 -20559423.93063
  21072725.7784   -1349872.37145   -829040.97961
  20670831.5914   -1128273.63845   -879179.37161
  19268424.630   -23800799.502 7 -18473058.09423
 91  3 27  0 44 44.9930000  0  5G15G 2G13G19G 6
  21629185.2394   -4983013.94946  -3815580.21561
  18817034.239   -26400149.764 8 -20571488.16123
  21059317.567    -1420338.955 5   -883949.78121
  20674934.4664   -1106716.50545   -862381.64261
  19260594.278   -23841943.968 7 -18505118.67023
 91  3 27  0 44 59.9930000  0  5G15G 2G13G19G 6
  21623345.8024   -5013699.42746  -3839490.91461
  18814099.224   -26415575.478 8 -20583508.18223
  21045919.7164   -1490735.97145   -938804.34561
  20679051.216    -1085081.507 5   -845523.25421
  19252774.653   -23883033.901 7 -18537136.75423
 91  3 27  0 45 14.9930000  0  5G15G 2G13G19G 6
  21617530.5054   -5044263.75446  -3863307.25161
  18811174.653   -26430945.403 8 -20595484.71723
  21032536.208    -1561063.715 5   -993604.93621
  20683184.474    -1063369.646 5   -828604.95021
  19244966.169   -23924069.717 7 -18569112.67423
 91  3 27  0 45 29.9930000  0  5G15G 2G13G19G 6
  21611734.9974   -5074719.67646  -3887039.06761
  18808257.2944  -26446272.97148 -20607428.25163
  21019163.1774   -1631335.25345  -1048361.73661
  20687327.8494   -1041594.44045   -811637.30161
  19237166.130   -23965064.530 7 -18601056.63523
 91  3 27  0 45 44.9930000  0  5G15G 2G13G19G 6
  21605959.6774   -5105062.26846  -3910682.62061
  18805349.864   -26461552.987 8 -20619334.72723
  21005804.263    -1701544.972 5  -1103070.39621
  20691482.450    -1019750.640 5   -794616.19821
  19229373.849   -24006012.966 7 -18632964.46423
 91  3 27  0 45 59.9930000  0  5G15G 2G13G19G 6
  21600203.9274   -5135304.50745  -3934247.93461
  18802449.021   -26476798.615 8 -20631214.41823
  20992452.130    -1771705.710 5  -1157740.83321
  20695652.630     -997851.487 5   -777551.98621
  19221586.817   -24046927.851 7 -18664846.14123
 91  3 27  0 46 14.9930000  0  5G15G 2G13G19G 6
  21594473.7714   -5165413.59146  -3957709.49461
  18799560.646   -26491977.729 8 -20643042.27623
  20979114.708    -1841784.853 5  -1212347.72921
  20699834.474     -975864.815 5   -760419.54421
  19213814.5674  -24087776.84447 -18696676.48563
 91  3 27  0 46 29.9930000  0  5G15G 2G13G19G 6
  21588766.4894   -5195412.26145  -3981085.02261
  18796680.122   -26507113.272 8 -20654836.18823
  20965792.403    -1911805.000 6  -1266908.63521
  20704029.8254    -953813.53145   -743236.76261
  19206048.497   -24128582.412 7 -18728472.99123
 91  3 27  0 46 44.9930000  0  5G15G 2G13G19G 6
  21583079.778    -5225285.497 5  -4004362.81521
  18793811.380   -26522190.520 8 -20666584.67023
  20952481.2554   -1981750.85445  -1321411.65361
  20708242.583     -931683.010 5   -725992.24421
  19198295.294   -24169329.672 7 -18760224.05723
 91  3 27  0 46 59.9930000  0  5G15G 2G13G19G 6
  21577418.7324   -5255044.87846  -4027551.87761
  18790951.724   -26537221.396 8 -20678297.01823
  20939182.3644   -2051634.01645  -1375865.81561
  20712467.341     -909484.980 5   -708695.12521
  19190548.169   -24210030.191 7 -18791938.70823
 91  3 27  0 47 14.9930000  0  5G15G 2G13G19G 6
  21571772.942    -5284699.288 5  -4050659.16721
  18788097.450   -26552215.167 8 -20689980.45623
  20925893.4584   -2121463.28545  -1430277.98761
  20716701.263     -887228.873 5   -691352.74321
  19182812.0054  -24250692.92047 -18823623.91663
 91  3 27  0 47 29.9930000  0  5G15G 2G13G19G 6
  21566160.4894   -5314221.50446  -4073663.43261
  18785255.7554  -26567144.74048 -20701613.86363
  20912621.310    -2191211.144 5  -1484626.71021
  20720951.192     -864887.568 5   -673943.98021
  19175085.880   -24291290.337 7 -18855258.22223
 91  3 27  0 47 44.9930000  0  5G15G 2G13G19G 6
  21560557.200    -5343647.052 5  -4096592.36821
  18782421.107   -26582045.936 8 -20713225.15923
  20899356.966    -2260913.056 5  -1538939.63421
  20725214.153     -842496.905 5   -656496.76721
  19167366.5444  -24331858.08847 -18886869.41563
 91  3 27  0 47 59.9930000  0  5G15G 2G13G19G 6
  21554976.099    -5372959.900 5  -4119433.50721
  18779593.896   -26596902.984 8 -20724802.05423
  20886104.817    -2330552.910 5  -1593204.20721
  20729489.6924    -820041.42545   -638999.03761
  19159654.771   -24372380.171 7 -18918445.02523
 91  3 27  0 48 14.9930000  0  5G15G 2G13G19G 6
  21549422.958    -5402170.245 5  -4142194.75921
  18776773.403   -26611726.695 8 -20736352.97623
  20872862.997    -2400141.129 5  -1647428.53321
  20733770.5994    -797531.64445   -621458.99461
  19151950.3334  -24412866.90747 -18949993.09663
 91  3 27  0 48 29.9930000  0  5G15G 2G13G19G 6
  21543885.4974   -5431263.28145  -4164864.60161
  18773961.341   -26626502.607 8 -20747866.64923
  20859633.9274   -2469662.69745  -1701600.93061
  20738065.3414    -774953.08345   -603865.34961
  19144255.6074  -24453303.56847 -18981502.14363
 91  3 27  0 48 44.9930000  0  5G15G 2G13G19G 6
  21538377.357    -5460219.842 5  -4187428.10021
  18771161.661   -26641211.673 7 -20759328.23723
  20846422.1614   -2539098.10746  -1755706.18061
  20742381.982     -752286.702 5   -586203.28421
  19136573.4504  -24493670.89147 -19012957.16363
 91  3 27  0 48 59.9930000  0  5G15G 2G13G19G 6
  21532887.271    -5489067.604 5  -4209906.81321
  18768369.341   -26655881.962 7 -20770759.61423
  20833217.8104   -2608475.00646  -1809765.86161
  20746703.653     -729560.799 5   -568494.82421
  19128900.2944  -24533996.55147 -19044379.71463
 91  3 27  0 49 14.9930000  0  5G15G 2G13G19G 6
  21527415.153    -5517792.752 5  -4232290.01121
  18765587.763   -26670499.928 7 -20782150.21223
  20820029.552    -2677779.392 6  -1863769.02921
  20751045.028     -706761.647 5   -550729.29321
  19121238.724   -24574266.613 7 -19075758.94323
 91  3 27  0 49 29.9930000  0  5G15G 2G13G19G 6
  21521977.685    -5546389.136 5  -4254572.82421
  18762817.419   -26685059.727 7 -20793495.49623
  20806856.247    -2747005.093 6  -1917710.89221
  20755395.677     -683883.500 5   -532902.22121
  19113587.271   -24614474.939 7 -19107090.06423
 91  3 27  0 49 44.9930000  0  5G15G 2G13G19G 6
  21516556.2004   -5574860.27545  -4276758.07861
  18760057.091   -26699565.082 7 -20804798.34923
  20793697.8104   -2816155.60446  -1971594.15761
  20759765.239     -660930.279 5   -515016.64421
  19105946.2164  -24654625.02347 -19138375.80963
 91  3 27  0 49 59.9930000  0  5G15G 2G13G19G 6
  21511163.3104   -5603219.65745  -4298856.19961
  18757305.521   -26714029.749 7 -20816069.50223
  20780550.8574   -2885244.12646  -2025429.13061
  20764144.232     -637915.565 5   -497083.14921
  19098315.0134  -24694730.33847 -19169626.66263
 91  3 27  0 50 14.9930000  0  5G15G 2G13G19G 6
  21505784.7324   -5631470.68145  -4320869.96261
  18754558.552   -26728457.373 7 -20827311.78623
  20767412.989    -2954273.919 6  -2079218.35321
  20768535.6854    -614843.14145   -479104.68961
  19090689.2944  -24734794.20847 -19200845.22563
 91  3 27  0 50 29.9930000  0  5G15G 2G13G19G 6
  21500433.583    -5659593.642 5  -4342783.90221
  18751824.208   -26742828.519 7 -20838510.06223
  20754292.646    -3023225.307 6  -2132946.48121
  20772943.607     -591693.655 5   -461066.17621
  19083076.1304  -24774796.97747 -19232016.17463
 91  3 27  0 50 44.9930000  0  5G15G 2G13G19G 6
  21495107.919    -5687584.363 5  -4364594.81421
  18749100.052   -26757139.397 7 -20849661.37823
  20741188.083    -3092094.013 6  -2186610.17421
  20777363.9274    -568463.30445   -442964.64761
  19075477.4034  -24814734.58247 -19263136.34863
 91  3 27  0 50 59.9930000  0  5G15G 2G13G19G 6
  21489804.4974   -5715459.22745  -4386315.46561
  18746386.685   -26771406.867 7 -20860778.86923
  20728093.372    -3160896.329 6  -2240222.13921
  20781793.599     -545169.073 5   -424813.35021
  19067887.357   -24854623.385 7 -19294218.48623
 91  3 27  0 51 14.9930000  0  5G15G 2G13G19G 6
  21484521.247    -5743229.186 5  -4407954.33221
  18743677.903   -26785642.191 7 -20871871.31423
  20715011.2784   -3229642.98846  -2293790.74061
  20786237.380     -521821.816 5   -406620.73222
  19060302.669   -24894474.319 7 -19325271.11823
 91  3 27  0 51 29.9930000  0  5G15G 2G13G19G 6
  21479256.802    -5770877.325 5  -4429498.28321
  18740978.536   -26799828.657 7 -20882925.68523
  20701944.153    -3298316.671 6  -2347302.47421
  20790696.841     -498404.858 5   -388373.79922
  19052729.7164  -24934270.19147 -19356280.85363
 91  3 27  0 51 44.9930000  0  5G15G 2G13G19G 6
  21474023.1304   -5798390.49145  -4450937.05761
  18738289.9114  -26813953.04547 -20893931.69663
  20688890.724    -3366904.345 6  -2400747.19421
  20795165.208     -474905.276 5   -370062.48322
  19045172.138   -24973997.884 7 -19387237.45323
 91  3 27  0 51 59.9930000  0  5G15G 2G13G19G 6
  21468810.6224   -5825780.57045  -4472279.91261
  18735612.028   -26828027.852 7 -20904899.05723
  20675855.903    -3435417.975 6  -2454134.19821
  20799653.427     -451335.569 5   -351696.52822
  19037621.177   -25013669.326 7 -19418150.22423
 91  3 27  0 52 14.9930000  0  5G15G 2G13G19G 6
  21463622.0444   -5853034.58545  -4493516.73761
  18732943.8964  -26842039.85247 -20915817.48863
  20662833.3574   -3503844.23746  -2507453.14261
  20804153.677     -427682.793 5   -333265.83622
  19030086.1074  -25053271.21847 -19449008.80563
 91  3 27  0 52 29.9930000  0  5G15G 2G13G19G 6
  21458460.3174   -5880183.04945  -4514671.29861
  18730285.505   -26856020.285 7 -20926711.32023
  20649824.0524   -3572213.67246  -2560727.82761
  20808659.997     -403977.972 5   -314794.59222
  19022557.349   -25092834.336 7 -19479837.16523
 91  3 27  0 52 44.9930000  0  5G15G 2G13G19G 6
  21453315.786    -5907208.470 5  -4535729.94921
  18727634.302   -26869952.109 7 -20937567.27123
  20636827.497    -3640508.628 6  -2613944.45521
  20813186.607     -380204.081 5   -296269.53022
  19015038.677   -25132341.353 7 -19510621.81023
 91  3 27  0 52 59.9930000  0  5G15G 2G13G19G 6
  21448195.4354   -5934117.70445  -4556698.12961
  18724991.450   -26883842.494 7 -20948390.93223
  20623844.638    -3708736.022 6  -2667108.44921
  20817724.021     -356368.340 5   -277696.27022
  19007530.1534  -25171799.00947 -19541367.99963
 91  3 27  0 53 14.9930000  0  5G15G 2G13G19G 6
  21443093.817    -5960918.664 5  -4577581.95521
  18722353.786   -26897699.426 7 -20959188.52723
  20610870.692    -3776903.325 6  -2720225.61621
  20822266.997     -332478.799 5   -259081.09122
  19000029.036   -25211215.132 7 -19572081.81423
 91  3 27  0 53 29.9930000  0  5G15G 2G13G19G 6
  21438017.435    -5987597.048 6  -4598370.28421
  18719726.177   -26911508.992 7 -20969949.21423
  20597912.692    -3844996.255 6  -2773284.84521
  20826828.1074    -308521.56846   -240413.15862
  18992539.700   -25250575.257 7 -19602752.00023
 91  3 27  0 53 44.9930000  0  5G15G 2G13G19G 6
  21432966.114    -6014152.000 6  -4619062.40921
  18717106.614   -26925270.488 7 -20980672.43423
  20584970.763    -3913013.695 6  -2826285.25521
  20831399.185     -284496.050 5   -221692.02422
  18985059.7554  -25289878.48847 -19633377.85963
 91  3 27  0 53 59.9930000  0  5G15G 2G13G19G 6
  21427936.052    -6040570.949 6  -4639648.60421
  18714500.724   -26938971.491 7 -20991348.53323
  20572041.763    -3980942.972 6  -2879216.96321
  20835988.646     -260389.812 5   -202907.99422
  18977595.5054  -25329112.17847 -19663949.52863
 91  3 27  0 54 14.9930000  0  5G15G 2G13G19G 6
  21422931.0214   -6066869.81745  -4660141.17761
  18711900.3104  -26952628.28147 -21001990.17663
  20559130.8964   -4048799.88446  -2932092.28961
  20840587.372     -236219.190 6   -184073.78121
  18970138.778   -25368292.226 7 -19694479.39023
 91  3 27  0 54 29.9920000  0  5G15G 2G13G19G 6
  21417954.5164   -6093018.29145  -4680516.54261
  18709315.149   -26966211.616 7 -21012574.58723
  20546236.438    -4116551.255 6  -2984885.38621
  20845203.0474    -211957.47046   -165168.59262
  18962701.281   -25407387.410 7 -19724943.12223
 91  3 27  0 54 44.9920000  0  5G15G 2G13G19G 6
  21413004.914    -6119050.094 5  -4700800.96621
  18706738.297   -26979754.133 7 -21023127.17723
  20533358.508    -4184236.258 6  -3037626.77721
  20849830.977     -187632.118 6   -146213.81422
  18955268.883   -25446433.389 7 -19755368.51323
 91  3 27  0 54 59.9920000  0  5G15G 2G13G19G 6
  21408069.414    -6144967.566 5  -4720996.33621
  18704168.734   -26993258.950 7 -21033650.39523
  20520490.4224   -4251854.35846  -3090316.02361
  20854474.164     -163249.074 6   -127214.08222
  18947847.188   -25485431.425 7 -19785756.54623
 91  3 27  0 55 14.9920000  0  5G15G 2G13G19G 6
  21403163.2114   -6170752.87345  -4741088.70161
  18701610.219   -27006708.266 7 -21044130.36223
  20507640.7114   -4319387.22446  -3142938.88061
  20859126.914     -138790.387 6   -108155.41621
  18940440.5244  -25524363.32647 -19816093.05763
 91  3 27  0 55 29.9920000  0  5G15G 2G13G19G 6
  21398284.328    -6196394.734 6  -4761069.31721
  18699063.8994  -27020091.61447 -21054558.93463
  20494807.516    -4386823.923 6  -3195486.80821
  20863796.4534    -114245.76246    -89029.76761
  18933046.0244  -25563218.16447 -19846369.51763
 91  3 27  0 55 44.9920000  0  5G15G 2G13G19G 6
  21393425.8914   -6221920.19446  -4780959.23161
  18696523.6564  -27033436.17047 -21064957.27863
  20481986.524    -4454191.236 6  -3247980.66321
  20868481.281      -89642.513 6    -69858.44221
  18925660.320   -25602022.851 7 -19876606.88823
 91  3 27  0 55 59.9920000  0  5G15G 2G13G19G 6
  21388589.953    -6247350.237 6  -4800774.80821
  18693987.469   -27046762.913 7 -21075341.73723
  20469176.906    -4521509.814 6  -3300436.53721
  20873169.039      -65001.650 6    -50657.82121
  18918282.859   -25640798.205 7 -19906821.40523
 91  3 27  0 56 14.9920000  0  5G15G 2G13G19G 6
  21383772.766    -6272657.743 6  -4820494.90821
  18691459.649   -27060044.916 7 -21085691.34123
  20456379.1884   -4588752.53846  -3352833.32061
  20877870.633      -40296.173 6    -31406.84221
  18910914.5244  -25679517.01147 -19936991.86263
 91  3 27  0 56 29.9920000  0  5G15G 2G13G19G 6
  21378982.195    -6297838.278 6  -4840116.07821
  18688942.359   -27073277.926 7 -21096002.75723
  20443601.234    -4655914.799 6  -3405167.36921
  20882585.7744     -15521.95546    -12102.29661
  18903558.0474  -25718174.69447 -19967114.69563
 91  3 27  0 56 44.9920000  0  5G15G 2G13G19G 6
  21374211.406    -6322898.918 6  -4859643.77821
  18686432.1564  -27086469.61647 -21106281.98263
  20430831.789    -4723003.482 6  -3457444.11421
  20887310.891        9313.281 6      7249.78621
  18896211.5004  -25756778.45547 -19997195.51663
 91  3 27  0 56 59.9920000  0  5G15G 2G13G19G 6
  21369468.5784   -6347826.06446  -4879067.47561
  18683931.453   -27099606.682 7 -21116518.64224
  20418083.547    -4790005.010 6  -3509652.94221
  20892050.961       34222.868 5     26659.79921
  18888877.9844  -25795314.78647 -20027223.78663
 91  3 27  0 57 14.9920000  0  5G15G 2G13G19G 6
  21364747.8754   -6372623.44346  -4898390.06061
  18681441.586   -27112693.022 7 -21126715.77624
  20405348.2194   -4856922.81046  -3561796.49861
  20896803.992       59203.050 5     46124.83121
  18881557.3834  -25833787.18947 -20057202.24963
 91  3 27  0 57 29.9920000  0  5G15G 2G13G19G 6
  21360053.063    -6397303.067 6  -4917620.91021
  18678958.695   -27125740.825 7 -21136882.88024
  20392628.9534   -4923768.70346  -3613884.04661
  20901565.3444      84241.30445     65635.11961
  18874246.4614  -25872207.55647 -20087140.15863
 91  3 27  0 57 44.9920000  0  5G15G 2G13G19G 6
  21355380.1804   -6421856.65746  -4936753.54061
  18676483.672   -27138741.902 7 -21147013.57324
  20379922.828    -4990534.351 6  -3665909.07221
  20906346.9384     109345.87245     85197.06661
  18866947.5084  -25910567.48647 -20117030.97963
 91  3 27  0 57 59.9920000  0  5G15G 2G13G19G 6
  21350732.5394   -6446286.91046  -4955790.05061
  18674017.531   -27151699.286 7 -21157110.22024
  20367233.422    -5057222.442 6  -3717873.64821
  20911134.1954     134513.63345    104808.26861
  18859657.4534  -25948869.63047 -20146876.78063
 91  3 27  0 58 14.9920000  0  5G15G 2G13G19G 6
  21346105.1414   -6470595.11846  -4974731.47461
  18671560.852   -27164614.439 7 -21167173.96224
  20354555.875    -5123834.010 6  -3769778.60721
  20915937.188      159742.953 5    124467.42321
  18852380.5474  -25987115.21747 -20176678.50163
 91  3 27  0 58 29.9920000  0  5G15G 2G13G19G 6
  21341506.8594   -6494769.33546  -4993568.46461
  18669113.492   -27177476.158 7 -21177196.07224
  20341898.0244   -5190357.09746  -3821614.60461
  20920749.984      185045.209 5    144183.42221
  18845117.1804  -26025292.46647 -20206426.96663
 91  3 27  0 58 44.9920000  0  5G15G 2G13G19G 6
  21336932.8754   -6518797.26945  -5012291.47661
  18666678.086   -27190272.011 7 -21187166.85424
  20329259.453    -5256779.182 6  -3873371.93221
  20925581.336      210432.733 5    163965.86421
  18837867.0944  -26063388.87047 -20236112.44363
 91  3 27  0 58 59.9920000  0  5G15G 2G13G19G 6
  21332380.9064   -6542714.22845  -5030928.00561
  18664248.6564  -27203037.37947 -21197113.88164
  20316629.383    -5323135.164 6  -3925077.75321
  20930420.9844     235870.10445    183787.13561
  18830626.0314  -26101439.39047 -20265762.16863
 91  3 27  0 59 14.9920000  0  5G15G 2G13G19G 6
  21327853.758    -6566510.486 5  -5049470.52021
  18661827.430   -27215762.912 7 -21207029.87124
  20304018.3364   -5389415.22146  -3976724.42761
  20935274.047      261366.596 5    203654.48821
  18823394.7504  -26139434.49647 -20295368.71463
 91  3 27  0 59 29.9920000  0  5G15G 2G13G19G 6
  21323351.141    -6590170.606 6  -5067906.91621
  18659415.297   -27228433.509 7 -21216903.04824
  20291422.328    -5455604.091 6  -4028300.03321
  20940141.469      286937.272 5    223579.63721
  18816177.9304  -26177358.53947 -20324919.88563
 91  3 27  0 59 44.9920000  0  5G15G 2G13G19G 6
  21318872.367    -6613707.181 6  -5086247.05921
  18657013.3134  -27241062.23247 -21226743.60364
  20278842.711    -5521714.268 6  -4079814.32521
  20945015.070      312568.909 5    243552.29721
  18808973.0084  -26215224.33147 -20354425.66463
 91  3 27  0 59 59.9920000  0  5G15G 2G13G19G 6
  21314416.227    -6637124.024 6  -5104493.88221
  18654617.539   -27253652.951 7 -21236554.53924
  20266276.477    -5587749.335 6  -4131270.09221
  20949906.055      338257.622 5    263569.41721
  18801778.2114  -26253035.49047 -20383888.87263
 91  3 27  1  0 14.9920000  0  5G15G 2G13G19G 6
  21309982.992    -6660417.003 6  -5122644.21121
  18652228.789   -27266201.755 7 -21246332.81824
  20253723.375    -5653704.940 6  -4182663.93421
  20954806.4304     364007.13745    283633.91161
  18794592.063   -26290787.868 7 -20413306.28523
 91  3 27  1  0 29.9920000  0  5G15G 2G13G19G 6
  21305578.359    -6683560.687 6  -5140678.19521
  18649853.836   -27278683.508 7 -21256058.84424
  20241193.9064   -5719555.46046  -4233975.89661
  20959724.172      389842.514 4    303765.31821
  18787426.0944  -26328455.83447 -20442657.90663
 91  3 27  1  0 44.9920000  0  5G15G 2G13G19G 6
  21301194.664    -6706597.522 6  -5158628.93321
  18647483.320   -27291140.392 7 -21265765.49824
  20228674.664    -5785343.083 6  -4285238.82921
  20964647.320      415721.620 4    323930.81021
  18780265.8754  -26366081.48747 -20471976.57463
 91  3 27  1  0 59.9920000  0  5G15G 2G13G19G 6
  21296834.6254   -6729498.98446  -5176474.16961
  18645123.524   -27303544.365 7 -21275430.91424
  20216172.063    -5851039.428 6  -4336430.64421
  20969585.2504     441672.40944    344152.14561
  18773118.414   -26403636.429 7 -20501240.13723
 91  3 27  1  1 14.9920000  0  5G15G 2G13G19G 6
  21292504.1254   -6752257.64046  -5194208.12761
  18642774.4614  -27315888.39247 -21285049.63064
  20203690.4924   -5916636.97646  -4387545.47661
  20974536.9774     467701.98544    364434.88061
  18765987.8204  -26441113.23647 -20530442.81063
 91  3 27  1  1 29.9920000  0  5G15G 2G13G19G 6
  21288199.2664   -6774885.19646  -5211839.95161
  18640434.922   -27328184.324 7 -21294630.86224
  20191222.8914   -5982147.08146  -4438592.17361
  20979505.6724     493798.22144    384769.56461
  18758868.9384  -26478523.46847 -20559593.61063
 91  3 27  1  1 44.9920000  0  5G15G 2G13G19G 6
  21283918.602    -6797382.267 6  -5229370.11621
  18638103.649   -27340432.900 7 -21304175.18924
  20178774.602    -6047570.051 6  -4489571.00021
  20984487.867      519960.567 4    405155.74921
  18751761.6414  -26515867.41747 -20588692.76263
 91  3 27  1  1 59.9920000  0  5G15G 2G13G19G 6
  21279660.305    -6819763.218 6  -5246809.77621
  18635778.766   -27352648.756 7 -21313694.02824
  20166337.3134   -6112920.11946  -4540492.99061
  20989466.1644     546174.26243    425581.94061
  18744664.7194  -26553159.52747 -20617751.51463
 91  3 27  1  2 14.9920000  0  5G15G 2G13G19G 6
  21275428.149    -6842010.178 6  -5264145.02021
  18633464.320   -27364814.302 7 -21323173.65424
  20153920.6494   -6178179.34646  -4591344.21161
  20994475.3364     572456.85243    446061.83561
  18737581.5784  -26590381.82947 -20646755.88063
 91  3 27  1  2 29.9920000  0  5G15G 2G13G19G 6
  21271218.8834   -6864128.36646  -5281379.91561
  18631157.852   -27376934.726 7 -21332618.12124
  20141517.250    -6243352.744 6  -4642128.54321
  20999484.7194     598803.18043    466591.38161
  18730510.5004  -26627539.24047 -20675709.67263
 91  3 27  1  2 44.9920000  0  5G15G 2G13G19G 6
  21267032.2114   -6886125.90046  -5298520.78061
  18628858.438   -27389018.806 7 -21342034.27024
  20129127.7034   -6308448.57246  -4692852.43061
  21004509.6494     625204.38043    487163.70161
  18723450.4614  -26664640.20947 -20704619.49363
 91  3 27  1  2 59.9920000  0  5G15G 2G13G19G 6
  21262867.5394   -6907985.17945  -5315553.92661
  18626568.149   -27401048.847 7 -21351408.31124
  20116759.9774   -6373448.84246  -4743501.84261
  21009554.5394     651677.72942    507792.20461
  18716406.1174  -26701666.76547 -20733471.31763
 91  3 27  1  3 14.9920000  0  5G15G 2G13G19G 6
  21258739.8204   -6929696.62846  -5332471.87361
  18624291.867   -27413015.496 7 -21360732.95524
  20104411.7894   -6438343.82746  -4794069.20861
  21014597.4614     678232.53542    528484.21461
  18709374.9924  -26738609.26047 -20762257.64563
 91  3 27  1  3 29.9920000  0  5G15G 2G13G19G 6
  21254636.7814   -6951264.72046  -5349278.12461
  18622024.930   -27424923.269 7 -21370011.72424
  20092080.820    -6503137.673 6  -4844557.76921
  21019671.750      704864.264 2    549236.14821
  18702360.1954  -26775472.01047 -20790981.83163
 91  3 27  1  3 44.9920000  0  5G15G 2G13G19G 6
  21250554.656    -6972708.225 5  -5365987.28421
  18619767.188   -27436791.502 7 -21379259.68224
  20079767.078    -6567849.286 6  -4894982.25121
  21024749.992      731553.601 2    570032.98521
  18695357.7504  -26812273.86247 -20819658.57063
 91  3 27  1  3 59.9920000  0  5G15G 2G13G19G 6
  21246497.688    -6994033.458 5  -5382604.29421
  18617515.7114  -27448626.77548 -21388481.96264
  20067465.4304   -6632484.83346  -4945347.45961
  21029840.4774     758293.82742    590869.45761
  18688364.3204  -26849021.00647 -20848292.67163
 91  3 27  1  4 14.9920000  0  4G15G 2G13G 6
  21242461.9844   -7015220.26445  -5399113.42361
  18615272.617   -27460408.804 8 -21397662.75224
  20055184.266    -6697023.815 6  -4995637.41021
  18681386.8054  -26885693.05847 -20876868.25963
 91  3 27  1  4 29.9920000  0  4G15G 2G13G 6
  21238460.336    -7036267.695 5  -5415513.97621
  18613041.164   -27472136.725 8 -21406801.38124
  20042922.383    -6761465.161 6  -5045851.28021
  18674421.3834  -26922288.71847 -20905384.32963
 91  3 27  1  4 44.9920000  0  4G15G 2G13G 6
  21234483.781    -7057166.642 5  -5431798.83221
  18610821.016   -27483801.797 7 -21415891.03424
  20030680.1334   -6825799.52246  -5095981.79161
  18667475.2274  -26958799.09947 -20933833.93563
 91  3 27  1  4 59.9920000  0  4G15G 2G13G 6
  21230531.6024   -7077943.87146  -5447988.83261
  18608609.219   -27495431.154 8 -21424952.85724
  20018453.578    -6890053.608 6  -5146049.74621
  18660537.5554  -26995250.94347 -20962237.93363
 91  3 27  1  5 14.9920000  0  4G15G 2G13G 6
  21226601.984    -7098583.501 6  -5464071.56921
  18606404.258   -27507009.000 8 -21433974.54424
  20006242.602    -6954211.445 6  -5196042.72221
  18653615.7584  -27031628.18647 -20990583.80363
 91  3 27  1  5 29.9920000  0  4G15G 2G13G 6
  21222701.984    -7119078.435 5  -5480041.58221
  18604212.664   -27518528.365 8 -21442950.65224
  19994054.6334   -7018265.70546  -5245954.97861
  18646709.016   -27067923.521 7 -21018865.84223
 91  3 27  1  5 44.9920000  0  4G15G 2G13G 6
  21218827.727    -7139439.738 6  -5495907.47121
  18602030.063   -27530000.899 8 -21451890.27124
  19981883.1724   -7082227.44346  -5295795.13461
  18639815.8204  -27104147.98847 -21047092.67063
 91  3 27  1  5 59.9920000  0  4G15G 2G13G 6
  21214978.242    -7159676.203 6  -5511676.08121
  18599854.211   -27541435.391 7 -21460800.24824
  19969728.6254   -7146104.89946  -5345569.65361
  18632933.4454  -27140310.12747 -21075270.92563
 91  3 27  1  6 14.9920000  0  4G15G 2G13G 6
  21211153.1094   -7179766.61346  -5527330.88661
  18597689.117   -27552810.588 7 -21469664.02424
  19957592.250    -7209876.726 6  -5395261.84921
  18626069.531   -27176388.502 7 -21103383.92023
 91  3 27  1  6 29.9920000  0  4G15G 2G13G 6
  21207352.141    -7199735.031 6  -5542890.64221
  18595531.070   -27564150.918 7 -21478500.63124
  19945472.203    -7273566.968 6  -5444890.46421
  18619214.1564  -27212407.21247 -21131450.41363
 91  3 27  1  6 44.9920000  0  4G15G 2G13G 6
  21203578.906    -7219561.535 6  -5558339.81321
  18593383.2114  -27575436.57147 -21487294.63564
  19933371.6254   -7337155.87246  -5494440.14961
  18612375.6564  -27248346.31447 -21159454.87663
 91  3 27  1  6 59.9920000  0  4G15G 2G13G 6
  21199833.4224   -7239249.86545  -5573681.33461
  18591246.3524  -27586671.37848 -21496049.02664
  19921290.9774   -7400646.88846  -5543913.54561
  18605550.5314  -27284209.22847 -21187399.97163
 91  3 27  1  7 14.9920000  0  4G15G 2G13G 6
  21196113.9534   -7258802.87545  -5588917.40761
  18589117.5474  -27597858.38548 -21504766.16664
  19909225.508    -7464042.331 6  -5593312.45121
  18598740.5864  -27319998.68947 -21215287.83163
 91  3 27  1  7 29.9920000  0  4G15G 2G13G 6
  21192417.422    -7278227.994 5  -5604053.81621
  18586996.625   -27609005.402 8 -21513452.13924
  19897179.539    -7527349.563 6  -5642642.63421
  18591941.8444  -27355722.12947 -21243124.25763
 91  3 27  1  7 44.9920000  0  4G15G 2G13G 6
  21188743.8754   -7297531.99345  -5619095.83261
  18584881.2114  -27620119.34448 -21522112.34464
  19885147.3444   -7590575.31746  -5691909.30861
  18585155.5554  -27391386.11847 -21270914.34163
 91  3 27  1  7 59.9920000  0  4G15G 2G13G 6
  21185094.8994   -7316707.35646  -5634037.61361
  18582773.5554  -27631192.96648 -21530741.12864
  19873131.945    -7653711.892 6  -5741106.49121
  18578381.156   -27426983.181 7 -21298652.28324
 91  3 27  1  8 14.9920000  0  4G15G 2G13G 6
  21181470.656    -7335743.207 6  -5648870.68221
  18580675.852   -27642215.369 8 -21539330.00023
  19861134.7974   -7716748.15246  -5790225.49661
  18571622.0944  -27462502.00347 -21326329.25264
 91  3 27  1  8 29.9920000  0  4G15G 2G13G 6
  21177874.149    -7354638.085 6  -5663593.91421
  18578587.8594  -27653185.28347 -21547877.97664
  19849159.664    -7779682.337 6  -5839264.98321
  18564879.0634  -27497941.06547 -21353944.06964
 91  3 27  1  8 44.9920000  0  4G15G 2G13G 6
  21174309.8594   -7373376.39446  -5678195.13361
  18576514.9454  -27664087.06548 -21556372.86064
  19837206.539    -7842498.786 6  -5888212.72921
  18558153.4304  -27533284.42547 -21381484.32264
 91  3 27  1  8 59.9920000  0  4G15G 2G13G 6
  21170769.4454   -7391986.07246  -5692696.11361
  18574448.0084  -27674949.11248 -21564836.78064
  19825269.2974   -7905225.64346  -5937090.67761
  18551440.3364  -27568560.29347 -21408971.97364
 91  3 27  1  9 14.9920000  0  4G15G 2G13G 6
  21167252.0634   -7410462.23946  -5707093.06261
  18572389.7194  -27685766.47348 -21573265.88364
  19813352.7814   -7967857.50146  -5985894.59061
  18544741.4064  -27603763.26347 -21436402.82664
 91  3 27  1  9 29.9920000  0  4G15G 2G13G 6
  21163760.695    -7428812.967 6  -5721392.29721
  18570338.7894  -27696547.57148 -21581666.72364
  19801449.930    -8030402.292 6  -6034630.65621
  18538054.2034  -27638901.53947 -21463783.26864
 91  3 27  1  9 44.9920000  0  4G15G 2G13G 6
  21160287.9064   -7447043.89745  -5735598.17361
  18568292.3204  -27707298.10848 -21590043.75664
  19789563.5864   -8092865.51146  -6083303.17661
  18531379.6564  -27673980.49747 -21491117.49164
 91  3 27  1  9 59.9920000  0  4G15G 2G13G 6
  21156849.2424   -7465130.95245  -5749691.92261
  18566255.539   -27717994.231 7 -21598378.38524
  19777698.250    -8155222.889 6  -6131893.22521
  18524719.7744  -27708976.04747 -21518386.72364
 91  3 27  1 10 14.9920000  0  4G15G 2G13G 6
  21153437.758    -7483063.769 6  -5763665.51821
  18564232.2114  -27728625.79547 -21606662.70664
  19765851.6884   -8217463.86846  -6180392.58961
  18518079.7894  -27743877.60747 -21545582.70464
 91  3 27  1 10 29.9920000  0  4G15G 2G13G 6
  21150047.9924   -7500863.82946  -5777535.65961
  18562218.578   -27739214.543 8 -21614913.67024
  19754027.047    -8279609.860 6  -6228817.93021
  18511450.6094  -27778706.57047 -21572722.11464
 91  3 27  1 10 44.9920000  0  4G15G 2G13G 6
  21146687.125    -7518534.840 6  -5791305.23021
  18560210.9844  -27749764.30148 -21623134.25564
  19742217.000    -8341664.315 6  -6277171.94621
  18504834.9064  -27813466.50547 -21599807.75064
 91  3 27  1 10 59.9920000  0  4G15G 2G13G 6
  21143346.992    -7536084.936 6  -5804980.57721
  18558207.9924  -27760283.13647 -21631330.73764
  19730425.336    -8403634.933 6  -6325460.63321
  18498232.7274  -27848165.13847 -21626845.62264
 91  3 27  1 11 14.9920000  0  4G15G 2G13G 6
  21140029.828    -7553508.024 6  -5818556.95521
  18556213.547   -27770765.087 7 -21639498.47924
  19718650.703    -8465515.575 6  -6373679.20321
  18491643.477   -27882796.398 7 -21653830.97924
 91  3 27  1 11 29.9920000  0  4G15G 2G13G 6
  21136744.0164   -7570785.35946  -5832019.75261
  18554228.836   -27781191.675 7 -21647623.07224
  19706894.320    -8527287.297 6  -6421812.90921
  18485069.3054  -27917341.26747 -21680749.02364
 91  3 27  1 11 44.9920000  0  4G15G 2G13G 6
  21133483.3284   -7587933.73046  -5845382.05661
  18552252.8524  -27791579.98347 -21655717.84764
  19695157.797    -8588966.773 6  -6469874.72921
  18478509.3834  -27951816.46547 -21707612.78964
 91  3 27  1 11 59.9920000  0  4G15G 2G13G 6
  21130239.5784   -7604955.80346  -5858645.97761
  18550283.250   -27801932.588 7 -21663784.79424
  19683436.695    -8650556.495 6  -6517866.60521
  18471962.2814  -27986224.40447 -21734424.13263
 91  3 27  1 12 14.9920000  0  4G15G 2G13G 6
  21127032.7504   -7621822.31046  -5871788.66561
  18548325.883   -27812220.683 7 -21671801.47924
  19671740.0474   -8712027.46646  -6565765.95461
  18465432.5784  -28020536.09847 -21761160.48364
 91  3 27  1 12 29.9920000  0  4G15G 2G13G 6
  21123850.7894   -7638559.17546  -5884830.33561
  18546374.688   -27822470.118 7 -21679788.03524
  19660060.734    -8773405.024 6  -6613592.50621
  18458916.6804  -28054777.07647 -21787841.73164
 91  3 27  1 12 44.9920000  0  4G15G 2G13G 6
  21120687.1804   -7655160.15046  -5897766.10561
  18544432.180   -27832674.844 7 -21687739.75124
  19648399.820    -8834682.605 6  -6661341.16221
  18452415.4144  -28088940.85547 -21814462.82164
 91  3 27  1 12 59.9920000  0  4G15G 2G13G 6
  21117551.391    -7671634.254 6  -5910603.05721
  18542496.922   -27842844.065 7 -21695663.80424
  19636755.399    -8895869.144 6  -6709018.89021
  18445927.0394  -28123036.35247 -21841030.71064
 91  3 27  1 13 14.9920000  0  4G15G 2G13G 6
  21114448.2584   -7687953.75146  -5923319.51461
  18540575.352   -27852950.033 7 -21703538.56324
  19625135.9614   -8956936.64146  -6756603.87161
  18439457.0314  -28157035.39547 -21867523.43563
 91  3 27  1 13 29.9920000  0  4G15G 2G13G 6
  21111370.0554   -7704132.78546  -5935926.51361
  18538660.625   -27863006.968 7 -21711375.11924
  19613534.1094   -9017898.88746  -6804106.82161
  18433002.1804  -28190951.85347 -21893951.80763
 91  3 27  1 13 44.9920000  0  4G15G 2G13G 6
  21108318.0084   -7720172.73246  -5948425.13361
  18536755.563   -27873016.570 7 -21719174.78624
  19601952.1414   -9078757.53646  -6851529.04561
  18426563.5944  -28224787.48147 -21920317.19963
 91  3 27  1 13 59.9920000  0  4G15G 2G13G 6
  21105287.8204   -7736087.11346  -5960825.90661
  18534856.359   -27882992.494 7 -21726948.21224
  19590390.8914   -9139525.91646  -6898880.93061
  18420138.5474  -28258555.36147 -21946629.79563
 91  3 27  1 14 14.9920000  0  4G15G 2G13G 6
  21102286.625    -7751862.679 5  -5973118.50121
  18532968.945   -27892921.585 7 -21734685.14624
  19578844.5784   -9200190.26146  -6946151.75961
  18413727.1644  -28292241.99947 -21972879.08763
 91  3 27  1 14 29.9920000  0  4G15G 2G13G 6
  21099308.070    -7767497.478 5  -5985301.40921
  18531088.227   -27902802.091 7 -21742384.22724
  19567321.563    -9260748.549 6  -6993339.95321
  18407333.7894  -28325845.26147 -21999063.41563
 91  3 27  1 14 44.9920000  0  4G15G 2G13G 6
  21096360.7744   -7782996.63245  -5997378.60261
  18529216.297   -27912639.366 7 -21750049.61824
  19555816.8134   -9321205.70047  -7040449.33261
  18400953.2584  -28359370.43247 -22025186.89263
 91  3 27  1 14 59.9920000  0  4G15G 2G13G 6
  21093440.7114   -7798352.08745  -6009343.81661
  18527352.852   -27922425.354 7 -21757675.04924
  19544334.633    -9381553.844 7  -7087473.77421
  18394590.8594  -28392809.18647 -22051243.02963
 91  3 27  1 15 14.9920000  0  4G15G 2G13G 6
  21090540.4304   -7813565.17145  -6021198.12561
  18525499.867   -27932161.326 7 -21765261.50524
  19532869.6094   -9441793.62547  -7134413.77261
  18388243.7664  -28426162.35947 -22077232.47663
 91  3 27  1 15 29.9920000  0  4G15G 2G13G 6
  21087680.2424   -7828641.46946  -6032945.80961
  18523655.836   -27941853.146 7 -21772813.55724
  19521425.6094   -9501930.45146  -7181273.55361
  18381911.4924  -28459435.51247 -22103159.57463
 91  3 27  1 15 44.9920000  0  4G15G 2G13G 6
  21084832.5634   -7843584.99146  -6044590.05261
  18521819.445   -27951504.716 7 -21780334.24124
  19510000.813    -9561968.198 6  -7228056.10521
  18375594.5864  -28492632.37047 -22129027.22163
 91  3 27  1 15 59.9920000  0  4G15G 2G13G 6
  21082016.9844   -7858381.37546  -6056119.64661
  18519994.133   -27961101.672 7 -21787812.36324
  19498598.594    -9621892.029 6  -7274749.90021
  18369295.0394  -28525738.32347 -22154824.03863
 91  3 27  1 16 14.9920000  0  4G15G 2G13G 6
  21079231.242    -7873027.954 6  -6067532.51021
  18518178.070   -27970641.804 7 -21795246.21024
  19487215.8914   -9681699.35046  -7321352.91661
  18363013.0784  -28558750.55947 -22180547.82663
 91  3 27  1 16 29.9920000  0  4G15G 2G13G 6
  21076465.4694   -7887537.52045  -6078838.61161
  18516371.961   -27980138.095 7 -21802645.90424
  19475855.4144   -9741402.80546  -7367874.99861
  18356745.9774  -28591681.87747 -22206208.55463
 91  3 27  1 16 44.9920000  0  4G15G 2G13G 6
  21073730.6024   -7901919.29645  -6090045.13461
  18514571.180   -27989599.775 7 -21810018.62324
  19464512.250    -9801011.527 6  -7414323.25021
  18350492.9534  -28624541.33547 -22231813.29163
 91  3 27  1 16 59.9920000  0  4G15G 2G13G 6
  21071019.8674   -7916150.48845  -6101134.31261
  18512781.266   -27999004.284 7 -21817346.79124
  19453190.7814   -9860502.57446  -7460679.81561
  18344257.5704  -28657305.97547 -22257344.14763
 91  3 27  1 17 14.9920000  0  4G15G 2G13G 6
  21068338.3204   -7930244.55245  -6112116.66461
  18511000.789   -28008365.143 7 -21824640.94424
  19441890.586    -9919889.155 6  -7506954.99021
  18338038.7584  -28689988.92747 -22282811.35263
 91  3 27  1 17 29.9920000  0  4G15G 2G13G 6
  21065682.5084   -7944195.86545  -6122987.75261
  18509227.578   -28017676.690 7 -21831896.67724
  19430610.617    -9979165.391 6  -7553144.19021
  18331835.8444  -28722584.41147 -22308210.39563
 91  3 27  1 17 44.9920000  0  4G15G 2G13G 6
  21063055.5784   -7958013.85446  -6133754.98061
  18507464.383   -28026948.613 7 -21839121.53424
  19419349.6024  -10038340.66246  -7599254.69361
  18325647.0244  -28755101.67647 -22333548.49663
 91  3 27  1 17 59.9920000  0  4G15G 2G13G 6
  21060453.156    -7971684.851 6  -6144407.65121
  18505709.4224  -28036167.06847 -21846304.73664
  19408110.9064  -10097400.91146  -7645275.57461
  18319477.3994  -28787526.68647 -22358814.69563
 91  3 27  1 18 14.9920000  0  4G15G 2G13G 6
  21057881.5164   -7985203.45046  -6154941.57261
  18503967.336   -28045326.804 7 -21853442.17924
  19396894.2894  -10156340.24946  -7691202.24461
  18313326.0474  -28819853.70847 -22384004.54963
 91  3 27  1 18 29.9920000  0  4G15G 2G13G 6
  21055334.5554   -7998598.92146  -6165379.53161
  18502227.899   -28054457.172 7 -21860556.73024
  19385696.274   -10215187.880 6  -7737057.46821
  18307186.3834  -28852111.95947 -22409140.82163
 91  3 27  1 18 44.9920000  0  4G15G 2G13G 6
  21052813.6564   -8011841.74446  -6175698.56461
  18500501.422   -28063529.072 7 -21867625.72724
  19374521.8284  -10273914.36146  -7782818.27561
  18301067.1414  -28884272.01847 -22434200.57563
 91  3 27  1 18 59.9920000  0  4G15G 2G13G 6
  21050318.5864   -8024939.60546  -6185904.62561
  18498786.445   -28072550.202 8 -21874655.15624
  19363366.094   -10332527.027 6  -7828490.37821
  18294963.8754  -28916341.19747 -22459189.50963
 91  3 27  1 19 14.9920000  0  4G15G 2G13G 6
  21047851.281    -8037916.963 6  -6196016.79921
  18497073.344   -28081545.044 8 -21881664.10424
  19352229.867   -10391050.033 6  -7874092.60621
  18288874.6804  -28948343.79947 -22484126.56763
 91  3 27  1 19 29.9920000  0  4G15G 2G13G 6
  21045406.945    -8050741.148 6  -6206009.63421
  18495374.5394  -28090480.80448 -21888627.00564
  19341117.336   -10449450.574 6  -7919599.41521
  18282804.8834  -28980246.75247 -22508985.97463
 91  3 27  1 19 44.9920000  0  4G15G 2G13G 6
  21042997.469    -8063436.012 5  -6215901.67221
  18493680.195   -28099381.588 7 -21895562.65424
  19330024.406   -10507752.361 7  -7965029.29321
  18276747.539   -29012073.780 7 -22533786.20923
 91  3 27  1 19 59.9920000  0  4G15G 2G13G 6
  21040599.586    -8075998.336 5  -6225690.45121
  18491994.258   -28108244.308 7 -21902468.65724
  19318948.734   -10565952.049 7  -8010379.62621
  18270706.6884  -29043821.48547 -22558524.64863
 91  3 27  1 20 14.9920000  0  4G15G 2G13G 6
  21038240.125    -8088410.297 5  -6235362.06621
  18490317.680   -28117051.108 7 -21909331.08124
  19307895.977   -10624031.510 7  -8055636.27121
  18264684.0244  -29075471.79447 -22583187.18963
 91  3 27  1 20 29.9920000  0  4G15G 2G13G 6
  21035904.6884   -8100690.17145  -6244930.76461
  18488648.258   -28125820.635 7 -21916164.45924
  19296862.117   -10682008.922 7  -8100813.39821
  18258675.6724  -29107042.99847 -22607788.09263
 91  3 27  1 20 44.9920000  0  4G15G 2G13G 6
  21033593.6954   -8112829.12345  -6254389.64761
  18486988.024   -28134544.082 7 -21922961.93024
  19285851.414   -10739875.443 7  -8145904.11421
  18252684.5944  -29138526.04747 -22632320.30663
 91  3 27  1 20 59.9920000  0  4G15G 2G13G 6
  21031308.828    -8124836.895 6  -6263746.30721
  18485335.734   -28143230.952 7 -21929730.90424
  19274858.625   -10797640.073 7  -8190915.43921
  18246708.430   -29169930.125 7 -22656790.99124
 91  3 27  1 21 14.9920000  0  4G15G 2G13G 6
  21029047.289    -8136717.905 6  -6273004.19921
  18483688.781   -28151885.881 7 -21936474.98124
  19263885.586   -10855307.434 6  -8235850.96421
  18240747.5784  -29201259.67847 -22681203.59664
 91  3 27  1 21 29.9920000  0  4G15G 2G13G 6
  21026814.000    -8148450.155 6  -6282146.17221
  18482052.477   -28160486.927 7 -21943177.07224
  19252935.8594  -10912855.04046  -8280693.17061
  18234803.6494  -29232492.41847 -22705540.76364
 91  3 27  1 21 44.9920000  0  4G15G 2G13G 6
  21024605.938    -8160060.337 6  -6291193.02621
  18480420.336   -28169060.957 7 -21949858.11024
  19241999.5474  -10970309.42246  -8325462.72461
  18228874.0004  -29263654.65647 -22729822.99864
 91  3 27  1 21 59.9920000  0  4G15G 2G13G 6
  21022424.680    -8171511.725 6  -6300116.13521
  18478802.149   -28177571.358 7 -21956489.57624
  19231090.992   -11027633.769 6  -8370130.94321
  18222963.9844  -29294709.73847 -22754021.73463
 91  3 27  1 22 14.9910000  0  4G15G 2G13G 6
  21020281.237    -8182785.555 6  -6308900.89121
  18477196.097   -28185999.466 7 -21963056.91724
  19220211.659   -11084806.022 6  -8414680.66721
  18217078.6834  -29325637.27947 -22778121.08663
 91  3 27  1 22 29.9910000  0  4G15G 2G13G 6
  21018168.7454   -8193906.81746  -6317566.75361
  18475601.784   -28194370.226 7 -21969579.56824
  19209355.706   -11141857.062 6  -8459135.94221
  18211212.1984  -29356464.63647 -22802142.36963
 91  3 27  1 22 44.9910000  0  4G15G 2G13G 6
  21016077.503    -8204892.547 6  -6326127.01521
  18474019.214   -28202700.677 7 -21976070.80624
  19198518.4014  -11198800.52546  -8503507.38261
  18205363.1284  -29387207.19247 -22826097.57163
 91  3 27  1 22 59.9910000  0  4G15G 2G13G 6
  21014006.7694   -8215754.26845  -6334590.64861
  18472438.409   -28211002.433 7 -21982539.68724
  19187700.7764  -11255647.81646  -8547803.88161
  18199525.5344  -29417876.26847 -22849995.52063
 91  3 27  1 23 14.9910000  0  4G15G 2G13G 6
  21011969.308    -8226472.476 5  -6342942.46321
  18470868.620   -28219255.929 7 -21988970.95724
  19176905.769   -11312379.236 6  -8592010.10321
  18193707.3164  -29448452.13447 -22873820.83963
 91  3 27  1 23 29.9910000  0  4G15G 2G13G 6
  21009957.839    -8237048.843 5  -6351183.74021
  18469306.847   -28227463.096 7 -21995366.12524
  19166131.722   -11368996.288 6  -8636127.21921
  18187907.0034  -29478936.39247 -22897574.76364
 91  3 27  1 23 44.9910000  0  4G15G 2G13G 6
  21007968.878    -8247508.786 5  -6359334.30221
  18467747.839   -28235649.575 7 -22001745.17524
  19155373.8164  -11425524.46546  -8680175.07361
  18182116.6204  -29509354.37447 -22921277.05563
 91  3 27  1 23 59.9910000  0  4G15G 2G13G 6
  21006000.292    -8257823.251 5  -6367371.49921
  18466200.550   -28243786.119 7 -22008085.31624
  19144639.378   -11481934.060 6  -8724130.52121
  18176348.7454  -29539676.58747 -22944904.71064
 91  3 27  1 24 14.9910000  0  4G15G 2G13G 6
  21004068.964    -8268006.023 5  -6375306.08321
  18464658.894   -28251886.667 7 -22014397.41024
  19133926.253   -11538238.830 6  -8768004.29221
  18170593.4564  -29569916.54047 -22968468.27864
 91  3 27  1 24 29.9910000  0  4G15G 2G13G 6
  21002158.058    -8278043.710 5  -6383127.61821
  18463127.042   -28259937.905 7 -22020671.08024
  19123234.917   -11594425.302 6  -8811785.88621
  18164856.2534  -29600060.72547 -22991957.21764
 91  3 27  1 24 44.9910000  0  4G15G 2G13G 6
  21000269.1204   -8287938.73445  -6390837.99061
  18461603.698   -28267942.265 7 -22026908.22324
  19112564.128   -11650495.473 6  -8855476.85021
  18159138.9484  -29630111.24247 -23015373.16664
 91  3 27  1 24 59.9910000  0  4G15G 2G13G 6
  20998412.9094   -8297694.70945  -6398440.00061
  18460087.9014  -28275903.36047 -22033111.64664
  19101916.964   -11706452.668 6  -8899079.77821
  18153437.6914  -29660071.39747 -23038718.71164
 91  3 27  1 25 14.9910000  0  4G15G 2G13G 6
  20996585.308    -8307302.608 5  -6405926.63121
  18458583.526   -28283812.367 7 -22039274.48424
  19091291.7224  -11762287.60747  -8942587.44861
  18147754.4954  -29689932.18247 -23061986.81964
 91  3 27  1 25 29.9910000  0  4G15G 2G13G 6
  20994785.542    -8316757.434 5  -6413293.96821
  18457089.456   -28291664.077 7 -22045392.67724
  19080690.2374  -11817995.22747  -8985995.91361
  18142092.3394  -29719688.04247 -23085173.16763
 91  3 27  1 25 44.9910000  0  4G15G 2G13G 6
  20993008.175    -8326105.237 6  -6420577.92221
  18455596.745   -28299504.597 7 -22051502.15624
  19070104.9254  -11873621.52146  -9029341.01061
  18136441.2764  -29749384.90447 -23108313.54763
 91  3 27  1 25 59.9910000  0  4G15G 2G13G 6
  20991258.5814   -8335305.92846  -6427747.23261
  18454114.878   -28307293.963 7 -22057571.77224
  19059544.034   -11929126.008 6  -9072591.17921
  18130808.6984  -29778982.40447 -23131376.49863
 91  3 27  1 26 14.9910000  0  4G15G 2G13G 6
  20989535.011    -8344356.333 6  -6434799.45421
  18452641.667   -28315028.942 7 -22063599.00824
  19049004.714   -11984505.180 6  -9115743.69521
  18125196.4644  -29808477.09147 -23154359.33863
 91  3 27  1 26 29.9910000  0  4G15G 2G13G 6
  20987840.105    -8353259.773 6  -6441737.15221
  18451179.878   -28322713.041 7 -22069586.59524
  19038490.839   -12039762.215 7  -9158801.04921
  18119604.0264  -29837872.05947 -23177264.47263
 91  3 27  1 26 44.9910000  0  4G15G 2G13G 6
  20986176.3704   -8362026.64446  -6448568.43961
  18449724.316   -28330356.640 7 -22075542.62324
  19027995.9724  -12094907.11947  -9201771.04261
  18114025.9724  -29867177.52547 -23200099.86063
 91  3 27  1 26 59.9910000  0  4G15G 2G13G 6
  20984531.933    -8370641.068 6  -6455280.94421
  18448282.034   -28337944.000 7 -22081454.84324
  19017526.9254  -12149923.74047  -9244641.06961
  18108469.6594  -29896377.31747 -23222852.90963
 91  3 27  1 27 14.9910000  0  4G15G 2G13G 6
  20982918.6284   -8379117.01945  -6461885.55161
  18446847.1204  -28345489.01747 -22087334.04864
  19007078.706   -12204826.389 7  -9287422.27821
  18102929.3864  -29925485.31647 -23245534.43163
 91  3 27  1 27 29.9910000  0  4G15G 2G13G 6
  20981333.8474   -8387463.38646  -6468389.15661
  18445417.386   -28353000.395 7 -22093187.05124
  18996652.0114  -12259623.27747  -9330121.08561
  18097406.9014  -29954509.86447 -23268150.92363
 91  3 27  1 27 44.9910000  0  4G15G 2G13G 6
  20979766.4174   -8395690.25046  -6474799.66761
  18443991.862   -28360488.652 7 -22099022.03824
  18986242.2614  -12314324.54347  -9372745.38861
  18091896.4954  -29983460.97147 -23290710.19464
 91  3 27  1 27 59.9910000  0  4G15G 2G13G 6
  20978232.3084   -8403761.66046  -6481089.04061
  18442578.276   -28367917.834 7 -22104810.98924
  18975857.0974  -12368894.03846  -9415267.00661
  18086410.3234  -30012302.61747 -23313184.16164
 91  3 27  1 28 14.9910000  0  4G15G 2G13G 6
  20976722.316    -8411701.073 6  -6487275.54621
  18441169.808   -28375311.396 7 -22110572.18624
  18965493.6054  -12423354.84146  -9457703.91161
  18080938.4334  -30041057.87347 -23335590.82263
 91  3 27  1 28 29.9910000  0  4G15G 2G13G 6
  20975237.4874   -8419493.10946  -6493347.23361
  18439773.589   -28382653.866 7 -22116293.57124
  18955154.0734  -12477691.44646  -9500044.02661
  18075484.4804  -30069711.15847 -23357918.02064
 91  3 27  1 28 44.9910000  0  4G15G 2G13G 6
  20973781.534    -8427127.985 6  -6499296.43821
  18438390.003   -28389935.553 7 -22121967.59524
  18944839.5974  -12531893.82547  -9542279.58161
  18070053.0584  -30098252.24747 -23380157.79664
 91  3 27  1 28 59.9910000  0  4G15G 2G13G 6
  20972355.2144   -8434651.78346  -6505159.11461
  18437005.659   -28397202.526 7 -22127630.16124
  18934542.2694  -12586007.85247  -9584446.28761
  18064635.2844  -30126727.20347 -23402346.03663
 91  3 27  1 29 14.9910000  0  4G15G 2G13G 6
  20970948.4174   -8442045.77545  -6510920.63361
  18435628.362   -28404436.075 7 -22133266.67724
  18924265.097   -12640014.667 7  -9626529.44321
  18059233.0114  -30155116.92547 -23424467.86663
 91  3 27  1 29 29.9910000  0  4G15G 2G13G 6
  20969572.191    -8449277.649 5
  18434264.089   -28411603.846 7
  18914015.0034  -12693881.50947  -9668503.54761
  18053853.3004  -30183388.73947 -23446497.81563
 91  3 27  1 29 44.9910000  0  4G15G 2G13G 6
  20968218.714    -8456382.250 5
  18432906.753   -28418740.731 7 -22144413.12524
  18903783.9334  -12747643.05647  -9710395.60661
  18048487.2694  -30211577.08947 -23468462.73663
 91  3 27  1 29 59.9910000  0  4G15G 2G13G 6
  20966892.566    -8463335.140 5
  18431559.6364  -28425822.16047 -22149931.11064
  18893577.0584  -12801274.67247  -9752186.41861
  18043145.6914  -30239657.61847 -23490343.63963
 91  3 27  1 30 14.9910000  0  4G15G 2G13G 6
  20965598.956    -8470134.835 5
  18430224.175   -28432846.736 7 -22155404.79324
  18883396.9254  -12854774.57247  -9793874.58561
  18037822.730   -30267628.414 7 -23512139.03323
 91  3 27  1 30 29.9910000  0  4G15G 2G13G 6
  20964326.081    -8476801.124 5        -0.02231
  18428894.589   -28439834.225 7 -22160849.57124
  18873238.331   -12908162.101 6  -9835475.18721
  18032517.5114  -30295508.92847 -23533864.08363
 91  3 27  1 30 44.9910000  0  4G15G 2G13G 6
  20963088.917    -8483333.425 5     -5090.07721
  18427570.214   -28446784.087 7 -22166265.03324
  18863099.097   -12961436.539 6  -9876987.65721
  18027229.167   -30323298.379 7 -23555518.17423
 91  3 27  1 30 59.9910000  0  4G15G 2G13G 6
  20961872.6444   -8489732.88445    -10076.61261
  18426255.105   -28453697.536 7 -22171652.12524
  18852980.831   -13014598.846 6  -9918412.75021
  18021957.1834  -30350997.55247 -23577101.91663
 91  3 27  1 31 14.9910000  0  4G15G 2G13G 6
  20960674.987    -8495987.225 5    -14950.08421
  18424949.0894  -28460562.24548 -22177001.23464
  18842890.433   -13067636.649 6  -9959740.83521
  18016706.378   -30378593.859 7 -23598605.50923
 91  3 27  1 31 29.9910000  0  4G15G 2G13G 6
  20959512.698    -8502125.266 5    -19732.93621
  18423646.058   -28467407.302 8 -22182335.03524
  18832816.1444  -13120578.77046 -10000994.37461
  18011467.683   -30406116.322 7 -23620051.56423
 91  3 27  1 31 44.9910000  0  4G15G 2G13G 6
  20958372.230    -8508112.966 5    -24398.63521
  18422355.441   -28474198.310 8 -22187626.71024
  18822765.7924  -13173390.84447 -10042146.58261
  18006251.339   -30433530.236 7 -23641413.02823
 91  3 27  1 31 59.9910000  0  4G15G 2G13G 6
  20957260.753    -8513964.127 5    -28957.94121
  18421068.292   -28480949.355 7 -22192887.24724
  18812737.964   -13226086.491 7 -10083208.07421
  18001054.980   -30460849.230 7 -23662700.53323
 91  3 27  1 32 14.9910000  0  4G15G 2G13G 6
  20956171.9564   -8519675.64545    -33408.41461
  18419793.011   -28487657.160 7 -22198114.09124
  18802733.7924  -13278662.15147 -10124176.06061
  17995874.073   -30488069.999 7 -23683911.49723
 91  3 27  1 32 29.9910000  0  4G15G 2G13G 6
  20955112.5584   -8525232.70745    -37738.54661
  18418528.878   -28494306.991 8 -22203295.75724
  18792753.495   -13331102.840 7 -10165038.88021
  17990715.1364  -30515177.34247 -23705034.07663
 91  3 27  1 32 44.9910000  0  4G15G 2G13G 6
  20954085.480    -8530642.384 5    -41953.82921
  18417271.628   -28500905.633 7 -22208437.53924
  18782800.526   -13383415.224 6 -10205801.70921
  17985578.6984  -30542178.06947 -23726073.57663
 91  3 27  1 32 59.9910000  0  4G15G 2G13G 6
  20953087.753    -8535910.881 6    -46059.11221
  18416023.909   -28507459.461 8 -22213544.40424
  18772867.987   -13435605.327 6 -10246469.24122
  17980458.9014  -30569077.78247 -23747034.36363
 91  3 27  1 33 14.9910000  0  4G15G 2G13G 6
  20952105.894    -8541063.167 6    -50073.86821
  18414781.464   -28513993.468 8 -22218635.82124
  18762956.019   -13487697.967 6 -10287060.82822
  17975354.198   -30595901.541 7 -23767935.96623
 91  3 27  1 33 29.9910000  0  4G15G 2G13G 6
  20951155.323    -8546057.597 6    -53965.58221
  18413549.316   -28520465.930 7 -22223679.27924
  18753068.7924  -13539651.10546 -10327543.70462
  17970271.7924  -30622607.28747 -23788745.61363
 91  3 27  1 33 44.9910000  0  4G15G 2G13G 6
  20950225.5814   -8550942.72346    -57772.16461
  18412320.261   -28526925.535 7 -22228712.72024
  18743196.847   -13591513.666 6 -10367956.00521
  17965201.612   -30649243.558 7 -23809501.12323
 91  3 27  1 33 59.9910000  0  4G15G 2G13G 6
  20949327.925    -8555655.742 6    -61444.61621
  18411104.480   -28533309.252 7 -22233687.02624
  18733360.1754  -13643222.31347 -10408248.39161
  17960159.5814  -30675747.16647 -23830153.26163
 91  3 27  1 34 14.9910000  0  4G15G 2G13G 6
  20948457.644    -8560226.411 5    -65006.12821
  18409900.667   -28539647.070 7 -22238625.56424
  18723544.128   -13694806.392 7 -10448443.70621
  17955134.683   -30702147.479 7 -23850724.90323
 91  3 27  1 34 29.9910000  0  4G15G 2G13G 6
  20947614.0264   -8564636.09245    -68442.21561
  18408705.714   -28545920.164 7 -22243513.67124
  18713756.3474  -13746247.07747 -10488527.29161
  17950135.2764  -30728425.62947 -23871201.36663
 91  3 27  1 34 44.9910000  0  4G15G 2G13G 6
  20946803.073    -8568906.856 5    -71770.03321
  18407520.441   -28552150.682 7 -22248368.60624
  18703988.4414  -13797566.45947 -10528516.35561
  17945153.9254  -30754603.50447 -23891599.68163
 91  3 27  1 34 59.9910000  0  4G15G 2G13G 6
  20946021.3394   -8573034.30545    -74986.18061
  18406342.480   -28558334.095 7 -22253186.84124
  18694247.917   -13848759.556 7 -10568407.02621
  17940190.417   -30780676.278 7 -23911916.11123
 91  3 27  1 35 14.9910000  0  4G15G 2G13G 6
  20945257.6914   -8577016.55445    -78089.17161
  18405177.026   -28564468.418 7 -22257966.81924
  18684529.206   -13899824.442 7 -10608197.80121
  17935251.167   -30806641.565 7 -23932148.77423
 91  3 27  1 35 29.9910000  0  4G15G 2G13G 6
  20944536.362    -8580840.808 6    -81069.08521
  18404019.144   -28570541.008 7 -22262698.68724
  18674840.159   -13950748.021 7 -10647878.46221
  17930334.839   -30832486.583 7 -23952287.72423
 91  3 27  1 35 44.9910000  0  4G15G 2G13G 6
  20943831.987    -8584514.449 6    -83931.62821
  18402875.128   -28576559.087 7 -22267388.08324
  18665173.4644  -14001537.56647 -10687454.66961
  17925437.1674  -30858218.41347 -23972338.47763
 91  3 27  1 35 59.9910000  0  4G15G 2G13G 6
  20943160.464    -8588067.940 6    -86700.53321
  18401734.362   -28582553.009 7 -22272058.64724
  18655528.5114  -14052223.07447 -10726949.80261
  17920556.9804  -30883867.00047 -23992324.35563
 91  3 27  1 36 14.9910000  0  4G15G 2G13G 6
  20942507.995    -8591479.099 6    -89358.54121
  18400603.612   -28588500.617 7 -22276693.12424
  18645906.9724  -14102782.28546 -10766346.51761
  17915693.980   -30909410.029 7 -24012228.00123
 91  3 27  1 36 29.9910000  0  4G15G 2G13G 6
  20941885.089    -8594742.382 6    -91901.31321
  18399480.425   -28594396.296 7 -22281287.14024
  18636310.737   -14153209.618 6 -10805640.47421
  17910856.331   -30934841.650 7 -24032044.82023
 91  3 27  1 36 44.9910000  0  4G15G 2G13G 6
  20941294.120    -8597870.847 5    -94339.03021
  18398366.089   -28600253.161 7 -22285850.90324
  18626736.5034  -14203517.66146 -10844841.46561
  17906035.2144  -30960174.73647 -24051784.86763
 91  3 27  1 36 59.9910000  0  4G15G 2G13G 6
  20940723.3944   -8600872.98845    -96678.32861
  18397256.167   -28606079.603 7 -22290390.96824
  18617186.284   -14253714.715 7 -10883955.97721
  17901230.7534  -30985417.41947 -24071454.46163
 91  3 27  1 37 14.9910000  0  4G15G 2G13G 6
  20940176.2844   -8603728.77545    -98903.57861
  18396156.706   -28611855.417 7 -22294891.57324
  18607658.5584  -14303780.22346 -10922968.00261
  17896448.355   -31010549.090 7 -24091037.55323
 91  3 27  1 37 29.9910000  0  4G15G 2G13G 6
  20939661.714    -8606435.543 5   -101012.73521
  18395069.003   -28617578.229 7 -22299350.88724
  18598156.7224  -14353711.49546 -10961875.43061
  17891687.7694  -31035567.18647 -24110532.14963
 91  3 27  1 37 44.9910000  0  4G15G 2G13G 6
  20939169.8314   -8609023.99245   -103029.66761
  18393982.191   -28623278.702 7 -22303792.79224
  18588673.8394  -14403539.42247 -11000702.32761
  17886943.6514  -31060502.05847 -24129961.89263
 91  3 27  1 37 59.9910000  0  4G15G 2G13G 6
  20938705.0734   -8611462.11045   -104929.47361
  18392909.8944  -28628924.69747 -22308192.24064
  18579219.972   -14453231.436 7 -11039423.31821
  17882219.667   -31085321.310 7 -24149301.54823
 91  3 27  1 38 14.9910000  0  4G15G 2G13G 6
  20938272.3474   -8613756.01545   -106716.89461
  18391845.855   -28634522.109 7 -22312553.84124
  18569788.253   -14502793.175 7 -11078042.79821
  17877518.0974  -31110030.67147 -24168555.56563
 91  3 27  1 38 29.9910000  0  4G15G 2G13G 6
  20937858.761    -8615905.833 5   -108392.01721
  18390788.808   -28640071.280 7 -22316877.85324
  18560380.839   -14552224.798 7 -11116560.89221
  17872836.1834  -31134630.15447 -24187723.96263
 91  3 27  1 38 44.9910000  0  4G15G 2G13G 6
  20937469.237    -8617937.618 5   -109975.17921
  18389737.167   -28645597.911 7 -22321184.30024
  18550993.5814  -14601552.10347 -11154997.69161
  17868170.9254  -31159145.31747 -24206826.65463
 91  3 27  1 38 59.9910000  0  4G15G 2G13G 6
  20937119.9334   -8619808.21046   -111432.75261
  18388696.886   -28651058.736 7 -22325439.46924
  18541635.112   -14650731.549 6 -11193319.27021
  17863530.636   -31183532.767 7 -24225829.83323
 91  3 27  1 39 14.9910000  0  4G15G 2G13G 6
  20936794.159    -8621514.165 6   -112762.04221
  18387670.878   -28656450.362 7 -22329640.71424
  18532306.4804  -14699759.44147 -11231522.75361
  17858915.511   -31207788.707 7 -24244730.54823
 91  3 27  1 39 29.9910000  0  4G15G 2G13G 6
  20936498.1984   -8623055.70246   -113963.21461
  18386658.706   -28661773.051 7 -22333788.25124
  18523005.862   -14748635.856 7 -11269608.21922
  17854323.9724  -31231913.22147 -24263528.84263
 91  3 27  1 39 44.9910000  0  4G15G 2G13G 6
  20936235.1834   -8624454.71746   -115053.30661
  18385655.347   -28667048.758 7 -22337899.17324
  18513728.9484  -14797382.56547 -11307592.60062
  17849753.253   -31255927.782 7 -24282241.45823
 91  3 27  1 39 59.9910000  0  4G15G 2G13G 6
  20935996.573    -8625702.717 5   -116025.73821
  18384661.870   -28672268.652 7 -22341966.60924
  18504479.5344  -14845990.70547 -11345468.99862
  17845207.4804  -31279823.48847 -24300861.46663
 91  3 27  1 40 14.9910000  0  4G15G 2G13G 6
  20935784.0504   -8626815.16945   -116892.54761
  18383676.0974  -28677448.22347 -22346002.62764
  18495253.995   -14894475.606 7 -11383249.39022
  17840678.620   -31303615.561 7 -24319400.72123
 91  3 27  1 40 29.9910000  0  4G15G 2G13G 6
  20935601.136    -8627780.955 5   -117645.06121
  18382700.7144  -28682576.25647 -22349998.48564
  18486052.144   -14942825.801 7 -11420924.81522
  17836173.417   -31327292.607 7 -24337850.34623
 91  3 27  1 40 44.9910000  0  4G15G 2G13G 6
  20935435.8394   -8628643.52045   -118317.15561
  18381725.370   -28687696.030 7 -22353987.90524
  18476869.2534  -14991084.68147 -11458529.07462
  17831682.417   -31350897.640 7 -24356243.85323
 91  3 27  1 40 59.9910000  0  4G15G 2G13G 6
  20935297.933    -8629366.947 5   -118880.80021
  18380761.081   -28692771.542 7 -22357942.83724
  18467710.081   -15039216.046 7 -11496033.98021
  17827211.2144  -31374394.61147 -24374553.15663
 91  3 27  1 41 14.9910000  0  4G15G 2G13G 6
  20935183.8004   -8629959.40945   -119342.43661
  18379801.941   -28697810.917 7 -22361869.60124
  18458573.472   -15087227.526 7 -11533445.46721
  17822758.1984  -31397791.22047 -24392784.25063
 91  3 27  1 41 29.9910000  0  4G15G 2G13G 6
  20935098.2374   -8630402.96345   -119687.99461
  18378852.714   -28702796.290 7 -22365754.28924
  18449462.605   -15135100.904 7 -11570749.35221
  17818327.5584  -31421069.33047 -24410923.00763
 91  3 27  1 41 44.9910000  0  4G15G 2G13G 6
  20935045.4014   -8630693.93645   -119914.68561
  18377916.816   -28707723.943 8 -22369594.00124
  18440379.433   -15182832.687 7 -11607942.87822
  17813923.3784  -31444225.04247 -24428966.39063
 91  3 27  1 41 59.9910000  0  4G15G 2G13G 6
  20935017.7614   -8630834.52645
  18376987.136   -28712595.891 7 -22373390.30824
  18431324.0194  -15230424.54847 -11645027.38661
  17809539.0814  -31467260.14747 -24446915.79163
 91  3 27  1 42 14.9910000  0  4G15G 2G13G 6
  20935013.2064   -8630868.40945
  18376061.745   -28717455.996 8 -22377177.39024
  18422285.558   -15277919.990 7 -11682036.77221
  17805171.4094  -31490218.01547 -24464805.01163
 91  3 27  1 42 29.9910000  0  4G15G 2G13G 6
  20935039.206    -8630737.540 5
  18375151.480   -28722245.897 7 -22380909.76424
  18413276.3474  -15325260.73347 -11718925.60861
  17800827.1834  -31513040.22547 -24482588.52163
 91  3 27  1 42 44.9910000  0  4G15G 2G13G 6
  20935094.0194   -8630428.94045
  18374255.0264  -28726952.43547 -22384577.19164
  18404300.667   -15372433.486 7 -11755683.54321
  17796513.4174  -31535713.37747 -24500255.89063
 91  3 27  1 42 59.9910000  0  4G15G 2G13G 6
  20935181.1284   -8629983.25745   -119360.73361
  18373369.2224  -28731616.26647 -22388211.33964
  18395347.355   -15419478.969 7 -11792342.30721
  17792219.1594  -31558278.10747 -24517838.76663
 91  3 27  1 43 14.9910000  0  4G15G 2G13G 6
  20935292.5584   -8629399.05845   -118905.46461
  18372488.776   -28736235.970 7 -22391811.09824
  18386419.362   -15466395.239 7 -11828900.38121
  17787946.2224  -31580732.53247 -24535335.69563
 91  3 27  1 43 29.9910000  0  4G15G 2G13G 6
  20935429.097    -8628668.339 5   -118336.06121
  18371619.566   -28740803.132 7 -22395369.91224
  18377518.0584  -15513173.92847 -11865351.25661
  17783696.5974  -31603068.27847 -24552740.14263
 91  3 27  1 43 44.9910000  0  4G15G 2G13G 6
  20935597.7224   -8627800.63745   -117659.89261
  18370759.4414  -28745327.59947 -22398895.46364
  18368641.136   -15559824.420 7 -11901702.23121
  17779465.1204  -31625294.58547 -24570059.31363
 91  3 27  1 43 59.9910000  0  4G15G 2G13G 6
  20935787.526    -8626780.754 5   -116865.14121
  18369909.8864  -28749793.87847 -22402375.67164
  18359789.737   -15606331.497 7 -11937941.45821
  17775261.1514  -31647395.79347 -24587281.00663
 91  3 27  1 44 14.9910000  0  4G15G 2G13G 6
  20936013.347    -8625614.391 5   -115956.23721
  18369068.0114  -28754207.33747 -22405814.72264
  18350966.5814  -15652700.40447 -11974073.02361
  17771077.011   -31669377.157 7 -24604409.31723
 91  3 27  1 44 29.9910000  0  4G15G 2G13G 6
  20936261.2454   -8624307.19845   -114937.62761
  18368239.7224  -28758573.89648 -22409217.22564
  18342169.644   -15698936.594 7 -12010101.17321
  17766915.737   -31691244.293 7 -24621448.61823
 91  3 27  1 44 44.9910000  0  4G15G 2G13G 6
  20936530.823    -8622879.413 5   -113825.00821
  18367411.417   -28762913.750 7 -22412598.91524
  18333392.136   -15745060.129 7 -12046041.53921
  17762773.487   -31713017.128 7 -24638414.44023
 91  3 27  1 44 59.9910000  0  4G15G 2G13G 6
  20936831.2304   -8621293.21145   -112588.97861
  18366598.706   -28767188.685 7 -22415930.02024
  18324642.597   -15791032.801 7 -12081864.34122
  17758654.870   -31734657.483 7 -24655277.03123
 91  3 27  1 45 14.9910000  0  4G15G 2G13G 6
  20937165.526    -8619567.497 5   -111244.24821
  18365794.800   -28771417.590 7 -22419225.25824
  18315919.495   -15836873.224 7 -12117584.10821
  17754558.4254  -31756183.65847 -24672050.64363
 91  3 27  1 45 29.9910000  0  4G15G 2G13G 6
  20937517.112    -8617704.102 5   -109792.21321
  18364997.417   -28775602.520 7 -22422486.22924
  18307221.7534  -15882583.52847 -12153202.47062
  17750483.730   -31777597.737 7 -24688736.91623
 91  3 27  1 45 44.9910000  0  4G15G 2G13G 6
  20937900.011    -8615694.542 5   -108226.27921
  18364210.8234  -28779734.73247 -22425706.12264
  18298549.2224  -15928154.68047 -12188712.40462
  17746432.1984  -31798890.64747 -24705328.76163
 91  3 27  1 45 59.9910000  0  4G15G 2G13G 6
  20938311.1984   -8613536.54245   -106544.67961
  18363434.1914  -28783811.57347 -22428882.87363
  18289905.0264  -15973584.02847 -12224111.83662
  17742403.2064  -31820059.59147 -24721824.01463
 91  3 27  1 46 14.9910000  0  4G15G 2G13G 6
  20938748.4874   -8611229.76645   -104747.17261
  18362670.1754  -28787832.67647 -22432016.19163
  18281286.144   -16018871.016 7 -12259400.34122
  17738399.8704  -31841103.91747 -24738222.16363
 91  3 27  1 46 29.9910000  0  4G15G 2G13G 6
  20939213.5504   -8608786.77745   -102843.48661
  18361913.2064  -28791810.51047 -22435115.79163
  18272692.534   -16064027.836 7 -12294587.41822
  17734414.980   -31862036.004 7 -24754532.85423
 91  3 27  1 46 44.9910000  0  4G15G 2G13G 6
  20939700.550    -8606221.800 5   -100844.77621
  18361161.480   -28795759.162 7 -22438192.64923
  18264121.6444  -16109068.58947 -12329684.04362
  17730451.7694  -31882869.60047 -24770766.79263
 91  3 27  1 46 59.9910000  0  4G15G 2G13G 6
  20940213.2844   -8603539.95745    -98754.99061
  18360413.753   -28799683.714 7 -22441250.72323
  18255572.339   -16153998.405 7 -12364694.23822
  17726504.698   -31903609.690 7 -24786927.88823
 91  3 27  1 47 14.9910000  0  4G15G 2G13G 6
  20940745.9334   -8600735.62445    -96569.76561
  18359674.112   -28803578.348 7 -22444285.49223
  18247045.620   -16198811.252 7 -12399613.28822
  17722576.581   -31924250.184 7 -24803011.36323
 91  3 27  1 47 29.9910000  0  4G15G 2G13G 6
  20941311.1284   -8597771.00545    -94259.62461
  18358946.800   -28807405.317 8 -22447267.52923
  18238547.5034  -16243469.01347 -12434411.48961
  17718675.175   -31944753.079 7 -24818987.61923
 91  3 27  1 47 44.9910000  0  4G15G 2G13G 6
  20941896.9954   -8594683.97045    -91854.12161
  18358223.753   -28811202.200 8 -22450226.12723
  18230072.026   -16288009.328 7 -12469118.18021
  17714791.987   -31965155.725 7 -24834885.76623
 91  3 27  1 47 59.9910000  0  4G15G 2G13G 6
  20942504.550    -8591486.021 5    -89362.17221
  18357504.605   -28814980.307 8 -22453170.09023
  18221614.745   -16332443.420 7 -12503742.10221
  17710926.472   -31985469.295 7 -24850714.50123
 91  3 27  1 48 14.9910000  0  4G15G 2G13G 6
  20943148.448    -8588099.643 5    -86723.39321
  18356803.417   -28818662.114 7 -22456039.01623
  18213195.4014  -16376693.53747 -12538222.65161
  17707093.237   -32005615.967 7 -24866413.18523
 91  3 27  1 48 29.9910000  0  4G15G 2G13G 6
  20943822.4804   -8584575.29046    -83977.12161
  18356111.441   -28822297.925 7 -22458872.09724
  18204799.269   -16420809.849 7 -12572598.94121
  17703280.300   -32025645.871 7 -24882020.88523
 91  3 27  1 48 44.9910000  0  4G15G 2G13G 6
  20944514.878    -8580928.054 5    -81135.09121
  18355425.8234  -28825902.73747 -22461681.03164
  18196426.1444  -16464807.17847 -12606882.52162
  17699488.495   -32045573.811 7 -24897549.12323
 91  3 27  1 48 59.9910000  0  4G15G 2G13G 6
  20945231.230    -8577159.653 6    -78198.62521
  18354745.362   -28829477.999 7 -22464466.93724
  18188075.6124  -16508686.88947 -12641074.43562
  17695715.245   -32065401.027 7 -24912998.88823
 91  3 27  1 49 14.9910000  0  4G15G 2G13G 6
  20945986.0114   -8573198.32646    -75111.84361
  18354083.776   -28832952.229 8 -22467174.11624
  18179763.136   -16552377.559 7 -12675119.06921
  17691976.237   -32085055.687 7 -24928314.18723
 91  3 27  1 49 29.9910000  0  4G15G 2G13G 6
  20946754.167    -8569166.214 5    -71969.90221
  18353419.698   -28836447.293 8 -22469897.52223
  18171461.3394  -16596001.08947 -12709111.36361
  17688244.253   -32104659.696 6 -24943590.01923
 91  3 27  1 49 44.9910000  0  4G15G 2G13G 6
  20947547.2614   -8564997.62045    -68721.60261
  18352761.1594  -28839896.98047 -22472585.57864
  18163183.925   -16639490.914 7 -12742999.50021
  17684537.378   -32124146.445 7 -24958774.47423
 91  3 27  1 49 59.9910000  0  4G15G 2G13G 6
  20948371.925    -8560664.951 6    -65345.45821
  18352119.308   -28843273.635 8 -22475216.72724
  18154941.0344  -16682819.31747 -12776761.84161
  17680855.519   -32143488.168 7 -24973845.92623
 91  3 27  1 50 14.9910000  0  4G15G 2G13G 6
  20949218.8554   -8556212.26445    -61876.28461
  18351484.394   -28846621.463 8 -22477825.90424
  18146717.151   -16726030.371 7 -12810432.74321
  17677194.839   -32162728.741 7 -24988838.56523
 91  3 27  1 50 29.9910000  0  4G15G 2G13G 6
  20950093.9174   -8551602.45646    -58284.19861
  18350858.128   -28849903.130 7 -22480383.03824
  18138524.730   -16769086.645 7 -12843983.03822
  17673560.191   -32181830.736 7 -25003723.21223
 91  3 27  1 50 44.9900000  0  4G15G 2G13G 6
  20951002.4124   -8546830.00246    -54565.35561
  18350247.326   -28853112.607 7 -22482883.91624
  18130361.951   -16811979.145 7 -12877405.70721
  17669954.100   -32200786.853 7 -25018494.19923
 91  3 27  1 50 59.9900000  0  4G15G 2G13G 6
  20951929.725    -8541941.913 5    -50756.41821
  18349642.4904  -28856297.79348 -22485365.86464
  18122221.928   -16854760.835 7 -12910742.04621
  17666363.318   -32219646.718 7 -25033190.17423
 91  3 27  1 51 14.9900000  0  4G15G 2G13G 6
  20952892.0294   -8536914.97145    -46839.29061
  18349043.584   -28859434.594 7 -22487810.11124
  18114106.4904  -16897405.30347 -12943971.44461
  17662798.607   -32238385.291 7 -25047791.64223
 91  3 27  1 51 29.9900000  0  4G15G 2G13G 6
  20953865.084    -8531781.135 5    -42838.86421
  18348451.0684  -28862554.94347 -22490241.54664
  18106011.6314  -16939944.12647 -12977118.52062
  17659249.264   -32257034.254 7 -25062323.28923
 91  3 27  1 51 44.9900000  0  4G15G 2G13G 6
  20954877.2174   -8526458.66945    -38691.44261
  18347876.4674  -28865576.88347 -22492596.29764
  18097950.982   -16982295.223 7 -13010119.32521
  17655733.404   -32275511.346 7 -25076721.00623
 91  3 27  1 51 59.9900000  0  4G15G 2G13G 6
  20955909.8424   -8521037.23845    -34466.92061
  18347302.2094  -28868589.93547 -22494944.12664
  18089911.451   -17024548.273 7 -13043043.72822
  17652232.162   -32293905.846 7 -25091054.36523
 91  3 27  1 52 14.9900000  0  4G15G 2G13G 6
  20956973.8734   -8515462.08545    -30122.59061
  18346739.4674  -28871539.12147 -22497242.18364
  18081900.389   -17066648.280 7 -13075848.88222
  17648758.475   -32312162.810 7 -25105280.55723
 91  3 27  1 52 29.9900000  0  4G15G 2G13G 6
  20958058.670    -8509735.167 5    -25659.99921
  18346192.8184  -28874426.24948 -22499491.88164
  18073916.850   -17108596.987 7 -13108536.13722
  17645311.740   -32330283.692 7 -25119400.70023
 91  3 27  1 52 44.9900000  0  4G15G 2G13G 6
  20959179.1074   -8503870.12345    -21089.81561
  18345652.1474  -28877264.78348 -22501703.72264
  18065959.865   -17150407.826 7 -13141115.95622
  17641886.803   -32348281.797 7 -25133425.17923
 91  3 27  1 52 59.9900000  0  4G15G 2G13G 6
  20960328.334    -8497839.592 6    -16390.66921
  18345125.2484  -28880027.38248 -22503856.38764
  18058036.4204  -17192053.30647 -13173566.92662
  17638490.490   -32366129.567 7 -25147332.50523
 91  3 27  1 53 14.9900000  0  4G15G 2G13G 6
  20961492.287    -8491698.726 5    -11605.54521
  18344604.0924  -28882768.87048 -22505992.60764
  18050129.3734  -17233587.98046 -13205931.53362
  17635111.342   -32383881.612 7 -25161165.25023
 91  3 27  1 53 29.9900000  0  4G15G 2G13G 6
  20962685.0294   -8485444.13345     -6731.78861
  18344088.3264  -28885485.61648 -22508109.54164
  18042250.193   -17275008.126 7 -13238206.92522
  17631751.686   -32401534.165 7 -25174920.46923
 91  3 27  1 53 44.9900000  0  4G15G 2G13G 6
  20963894.9984   -8479075.05445     -1769.34561
  18343575.5294  -28888176.90448 -22510207.14664
  18034391.303   -17316312.822 7 -13270392.85122
  17628411.639   -32419086.211 7 -25188597.86723
 91  3 27  1 53 59.9900000  0  4G15G 2G13G 6
  20965141.0374   -8472527.66445      3332.55961
  18343079.4044  -28890778.78847 -22512234.58364
  18026563.9674  -17357438.10847 -13302438.46462
  17625102.506   -32436473.720 7 -25202146.55923
 91  3 27  1 54 14.9900000  0  4G15G 2G13G 6
  20966413.3184   -8465826.62945      8554.21061
  18342595.1704  -28893315.89747 -22514211.54464
  18018766.967   -17398408.471 7 -13334363.38022
  17621820.123   -32453721.146 7 -25215586.08723
 91  3 27  1 54 29.9900000  0  4G15G 2G13G 6
  20967715.4514   -8458999.03645     13874.43361
  18342121.2404  -28895815.10447 -22516158.96964
  18010995.264   -17439250.776 7 -13366188.51022
  17618560.725   -32470855.024 7 -25228937.14923
 91  3 27  1 54 44.9900000  0  4G15G 2G13G 6
  20969037.514    -8452054.786 5     19285.57821
  18341650.3894  -28898285.99647 -22518084.32964
  18003246.318   -17479974.923 7 -13397921.56122
  17615319.350   -32487884.936 7 -25242207.18823
 91  3 27  1 54 59.9900000  0  4G15G 2G13G 6
  20970384.8974   -8444973.31645     24803.64461
  18341190.7564  -28900707.62948 -22519971.30564
  17995522.178   -17520559.642 7 -13429545.96222
  17612103.537   -32504789.814 7 -25255379.79923
 91  3 27  1 55 14.9900000  0  4G15G 2G13G 6
  20971752.443    -8437786.051 5     30404.17921
  18340733.115   -28903111.530 8 -22521844.46124
  17987819.334   -17561036.307 7 -13461086.16622
  17608903.217   -32521600.731 7 -25268479.19823
 91  3 27  1 55 29.9900000  0  4G15G 2G13G 6
  20973152.662    -8430429.164 5     36136.83821
  18340291.475   -28905433.759 8 -22523653.97724
  17980149.998   -17601340.876 7 -13492492.27222
  17605734.904   -32538253.722 7 -25281455.53023
 91  3 27  1 55 44.9900000  0  4G15G 2G13G 6
  20974579.514    -8422918.374 5     41989.45621
  18339862.4514  -28907689.42348 -22525411.62763
  17972510.826   -17641488.630 7 -13523776.18022
  17602592.779   -32554763.852 7 -25294320.55323
 91  3 27  1 55 59.9900000  0  4G15G 2G13G 6
  20976030.4284   -8415301.48645     47924.73461
  18339437.209   -28909926.378 8 -22527154.69423
  17964890.647   -17681527.006 7 -13554974.87122
  17599469.545   -32571178.552 7 -25307111.21222
 91  3 27  1 56 14.9900000  0  4G15G 2G13G 6
  20977504.8574   -8407560.09645     53957.01261
  18339017.748   -28912126.028 8 -22528868.69523
  17957296.373   -17721437.528 7 -13586073.92921
  17596367.186   -32587479.182 7 -25319812.99023
 91  3 27  1 56 29.9900000  0  4G15G 2G13G 6
  20979008.100    -8399671.400 5     60104.11421
  18338610.303   -28914265.575 8 -22530535.85523
  17949731.1474  -17761197.34147 -13617055.55961
  17593291.693   -32603642.776 7 -25332407.97923
 91  3 27  1 56 44.9900000  0  4G15G 2G13G 6
  20980534.623    -8391633.573 5     66367.38921
  18338215.6154  -28916342.81547 -22532154.47963
  17942193.272   -17800804.351 7 -13647918.10821
  17590241.615   -32619667.085 7 -25344894.44223
 91  3 27  1 56 59.9900000  0  4G15G 2G13G 6
  20982091.9124   -8383448.81845     72745.16561
  18337830.795   -28918360.122 8 -22533726.39723
  17934686.084   -17840260.417 7 -13678663.05621
  17587218.639   -32635554.129 7 -25357273.93523
 91  3 27  1 57 14.9900000  0  4G15G 2G13G 6
  20983677.256    -8375127.863 5     79229.08521
  18337457.537   -28920327.773 8 -22535259.61623
  17927203.701   -17879576.040 7 -13709298.55121
  17584221.100   -32651314.003 7 -25369554.34023
 91  3 27  1 57 29.9900000  0  4G15G 2G13G 6
  20985284.623    -8366671.072 5     85818.80021
  18337091.9284  -28922245.79948 -22536754.17264
  17919748.295   -17918751.247 7 -13739824.64521
  17581245.053   -32666946.602 7 -25381735.57623
 91  3 27  1 57 44.9900000  0  4G15G 2G13G 6
  20986916.693    -8358106.046 5     92492.88921
  18336730.779   -28924141.803 8 -22538231.56424
  17912316.006   -17957813.471 7 -13770262.69721
  17578289.5144  -32682479.20747 -25393838.89463
 91  3 27  1 57 59.9900000  0  4G15G 2G13G 6
  20988581.6234   -8349345.67945     99319.19861
  18336389.686   -28925928.643 7 -22539623.89124
  17904921.295   -17996675.596 7 -13800544.82022
  17575368.240   -32697824.687 7 -25405796.39823
 91  3 27  1 58 14.9900000  0  4G15G 2G13G 6
  20990269.123    -8340486.567 5    106222.42721
  18336055.803   -28927702.602 7 -22541006.18324
  17897545.100   -18035433.850 7 -13830746.00722
  17572467.178   -32713079.087 7 -25417682.93423
 91  3 27  1 58 29.9900000  0  4G15G 2G13G 6
  20991980.5924   -8331481.89945    113239.12161
  18335726.2724  -28929416.54447 -22542341.70864
  17890198.8264  -18074041.07847 -13860829.50462
  17569590.053   -32728195.251 7 -25429461.74922
 91  3 27  1 58 44.9900000  0  4G15G 2G13G 6
  20993718.8264   -8322336.70145    120365.26861
  18335412.053   -28931075.120 7 -22543634.09524
  17882879.850   -18112501.812 7 -13890798.86522
  17566738.498   -32743177.592 7 -25441136.28423
 91  3 27  1 58 59.9900000  0  4G15G 2G13G 6
  20995493.3424   -8313035.37245    127613.11961
  18335108.600   -28932662.550 7 -22544871.03824
  17875591.740   -18150800.080 7 -13920641.62722
  17563915.897   -32758010.165 7 -25452694.11723
 91  3 27  1 59 14.9900000  0  4G15G 2G13G 6
  20997286.2644   -8303608.81345    134958.53961
  18334815.123   -28934209.794 7 -22546076.66624
  17868328.920   -18188966.746 7 -13950381.83222
  17561116.850   -32772723.710 7 -25464159.20123
 91  3 27  1 59 29.9900000  0  4G15G 2G13G 6
  20999101.6784   -8294067.15545    142393.62161
  18334527.420   -28935726.812 8 -22547258.74624
  17861089.365   -18227012.000 7 -13980027.43422
  17558337.0844  -32787328.09147 -25475539.23163
 91  3 27  1 59 44.9900000  0  4G15G 2G13G 6
  21000939.154    -8284410.783 5    149918.12521
  18334243.287   -28937213.798 7 -22548417.42224
  17853872.576   -18264936.298 7 -14009578.78522
  17555580.0454  -32801823.38747 -25486834.25963
 91  3 27  1 59 59.9900000  0  4G15G 2G13G 6
  21002801.4824   -8274619.14345    157547.99661
  18333970.037   -28938649.826 7 -22549536.38923
  17846682.490   -18302718.511 7 -14039019.42322
  17552845.201   -32816188.494 7 -25498027.82923
 91  3 27  2  0 14.9900000  0  4G15G 2G13G 6
  21004687.397    -8264715.364 5    165265.28621
  18333702.631   -28940058.090 7 -22550633.71323
  17839515.1704  -18340381.28147 -14068366.99562
  17550131.3894  -32830446.22547 -25509137.74263
 91  3 27  2  0 29.9900000  0  4G15G 2G13G 6
  21006599.639    -8254662.468 5    173098.76821
  18333446.756   -28941401.383 7 -22551680.42123
  17832377.186   -18377887.714 7 -14097592.74122
  17547446.615   -32844559.173 7 -25520134.83123
 91  3 27  2  0 44.9900000  0  4G15G 2G13G 6
  21008538.186    -8244478.484 5    181034.34221
  18333200.764   -28942697.163 7 -22552690.10123
  17825266.045   -18415255.274 7 -14126710.26622
  17544785.076   -32858544.994 7 -25531032.85623
 91  3 27  2  0 59.9900000  0  4G15G 2G13G 6
  21010501.162    -8234158.666 5    189075.80921
  18332963.443   -28943940.830 7 -22553659.17423
  17818184.357   -18452479.290 7 -14155715.95422
  17542149.248   -32872398.849 7 -25541828.04823
 91  3 27  2  1 14.9900000  0  4G15G 2G13G 6
  21012489.397    -8223704.524 5    197221.94221
  18332735.428   -28945133.731 7 -22554588.69423
  17811127.4204  -18489560.92647 -14184610.67462
  17539535.967   -32886121.815 7 -25552521.25923
 91  3 27  2  1 29.9900000  0  4G15G 2G13G 6
  21014506.2564   -8213103.77945    205482.28361
  18332520.154   -28946262.841 7 -22555468.50123
  17804100.553   -18526487.474 7 -14213384.56022
  17536953.1474  -32899701.00647 -25563102.43263
 91  3 27  2  1 44.9900000  0  4G15G 2G13G 6
  21016545.2174   -8202393.64545    213827.90161
  18332311.522   -28947365.625 7 -22556327.79823
  17797094.326   -18563296.415 7 -14242066.80322
  17534389.5064  -32913173.54947 -25573600.50663
 91  3 27  2  1 59.9900000  0  4G15G 2G13G 6
  21018610.209    -8191558.660 5    222270.79821
  18332108.053   -28948426.140 7 -22557154.16423
  17790116.717   -18599971.492 7 -14270644.73822
  17531850.389   -32926523.335 7 -25584002.92523
 91  3 27  2  2 14.9900000  0  4G15G 2G13G 6
  21020692.701    -8180593.192 5    230815.35121
  18331915.459   -28949438.734 7 -22557943.17923
  17783163.068   -18636506.967 7 -14299113.89522
  17529333.459   -32939744.618 7 -25594305.21223
 91  3 27  2  2 29.9900000  0  4G15G 2G13G 6
  21022808.787    -8169478.768 5    239475.98821
  18331734.459   -28950384.609 7 -22558680.21323
  17776242.522   -18672884.029 7 -14327459.61722
  17526846.287   -32952818.385 7 -25604492.54323
 91  3 27  2  2 44.9900000  0  4G15G 2G13G 6
  21024951.9824   -8158227.31745    248243.41261
  18331569.318   -28951275.600 7 -22559374.47523
  17769348.045   -18709114.640 7 -14355691.21022
  17524382.662   -32965756.389 7 -25614574.09123
 91  3 27  2  2 59.9900000  0  4G15G 2G13G 6
  21027115.9514   -8146844.99445    257112.77961
  18331405.451   -28952117.766 7 -22560030.69623
  17762480.701   -18745204.669 7 -14383813.26022
  17521947.334   -32978564.363 7 -25624554.31523
 91  3 27  2  3 14.9900000  0  4G15G 2G13G 6
  21029308.0224   -8135321.94145    266091.84461
  18331257.201   -28952900.967 7 -22560640.96623
  17755640.053   -18781144.022 7 -14411817.90822
  17519535.3574  -32991232.11047 -25634425.28163
 91  3 27  2  3 29.9900000  0  4G15G 2G13G 6
  21031533.5534   -8123630.10745    275202.91461
  18331126.201   -28953596.955 7 -22561182.77323
  17748835.022   -18816904.286 7 -14439682.49922
  17517156.693   -33003731.169 7 -25644164.29523
 91  3 27  2  3 44.9900000  0  4G15G 2G13G 6
  21033781.4204   -8111817.73945    284406.88561
  18330999.162   -28954253.602 7 -22561694.93123
  17742056.1474  -18852533.35347 -14467445.86862
  17514801.186   -33016109.341 7 -25653810.10223
 91  3 27  2  3 59.9900000  0  4G15G 2G13G 6
  21036050.9904   -8099896.22245    293696.44261
  18330881.975   -28954882.047 7 -22562184.60823
  17735297.326   -18888042.536 7 -14495115.31722
  17512467.701   -33028377.644 7 -25663369.80123
 91  3 27  2  4 14.9900000  0  4G15G 2G13G 6
  21038340.8344   -8087849.87245    303083.25961
  18330771.623   -28955466.401 7 -22562639.93823
  17728567.006   -18923416.072 7 -14522679.06222
  17510155.225   -33040520.161 7 -25672831.48322
 91  3 27  2  4 29.9900000  0  4G15G 2G13G 6
  21040658.3574   -8075679.25245    312566.90561
  18330666.357   -28956007.024 8 -22563061.18523
  17721860.506   -18958654.241 7 -14550137.32922
  17507869.451   -33052537.038 7 -25682195.26823
 91  3 27  2  4 44.9900000  0  4G15G 2G13G 6
  21042999.7954   -8063382.24145    322149.05761
  18330571.779   -28956501.627 8 -22563446.56923
  17715179.842   -18993754.450 7 -14577488.09422
  17505606.873   -33064425.773 7 -25691459.19623
 91  3 27  2  4 59.9900000  0  4G15G 2G13G 6
  21045366.701    -8050942.641 5    331842.28521
  18330489.053   -28956933.377 8 -22563782.98723
  17708530.615   -19028700.073 7 -14604718.39622
  17503372.514   -33076169.585 7 -25700610.20623
 91  3 27  2  5 14.9900000  0  4G15G 2G13G 6
  21047756.920    -8038374.944 5    341635.33421
  18330415.717   -28957316.926 8 -22564081.83423
  17701908.9364  -19063505.97747 -14631839.83862
  17501163.732   -33087782.968 7 -25709659.57823
 91  3 27  2  5 29.9900000  0  4G15G 2G13G 6
  21050174.139    -8025682.820 5    351525.37121
  18330353.576   -28957655.633 7 -22564345.74123
  17695310.279   -19098175.391 7 -14658854.91322
  17498976.092   -33099269.099 7 -25718609.78923
 91  3 27  2  5 44.9900000  0  4G15G 2G13G 6
  21052616.1154   -8012830.59545    361540.13161
  18330302.9364  -28957913.66047 -22564546.78963
  17688745.717   -19132672.440 7 -14685735.68022
  17496821.459   -33110592.001 7 -25727432.80323
 91  3 27  2  5 59.9900000  0  4G15G 2G13G 6
  21055080.303    -7999899.429 5    371616.40421
  18330257.772   -28958171.982 7 -22564748.06023
  17682199.178   -19167077.973 7 -14712545.14322
  17494683.045   -33121832.505 7 -25736191.61723
 91  3 27  2  6 14.9900000  0  4G15G 2G13G 6
  21057569.482    -7986807.656 5    381817.85621
  18330221.6934  -28958348.38547
  17675685.006   -19201310.012 7 -14739219.41322
  17492575.943   -33132908.311 7 -25744822.09523
 91  3 27  2  6 29.9900000  0  4G15G 2G13G 6
  21060085.873    -7973592.234 5    392115.62121
  18330194.6474  -28958480.02447
  17669197.615   -19235405.613 7 -14765787.37322
  17490491.412   -33143856.372 7 -25753353.02523
 91  3 27  2  6 44.9900000  0  4G15G 2G13G 6
  21062621.522    -7960252.838 5    402510.02221
  18330180.8814  -28958566.12447
  17662733.982   -19269363.906 7 -14792248.33822
  17488432.662   -33154675.735 7 -25761783.68123
 91  3 27  2  6 59.9900000  0  4G15G 2G13G 6
  21065189.5374   -7946773.93945    413013.13461
  18330175.8264  -28958591.02947
  17656302.8344  -19303169.32147 -14818590.18362
  17486401.623   -33165350.767 7 -25770101.86323
 91  3 27  2  7 14.9900000  0  4G15G 2G13G 6
  21067773.193    -7933177.064 5    423608.12721
  18330178.2324  -28958575.78547
  17649893.053   -19336843.087 7 -14844829.43322
  17484393.990   -33175902.357 7 -25778323.86223
 91  3 27  2  7 29.9900000  0  4G15G 2G13G 6
  21070394.537    -7919420.434 5    434327.61421
  18330197.4364  -28958478.53547
  17643518.037   -19370343.183 7 -14870933.35722
  17482417.873   -33186288.607 7 -25786417.02923
 91  3 27  2  7 44.9900000  0  4G15G 2G13G 6
  21073030.4434   -7905555.89145    445131.21061
  18330222.2094  -28958350.64748
  17637167.029   -19403720.957 7 -14896941.96922
  17480462.803   -33196560.699 7 -25794421.23523
 91  3 27  2  7 59.9900000  0  4G15G 2G13G 6
  21075693.982    -7891572.262 5    456027.59521
  18330255.3504  -28958180.81048
  17630841.725   -19436965.087 7 -14922846.43822
  17478530.764   -33206707.146 7 -25802327.53623
 91  3 27  2  8 14.9900000  0  4G15G 2G13G 6
  21078382.5844   -7877430.91345    467046.85461
  18330299.3504  -28957930.12447
  17624546.6704  -19470036.81547 -14948616.57962
  17476632.162   -33216689.036 7 -25810105.60823
 91  3 27  2  8 29.9900000  0  4G15G 2G13G 6
  21081101.365    -7863146.495 5    478177.59921
  18330363.342   -28957613.301 7 -22564312.58024
  17618283.693   -19502950.410 7 -14974263.49122
  17474761.365   -33226520.657 7 -25817766.59823
 91  3 27  2  8 44.9900000  0  4G15G 2G13G 6
  21083847.873    -7848715.948 5    489422.23021
  18330436.779   -28957226.568 7 -22564011.21424
  17612050.764   -19535702.712 7 -14999784.72122
  17472918.100   -33236198.502 7 -25825307.75622
 91  3 27  2  8 59.9900000  0  4G15G 2G13G 6
  21086624.342    -7834131.937 5    500786.42321
  18330522.357   -28956762.355 7 -22563649.47124
  17605851.373   -19568285.975 7 -15025174.22722
  17471108.9674  -33245714.73147 -25832722.96263
 91  3 27  2  9 14.9900000  0  4G15G 2G13G 6
  21089417.6314   -7819437.36345    512236.78661
  18330621.951   -28956263.322 7 -22563260.59624
  17599673.764   -19600743.016 7 -15050465.38422
  17469318.959   -33255112.068 7 -25840045.54522
 91  3 27  2  9 29.9900000  0  4G15G 2G13G 6
  21092242.311    -7804601.431 5    523797.32221
  18330725.295   -28955698.793 7 -22562820.69023
  17593528.9674  -19633043.17947 -15075634.30162
  17467560.068   -33264359.613 7 -25847251.40222
 91  3 27  2  9 44.9900000  0  4G15G 2G13G 6
  21095085.920    -7789654.318 5    535444.43321
  18330841.459   -28955098.631 7 -22562353.01924
  17587404.850   -19665216.217 7 -15100704.16422
  17465823.951   -33273487.048 7 -25854363.66722
 91  3 27  2  9 59.9900000  0  4G15G 2G13G 6
  21097952.357    -7774596.730 5    547177.67621
  18330960.740   -28954463.024 7 -22561857.71824
  17581307.014   -19697262.447 7 -15125675.20222
  17464109.9364  -33282494.48647 -25861382.42462
 91  3 27  2 10 14.9900000  0  4G15G 2G13G 6
  21100841.850    -7759404.887 5    559015.53421
  18331093.045   -28953767.900 7 -22561316.05124
  17575237.889   -19729157.931 7 -15150528.78222
  17462423.0294  -33291357.86647 -25868288.92563
 91  3 27  2 10 29.9900000  0  4G15G 2G13G 6
  21103757.6314   -7744092.83645    570947.03361
  18331235.006   -28953027.145 7 -22560738.82624
  17569194.326   -19760916.285 7 -15175275.51122
  17460760.5144  -33300090.98547 -25875093.92762
 91  3 27  2 10 44.9900000  0  3G 2G13G 6
  18331379.420   -28952261.833 7 -22560142.45623
  17563173.131   -19792558.664 7 -15199931.86422
  17459119.615   -33308714.660 7 -25881813.66023
 91  3 27  2 10 59.9900000  0  3G 2G13G 6
  18331535.022   -28951452.497 7 -22559511.78524
  17557176.264   -19824065.669 7 -15224482.73522
  17457504.459   -33317209.245 7 -25888432.79623
 91  3 27  2 11 14.9900000  0  3G 2G13G 6
  18331693.897   -28950615.547 7 -22558859.09823
  17551204.209   -19855453.787 7 -15248940.46322
  17455908.475   -33325591.249 7 -25894963.70723
 91  3 27  2 11 29.9900000  0  3G 2G13G 6
  18331868.982   -28949694.876 7 -22558141.67423
  17545263.8814  -19886666.80447 -15273262.25062
  17454345.209   -33333804.442 7 -25901363.57923
 91  3 27  2 11 44.9900000  0  3G 2G13G 6
  18332049.147   -28948751.010 8 -22557406.17223
  17539346.498   -19917765.656 7 -15297495.07922
  17452802.107   -33341909.175 7 -25907678.93223
 91  3 27  2 11 59.9900000  0  3G 2G13G 6
  18332238.709   -28947748.392 8 -22556624.89423
  17533456.225   -19948714.692 7 -15321611.17022
  17451287.928   -33349870.021 7 -25913882.16522
 91  3 27  2 12 14.9900000  0  3G 2G13G 6
  18332440.756   -28946675.649 7 -22555788.97323
  17527599.1784  -19979502.42747 -15345601.57162
  17449803.717   -33357675.379 7 -25919964.23923
 91  3 27  2 12 29.9900000  0  3G 2G13G 6
  18332652.9754  -28945561.50747 -22554920.78463
  17521764.272   -20010157.529 7 -15369488.61322
  17448341.9044  -33365353.61747 -25925947.26062
 91  3 27  2 12 44.9900000  0  3G 2G13G 6
  18332878.623   -28944380.152 7 -22554000.22223
  17515960.4754  -20040654.36447 -15393252.33662
  17446907.8114  -33372879.03847 -25931811.19863
 91  3 27  2 12 59.9900000  0  3G 2G13G 6
  18333114.397   -28943146.572 7 -22553038.98223
  17510185.522   -20071007.990 7 -15416904.46922
  17445504.045   -33380266.533 7 -25937567.66723
 91  3 27  2 13 14.9900000  0  3G 2G13G 6
  18333365.0294  -28941835.68347 -22552017.48363
  17504440.7564  -20101193.71747 -15440425.77262
  17444128.115   -33387491.134 7 -25943197.21322
 91  3 27  2 13 29.9900000  0  3G 2G13G 6
  18333618.045   -28940493.420 7 -22550971.54223
  17498720.967   -20131257.326 7 -15463851.92122
  17442776.350   -33394598.564 7 -25948735.45422
 91  3 27  2 13 44.9900000  0  3G 2G13G 6
  18333884.670   -28939108.992 7 -22549892.75223
  17493024.7014  -20161188.04247 -15487174.51962
  17441448.178   -33401578.077 7 -25954174.01022
 91  3 27  2 13 59.9900000  0  3G 2G13G 6
  18334157.428   -28937650.681 7 -22548756.38623
  17487360.7724  -20190954.20347 -15510368.88462
  17440152.936   -33408397.633 7 -25959487.92922
 91  3 27  2 14 14.9900000  0  3G 2G13G 6
  18334450.545   -28936122.539 7 -22547565.60823
  17481726.4434  -20220559.76047 -15533438.11262
  17438881.826   -33415061.224 7 -25964680.31822
 91  3 27  2 14 29.9900000  0  3G 2G13G 6
  18334756.8574  -28934510.01147 -22546309.06763
  17476125.342   -20249990.377 7 -15556371.01422
  17437645.576   -33421554.353 7 -25969739.87522
 91  3 27  2 14 44.9900000  0  3G 2G13G 6
  18335069.037   -28932866.521 7 -22545028.40223
  17470547.522   -20279299.551 7 -15579209.28922
  17436433.256   -33427930.179 7 -25974708.03523
 91  3 27  2 14 59.9900000  0  3G 2G13G 6
  18335393.412   -28931166.406 7 -22543703.61523
  17464999.373   -20308461.767 7 -15601933.04622
  17435249.248   -33434162.943 7 -25979564.71322
 91  3 27  2 15 14.9900000  0  3G 2G13G 6
  18335724.4204  -28929426.71847 -22542347.98963
  17459474.068   -20337493.980 7 -15624555.50722
  17434087.811   -33440269.905 7 -25984323.36622
 91  3 27  2 15 29.9900000  0  3G 2G13G 6
  18336063.357   -28927639.835 7 -22540955.58723
  17453975.2404  -20366388.53547 -15647070.71062
  17432950.342   -33446243.153 7 -25988977.82222
 91  3 27  2 15 44.9900000  0  3G 2G13G 6
  18336409.748   -28925817.483 7 -22539535.55523
  17448501.7404  -20395157.22547 -15669487.83962
  17431836.506   -33452094.277 7 -25993537.13122
 91  3 27  2 15 59.9900000  0  3G 2G13G 6
  18336766.600   -28923941.939 7 -22538074.07023
  17443054.8734  -20423782.71047 -15691793.37962
  17430750.350   -33457805.796 7 -25997987.64422
 91  3 27  2 16 14.9900000  0  3G 2G13G 6
  18337136.7094  -28921999.16747 -22536559.69663
  17437637.6004  -20452250.72047 -15713975.70362
  17429692.592   -33463363.243 7 -26002317.60323
 91  3 27  2 16 29.9900000  0  3G 2G13G 6
  18337520.037   -28919995.535 7 -22534998.40823
  17432248.6784  -20480567.94047 -15736041.03162
  17428662.1074  -33468773.06847 -26006533.02662
 91  3 27  2 16 44.9900000  0  3G 2G13G 6
  18337906.936   -28917954.280 7 -22533407.80123
  17426883.5374  -20508757.55847 -15758006.93562
  17427653.967   -33474058.545 7 -26010651.55623
 91  3 27  2 16 59.9900000  0  3G 2G13G 6
  18338306.412   -28915852.750 7 -22531770.22423
  17421547.9044  -20536796.84147 -15779855.69162
  17426679.498   -33479196.769 7 -26014655.35323
 91  3 27  2 17 14.9900000  0  3G 2G13G 6
  18338718.311   -28913695.894 7 -22530089.53323
  17416241.3814  -20564690.82347 -15801591.22762
  17425727.4824  -33484192.70647 -26018548.27863
 91  3 27  2 17 29.9900000  0  3G 2G13G 6
  18339138.3734  -28911493.63647 -22528373.45963
  17410957.0064  -20592449.68247 -15823221.46962
  17424800.397   -33489056.220 7 -26022338.02022
 91  3 27  2 17 44.9900000  0  3G 2G13G 6
  18339560.068   -28909271.047 7 -22526641.55323
  17405694.904   -20620098.752 7 -15844766.15922
  17423898.272   -33493812.397 7 -26026044.11522
 91  3 27  2 17 59.9900000  0  3G 2G13G 6
  18339999.3034  -28906971.27147 -22524849.49063
  17400465.7324  -20647581.10747 -15866180.93862
  17423023.053   -33498404.269 7 -26029622.18322
 91  3 27  2 18 14.9900000  0  3G 2G13G 6
  18340445.303   -28904616.179 7 -22523014.33123
  17395263.8734  -20674918.47447 -15887482.74762
  17422175.834   -33502853.714 7 -26033089.26522
 91  3 27  2 18 29.9900000  0  3G 2G13G 6
  18340904.162   -28902202.553 7 -22521133.56923
  17390090.201   -20702107.688 7 -15908669.12322
  17421359.615   -33507157.399 7 -26036442.76422
 91  3 27  2 18 44.9900000  0  3G 2G13G 6
  18341375.7324  -28899732.60747 -22519208.91763
  17384943.8264  -20729151.29047 -15929742.01862
  17420563.912   -33511317.390 7 -26039684.29523
 91  3 27  2 18 59.9900000  0  3G 2G13G 6
  18341854.045   -28897219.181 7 -22517250.37723
  17379822.3734  -20756062.10547 -15950711.45562
  17419797.170   -33515346.487 7 -26042823.83023
 91  3 27  2 19 14.9900000  0  3G 2G13G 6
  18342337.529   -28894668.665 7 -22515262.95023
  17374727.3734  -20782846.76347 -15971582.58162
  17419056.357   -33519251.130 7 -26045866.39823
 91  3 27  2 19 29.9900000  0  3G 2G13G 6
  18342834.928   -28892057.309 7 -22513228.10923
  17369657.6864  -20809481.74647 -15992337.08562
  17418343.928   -33523007.694 7 -26048793.57223
 91  3 27  2 19 44.9900000  0  3G 2G13G 6
  18343343.576   -28889382.818 7 -22511144.06523
  17364618.7644  -20835964.57147 -16012973.01862
  17417656.287   -33526613.597 7 -26051603.34723
 91  3 27  2 19 59.9900000  0  3G 2G13G 6
  18343861.795   -28886658.331 7 -22509021.07023
  17359604.9284  -20862308.41647 -16033500.65162
  17416996.3114  -33530082.02447 -26054305.99262
 91  3 27  2 20 14.9900000  0  3G 2G13G 6
  18344395.5374  -28883852.59647 -22506834.76163
  17354624.1864  -20888482.45747 -16053895.97162
  17416367.850   -33533381.627 7 -26056877.09122
 91  3 27  2 20 29.9890000  0  3G 2G13G 6
  18344935.282   -28881013.534 7 -22504622.48023
  17349667.3764  -20914532.82047 -16074194.92862
  17415762.720   -33536559.986 7 -26059353.71922
 91  3 27  2 20 44.9890000  0  3G 2G13G 6
  18345483.345   -28878139.278 7 -22502382.77923
  17344732.5794  -20940461.36847 -16094398.95962
  17415180.853   -33539615.901 7 -26061734.92622
 91  3 27  2 20 59.9890000  0  3G 2G13G 6
  18346040.454   -28875210.579 7 -22500100.16123
  17339826.4784  -20966246.99947 -16114491.11962
  17414624.845   -33542529.595 7 -26064004.81922
 91  3 27  2 21 14.9890000  0  3G 2G13G 6
  18346610.501   -28872217.263 7 -22497767.68723
  17334948.1184  -20991879.52147 -16134464.47462
  17414099.728   -33545290.896 7 -26066156.46023
 91  3 27  2 21 29.9890000  0  3G 2G13G 6
  18347189.353   -28869179.560 7 -22495400.62123
  17330096.5324  -21017379.57047 -16154334.60862
  17413603.024   -33547920.042 7 -26068205.11522
 91  3 27  2 21 44.9890000  0  3G 2G13G 6
  18347781.2984  -28866065.14547 -22492973.78363
  17325274.9704  -21042714.77947 -16174076.29562
  17413130.579   -33550384.770 7 -26070125.66522
 91  3 27  2 21 59.9890000  0  3G 2G13G 6
  18348383.071   -28862903.550 7 -22490510.17923
  17320479.032   -21067914.842 7 -16193712.66722
  17412688.118   -33552714.579 7 -26071941.07622
 91  3 27  2 22 14.9890000  0  3G 2G13G 6
  18348989.282   -28859721.840 7 -22488030.91323
  17315704.5484  -21093006.99347 -16213264.95362
  17412264.017   -33554936.463 7 -26073672.39423
 91  3 27  2 22 29.9890000  0  3G 2G13G 6
  18349609.720   -28856453.131 7 -22485483.83623
  17310963.0484  -21117924.03847 -16232680.79562
  17411875.853   -33556983.195 7 -26075267.22923
 91  3 27  2 22 44.9890000  0  3G 2G13G 6
  18350240.149   -28853143.064 7 -22482904.54523
  17306245.9464  -21142711.97447 -16251996.03762
  17411507.274   -33558900.603 6 -26076761.29623
 91  3 27  2 22 59.9890000  0  3G 2G13G 6
  18350882.118   -28849764.558 7 -22480271.92223
  17301559.6034  -21167343.72947 -16271189.57562
  17411175.782   -33560661.554 7 -26078133.44323
 91  3 27  2 23 14.9890000  0  3G 2G13G 6
  18351541.626   -28846299.172 7 -22477571.59823
  17296904.5644  -21191801.27647 -16290247.36562
  17410874.321   -33562247.672 7 -26079369.35823
 91  3 27  2 23 29.9890000  0  3G 2G13G 6
  18352212.4544  -28842777.51147 -22474827.41963
  17292278.4704  -21216115.18447 -16309193.23362
  17410596.884   -33563689.570 7 -26080492.89923
 91  3 27  2 23 44.9890000  0  3G 2G13G 6
  18352893.1654  -28839215.83547 -22472052.06563
  17287674.868   -21240301.818 7 -16328039.92122
  17410346.407   -33565003.290 7 -26081516.55523
 91  3 27  2 23 59.9890000  0  3G 2G13G 6
  18353580.478   -28835584.933 7 -22469222.76323
  17283101.9934  -21264331.99847 -16346764.69762
  17410127.024   -33566159.657 7 -26082417.60023
 91  3 27  2 24 14.9890000  0  3G 2G13G 6
  18354274.8844  -28831932.68747 -22466376.83063
  17278550.7744  -21288253.73947 -16365404.97562
  17409929.415   -33567206.577 7 -26083233.36023
 91  3 27  2 24 29.9890000  0  3G 2G13G 6
  18354989.946   -28828197.148 7 -22463466.00023
  17274030.3684  -21312005.40547 -16383912.73362
  17409762.048   -33568082.080 7 -26083915.55022
 91  3 27  2 24 44.9890000  0  3G 2G13G 6
  18355715.774   -28824372.866 7 -22460486.02023
  17269544.1494  -21335581.75047 -16402283.87662
  17409629.2514  -33568780.82047 -26084459.99262
 91  3 27  2 24 59.9890000  0  3G 2G13G 6
  18356450.282   -28820517.227 7 -22457481.60023
  17265079.8294  -21359040.18347 -16420563.13862
  17409518.696   -33569359.965 7 -26084911.25022
 91  3 27  2 25 14.9890000  0  3G 2G13G 6
  18357187.337   -28816639.301 7 -22454459.82123
  17260635.8144  -21382389.79647 -16438757.60462
  17409428.595   -33569828.678 7 -26085276.46222
 91  3 27  2 25 29.9890000  0  3G 2G13G 6
  18357926.962   -28812737.782 7 -22451419.65323
  17256213.8604  -21405629.54247 -16456866.45662
  17409363.017   -33570185.844 7 -26085554.75422
 91  3 27  2 25 44.9890000  0  3G 2G13G 6
  18358694.829   -28808717.505 7 -22448286.94823
  17251829.954   -21428664.240 7 -16474815.52722
  17409336.009   -33570336.010 6
 91  3 27  2 25 59.9890000  0  3G 2G13G 6
  18359473.001   -28804628.950 7 -22445101.04523
  17247476.3604  -21451544.59147 -16492644.33662
  17409332.853   -33570329.571 6
 91  3 27  2 26 14.9890000  0  3G 2G13G 6
  18360262.860   -28800471.171 7 -22441861.19623
  17243152.5244  -21474269.59847 -16510352.09562
  17409368.204   -33570165.687 6
 91  3 27  2 26 29.9890000  0  3G 2G13G 6
  18361065.978   -28796259.338 7 -22438579.23523
  17238853.892   -21496854.760 7 -16527950.88022
  17409422.329   -33569859.520 7
 91  3 27  2 26 44.9890000  0  3G 2G13G 6
  18361870.470   -28792015.005 7 -22435271.95123
  17234579.3764  -21519321.79347 -16545457.62362
  17409507.876   -33569432.731 7 -26084967.82622
 91  3 27  2 26 59.9890000  0  3G 2G13G 6
  18362686.9234  -28787744.26347 -22431944.09163
  17230324.9464  -21541677.32747 -16562877.48762
  17409606.728   -33568891.494 7 -26084546.06522
 91  3 27  2 27 14.9890000  0  3G 2G13G 6
  18363507.8604  -28783414.41447 -22428570.17663
  17226097.4704  -21563888.36647 -16580184.75362
  17409741.2744  -33568202.96147 -26084009.52562
 91  3 27  2 27 29.9890000  0  3G 2G13G 6
  18364337.649   -28779046.834 7 -22425166.85323
  17221894.7284  -21585976.30447 -16597396.09962
  17409895.337   -33567388.396 7 -26083374.27322
 91  3 27  2 27 44.9890000  0  3G 2G13G 6
  18365187.462   -28774594.961 7 -22421697.84923
  17217723.5644  -21607894.80547 -16614475.41262
  17410080.415   -33566401.353 7 -26082605.63022
 91  3 27  2 27 59.9890000  0  3G 2G13G 6
  18366048.6654  -28770073.94547 -22418174.97163
  17213582.8994  -21629659.23647 -16631434.67562
  17410299.071   -33565256.897 7 -26081713.82722
 91  3 27  2 28 14.9890000  0  3G 2G13G 6
  18366914.407   -28765520.005 7 -22414626.43323
  17209463.1494  -21651305.90447 -16648302.16762
  17410541.985   -33563991.251 7 -26080727.59522
 91  3 27  2 28 29.9890000  0  3G 2G13G 6
  18367782.157   -28760949.515 7 -22411065.00423
  17205362.6654  -21672851.27647 -16665090.73462
  17410802.962   -33562620.674 7 -26079659.59623
 91  3 27  2 28 44.9890000  0  3G 2G13G 6
  18368681.689   -28756225.004 7 -22407383.55323
  17201308.7124  -21694158.30947 -16681693.57962
  17411110.618   -33561007.924 7 -26078402.88923
 91  3 27  2 28 59.9890000  0  3G 2G13G 6
  18369583.884   -28751488.768 7 -22403692.96323
  17197271.4394  -21715369.40847 -16698221.68062
  17411437.290   -33559295.489 7 -26077068.51122
 91  3 27  2 29 14.9890000  0  3G 2G13G 6
  18370502.439   -28746674.258 7 -22399941.37623
  17193266.6424  -21736417.85547 -16714623.02862
  17411793.978   -33557416.622 7 -26075604.43322
 91  3 27  2 29 29.9890000  0  3G 2G13G 6
  18371430.939   -28741782.480 7 -22396129.58823
  17189290.9624  -21757304.93347 -16730898.63662
  17412179.899   -33555372.338 7 -26074011.46522
 91  3 27  2 29 44.9890000  0  3G 2G13G 6
  18372367.157   -28736860.556 7 -22392294.30323
  17185339.009   -21778078.005 7 -16747085.40922
  17412590.6184  -33553209.58647 -26072326.17662
 91  3 27  2 29 59.9890000  0  3G 2G13G 6
  18373307.939   -28731904.672 7 -22388432.55723
  17181407.923   -21798733.232 7 -16763180.34722
  17413029.290   -33550924.630 7 -26070545.67322
 91  3 27  2 30 14.9890000  0  3G 2G13G 6
  18374275.962   -28726837.507 7 -22384484.10223
  17177514.8994  -21819193.63547 -16779123.48862
  17413501.415   -33548440.326 7 -26068609.83123
 91  3 27  2 30 29.9890000  0  3G 2G13G 6
  18375243.696   -28721747.640 7 -22380517.95923
  17173641.8844  -21839547.93747 -16794983.94462
  17413992.876   -33545845.305 7 -26066587.72423
 91  3 27  2 30 44.9890000  0  3G 2G13G 6
  18376219.048   -28716609.506 7 -22376514.20123
  17169793.3994  -21859770.73647 -16810741.93962
  17414515.774   -33543113.936 7 -26064459.36723
 91  3 27  2 30 59.9890000  0  3G 2G13G 6
  18377216.142   -28711380.649 7 -22372439.74623
  17165978.0564  -21879819.62047 -16826364.41062
  17415065.7354  -33540203.78447 -26062191.71163
 91  3 27  2 31 14.9890000  0  3G 2G13G 6
  18378217.470   -28706109.750 7 -22368332.03623
  17162185.9544  -21899743.67447 -16841889.11262
  17415647.118   -33537163.616 6 -26059822.72522
